     2.10           OBSERVATION DATA    G (GPS)             RINEX VERSION / TYPE
teqc 2005Jan28 UNAVCO Archive Ops 20050505 19:36:10UTC      PGM / RUN BY / DATE
Solaris 2.7|Ultra 2|cc SC5.0|=+-|*Sparc                     COMMENT
BIT 2 OF LLI FLAGS DATA COLLECTED UNDER A/S CONDITION       COMMENT
GOLD                                                        MARKER NAME
3259                                                        MARKER NUMBER
K. Furlong, R.MalserPSU                                     OBSERVER / AGENCY
14444 TRIMBLE 4000SSI NP 7.19 / SP 3.04                     REC # / TYPE / VERS
131866 TRM29659.00                                          ANT # / TYPE
 -2318831.0000 -4481329.0000  3890861.0000                  APPROX POSITION XYZ
        0.5000        0.0000        0.0000                  ANTENNA: DELTA H/E/N
     1     1                                                WAVELENGTH FACT L1/2
     6    L1    L2    C1    P2    P1    D1                  # / TYPES OF OBSERV
    15.0000                                                 INTERVAL
NOTICE: YOUR USE OF THIS FILE IMPLIES YOUR                  COMMENT
ACCEPTANCE OF THE UNAVCO DATA SHARING POLICY                COMMENT
READ THE POLICY AT:                                         COMMENT
http://www.unavco.org/community/policies_forms              COMMENT
/DataPolicy.html                                            COMMENT
AND FOLLOW THE POLICY OR DELETE THIS FILE.                  COMMENT
                                                            COMMENT
RINEX file created by UNAVCO GPS Archive.                   COMMENT
For more information contact archive@unavco.org             COMMENT
Monument ID: 11046                                          COMMENT
UNAVCO 4-char name: GOLD                                    COMMENT
4-char name from log or data file: GFLD                     COMMENT
Monument name: Goldfield                                    COMMENT
Monument location: 37.8229 -117.3605 1641.138714            COMMENT
Original XYZ: -2318988.9523 -4481342.1049 3890941.6044      COMMENT
New XYZ position is based on association with SCEC monument COMMENT
E1G2C6S7+0011.                                              COMMENT
Visit ID: 59496 RawID: 238224                               COMMENT
Filename: GFLD2750 DAT EPH ION MES                          COMMENT
Antenna height measured: .5                                 COMMENT
Antenna height measured type: V                             COMMENT
Corrected antenna height validated? Y                       COMMENT
If Yes, then logsheet & data file values are identical      COMMENT
End of DB comments                                          COMMENT
SNR is mapped to RINEX snr flag value [1-9]                 COMMENT
L1: 3 -> 1; 8 -> 5; 40 -> 9                                 COMMENT
L2: 1 -> 1; 5 -> 5; 60 -> 9                                 COMMENT
  2001    10     2     0    26   15.0000000     GPS         TIME OF FIRST OBS
                                                            END OF HEADER
 01 10  2  0 26 15.0000000  0  8G 3G 2G 8G10G13G27G28G31
      9840.71453                  25064532.5234
     -4923.7814
       406.31357      3531.91756  22556871.1024   22556879.7194
       -92.0624
    225386.80958    171248.02457  20609489.9774   20609496.0474
      -701.9694
    144347.84455    273303.90355  24125289.2734   24125302.5084
     -2910.3444
   2138192.65257   1422885.41756  22230417.6094   22230424.7274
     -4857.9844
    789244.87658    613942.30757  20796938.8674   20796944.9264
     -1926.9844
     64392.87358     50420.72756  21430397.3134   21430403.3484
      -346.7814
   1459448.20956   1126614.32756  22206630.9304   22206638.6804
     -3452.2814
 01 10  2  0 26 30.0000000  0  8G 3G 2G 8G10G13G27G28G31
     83773.03743                  25078603.2584
     -4933.9064
      1858.56547      4663.58946  22557147.6954   22557156.3594
      -101.6254
    235989.86748    179510.16047  20611507.7894   20611513.8714
      -711.8284
    188102.75045    307398.56345  24133616.0944   24133628.1094
     -2923.7034
   2211146.26747   1479732.31446  22244300.0004   22244307.0824
     -4869.2034
    818226.82248    636525.63347  20802454.0004   20802460.0004
     -1937.3284
     69678.87348     54539.70946  21431403.0314   21431409.0664
      -358.0784
   1511345.72346   1167053.93646  22216506.8444   22216514.6994
     -3467.4374
 01 10  2  0 26 45.0000000  0  8G 3G 2G 8G10G13G27G28G31
    157858.15243                  25092700.1724
     -4943.9224
      3455.15847      5907.72946  22557451.4614   22557460.0314
      -111.0784
    246742.21848    187888.62547  20613553.7734   20613559.7734
      -721.6254
    232058.93745    341650.06345  24141980.8754   24141994.7774
     -2936.9374
   2284268.51547   1536710.62146  22258215.0864   22258221.9804
     -4880.2504
    847364.82348    659230.56347  20807998.5634   20808004.7624
     -1947.5624
     75135.21248     58791.43546  21432441.3364   21432447.3244
      -369.2664
   1563471.24046   1207671.20646  22226426.1334   22226433.6604
     -3482.4534
 01 10  2  0 27  0.0000000  0  8G 3G 2G 8G10G13G27G28G31
    232094.34443                  25106827.3594
     -4953.9844
      5194.75047      7263.30946  22557782.1564   22557790.4694
      -120.6414
    257642.45048    196382.32647  20615627.9454   20615634.0634
      -731.5164
    276214.74945    376057.13045  24150382.9614   24150395.2344
     -2950.2664
   2357557.71947   1593819.02346  22272161.2584   22272168.3754
     -4891.3914
    876657.68448    682056.16347  20813572.9304   20813578.8954
     -1957.9224
     80760.47148     63174.78546  21433511.8834   21433517.7894
      -380.5314
   1615823.17046   1248464.92146  22236388.4694   22236396.0434
     -3497.5784
 01 10  2  0 27 15.0000000  0  8G 3G 2G 8G10G13G27G28G31
    306479.18742                  25120980.9064
     -4963.8124
      7074.83947      8728.35746  22558140.2114   22558148.5124
      -129.9224
    268688.46448    204989.62547  20617730.0004   20617735.9184
      -741.1564
    320567.61445    410617.76645  24158824.1484   24158835.9774
     -2963.3124
   2431011.27947   1651055.49746  22286139.2274   22286146.5314
     -4902.2814
    906103.09348    705000.63347  20819176.2664   20819182.2544
     -1968.0164
     86552.15748     67687.81746  21434613.8984   21434619.8634
      -391.5624
   1668398.82846   1289432.94946  22246393.1414   22246400.8674
     -3512.3914
 01 10  2  0 27 30.0000000  0  8G 3G 2G 8G10G13G27G28G31
    381009.44441      3870.44254  25135162.5084   25135175.1804
     -4973.4694
      9092.81247     10300.85346  22558524.0864   22558532.4454
      -139.0474
    279877.51848    213708.37647  20619859.1724   20619865.2894
      -750.6254
    365114.64045    445329.65745  24167300.7194   24167313.1684
     -2976.1414
   2504626.49047   1708417.93946  22300147.4844   22300154.6254
     -4912.9844
    935698.49848    728061.98547  20824808.1094   20824814.1914
     -1977.9534
     92507.67448     72328.50546  21435747.2584   21435753.1524
      -402.4064
   1721195.31946   1330573.06646  22256439.8204   22256447.6054
     -3527.0314
 01 10  2  0 27 45.0000000  0  8G 3G 2G 8G10G13G27G28G31
    455681.32042     62056.25845  25149373.8524   25149385.1764
     -4982.7664
     11245.29747     11978.15946  22558933.7664   22558942.3594
      -147.9064
    291206.59348    222536.23847  20622015.1724   20622021.2194
      -759.8594
    409852.24145    480190.07145  24175813.3754   24175826.8554
     -2988.7814
   2578399.56947   1765903.39946  22314186.1174   22314193.7974
     -4923.3914
    965440.69348    751237.71447  20830467.8674   20830473.8674
     -1987.6414
     98623.66348     77094.23346  21436911.0944   21436917.1644
      -413.0164
   1774209.08746   1371882.49046  22266528.0634   22266535.6604
     -3541.4224
 01 10  2  0 28  0.0000000  0  8G 3G 2G 8G10G13G27G28G31
    530494.58643    120352.44145  25163611.2584   25163623.1454
     -4992.1874
     13531.94947     13760.01846  22559368.5864   22559376.8524
      -156.8914
    302675.55148    231473.10347  20624197.4144   20624203.3914
      -769.2344
    454779.88945    515198.58145  24184362.8914   24184376.7584
     -3001.4844
   2652329.93047   1823511.39446  22328254.6564   22328262.1484
     -4933.8914
    995329.45848    774527.65847  20836155.3594   20836161.3714
     -1997.4374
    104899.94948     81984.87546  21438105.3834   21438111.3484
      -423.7344
   1827439.64946   1413360.84846  22276657.5234   22276664.9804
     -3555.8914
 01 10  2  0 28 15.0000000  0  8G 3G 2G 8G10G13G27G28G31
    605447.22742    178757.17944  25177872.1804   25177880.2344
     -5001.4694
     15951.12347     15645.12846  22559829.0944   22559837.6764
      -165.6564
    314282.70748    240517.65547  20626406.2274   20626412.3794
      -778.3914
    499895.58445    550353.55845  24192948.0314   24192962.0744
     -3013.9374
   2726415.58747   1881240.41646  22342352.7894   22342360.1524
     -4944.2034
   1025363.23248    797930.59547  20841870.7114   20841876.7464
     -2007.0624
    111334.74048     86999.02446  21439329.7424   21439335.6844
      -434.2344
   1880885.04546   1455006.60446  22286828.2114   22286835.9614
     -3570.1564
 01 10  2  0 28 30.0000000  0  8G 3G 2G 8G10G13G27G28G31
    680536.60743    237268.63744  25192162.0634   25192180.9694
     -5010.5004
     18500.63747     17631.82346  22560314.0944   22560322.3954
      -174.2974
    326026.11348    249668.38347  20628640.7894   20628646.8594
      -787.4224
    545196.90045    585653.25745  24201568.5394   24201583.0274
     -3026.2504
   2800654.26947   1939088.66846  22356480.0474   22356487.4694
     -4954.3284
   1055540.06148    821445.00947  20847613.1174   20847619.1294
     -2016.5474
    117925.88548     92135.00446  21440584.0164   21440590.0514
      -444.5944
   1934542.95146   1496817.95446  22297038.6484   22297046.2234
     -3584.2664
 01 10  2  0 28 45.0000000  0  8G 3G 2G 8G10G13G27G28G31
    755760.86243    295885.01045  25206477.2344   25206489.1684
     -5019.3124
     21178.84747     19718.78746  22560823.7974   22560831.9224
      -182.7194
    337904.16548    258924.02047  20630901.1254   20630907.2194
      -796.2344
    590681.99845    621096.12945  24210224.5474   24210237.6884
     -3038.3594
   2875043.92547   1997054.56946  22370635.7894   22370642.8244
     -4964.2194
   1085858.38748    845069.67647  20853382.4304   20853388.4414
     -2025.8124
    124671.65548     97391.48346  21441867.6884   21441873.5234
      -454.7504
   1988411.43446   1538793.38746  22307289.3594   22307297.0274
     -3598.1254
 01 10  2  0 29  0.0000000  0  8G 3G 2G 8G10G13G27G28G31
    831119.27243    354606.02145  25220817.9384   25220829.1454
     -5028.4374
     23985.48947     21905.82946  22561357.6884   22561366.0474
      -191.4064
    349916.87048    268284.58347  20633187.0864   20633193.1564
      -805.3594
    636350.48245    656681.87645  24218915.0944   24218929.9924
     -3050.6874
   2949584.10147   2055137.76746  22384820.5394   22384827.8204
     -4974.3754
   1116318.11048    868804.53047  20859178.7504   20859184.8674
     -2035.3754
    131571.85148    102768.28746  21443180.7734   21443186.6804
      -465.1724
   2042490.15846   1580932.65946  22317580.4614   22317588.3524
     -3612.2664
 01 10  2  0 29 15.0000000  0  8G 3G 2G 8G10G13G27G28G31
    906607.08843    413427.79345  25235182.2504   25235194.3134
     -5036.7344
     26916.02647     24189.42246  22561915.4304   22561923.4844
      -199.3594
    362059.67248    277746.52147  20635497.8444   20635503.9144
      -813.7194
    682197.54245    692406.80245  24227638.9534   24227651.5434
     -3062.2974
   3024270.06447   2113334.53546  22399032.8524   22399040.0274
     -4983.7664
   1146914.70548    892646.03447  20865001.1804   20865007.1804
     -2044.2034
    138621.83548    108261.81446  21444522.1484   21444528.2074
      -474.8754
   2096774.21046   1623231.91946  22327910.2894   22327917.7344
     -3625.6414
 01 10  2  0 29 30.0010000  0  8G 3G 2G 8G10G13G27G28G31
    982223.43642    472349.82044  25249571.3414   25249579.2904
     -5044.9534
     29965.02647     26565.31146  22562495.6854   22562503.9854
      -207.3284
    374328.12948    287306.37347  20637832.4114   20637838.4354
      -822.1414
    728220.37645    728268.70145  24236396.9424   24236408.9114
     -3073.8594
   3099100.86347   2171644.17846  22413272.3564   22413279.8604
     -4993.1874
   1177644.88848    916591.63447  20870848.8334   20870854.7514
     -2053.0624
    145816.73348    113868.25446  21445891.4274   21445897.4274
      -484.5784
   2151261.53146   1665689.56446  22338279.1534   22338286.7284
     -3639.0314
 01 10  2  0 29 45.0010000  0  8G 3G 2G 8G10G13G27G28G31
   1057960.02543    531365.48945  25263984.3564   25263994.7554
     -5053.1414
     33134.30247     29034.92346  22563098.5754   22563106.9354
      -215.1874
    386722.85248    296964.61547  20640191.0284   20640197.1574
      -830.4374
    774414.81045    764264.28345  24245187.7784   24245199.6424
     -3085.3284
   3174068.53947   2230060.48046  22427538.7784   22427546.2714
     -5002.4374
   1208506.92048    940639.97147  20876721.8724   20876727.8724
     -2061.8124
    153157.72748    119588.52846  21447288.2944   21447294.3294
      -494.1564
   2205946.93846   1708301.55746  22348684.9664   22348693.1734
     -3652.2814
 01 10  2  0 30  0.0010000  0  8G 3G 2G 8G10G13G27G28G31
   1133818.77042    590476.34044  25278420.1304   25278427.8454
     -5061.3124
     36421.06347     31596.08846  22563723.8414   22563732.1424
      -223.0004
    399241.93048    306719.75647  20642573.2004   20642579.2354
      -838.7194
    820780.60345    800393.42245  24254010.4274   24254022.8994
     -3096.7344
   3249174.74147   2288584.72346  22441831.0214   22441838.4424
     -5011.6564
   1239499.98648    964790.41847  20882619.5994   20882625.6924
     -2070.5474
    160642.20548    125420.62146  21448712.4814   21448718.5174
      -503.7194
   2260830.78746   1751068.18846  22359129.2474   22359136.9274
     -3665.5164
 01 10  2  0 30 15.0010000  0  8G 3G 2G 8G10G13G27G28G31
   1209798.17843    649681.29845  25292876.9034   25292890.0444
     -5069.2344
     39824.18847     34247.92546  22564371.6924   22564380.2744
      -230.6564
    411884.33748    316571.00047  20644978.8564   20644984.9624
      -846.8444
    867316.37445    836654.98645  24262867.0674   24262878.9424
     -3107.9694
   3324418.08447   2347215.83946  22456149.6144   22456156.8374
     -5020.6874
   1270623.03148    989042.14447  20888542.0284   20888548.1104
     -2079.0944
    168269.16548    131363.73746  21450163.9114   21450169.8994
      -513.1094
   2315911.65246   1793988.33346  22369610.7634   22369617.9744
     -3678.5164
 01 10  2  0 30 30.0010000  0  8G 3G 2G 8G10G13G27G28G31
   1285896.12743    708978.37745  25307359.4354   25307369.3644
     -5077.0784
     43341.75447     36988.93846  22565041.1384   22565049.4274
      -238.2974
    424648.26248    326516.93147  20647407.9504   20647413.9384
      -854.9534
    914020.10445    873047.43745  24271754.1534   24271766.3684
     -3119.1414
   3399796.49147   2405952.18146  22470493.6464   22470500.5174
     -5029.6874
   1301874.22048   1013393.72147  20894488.9974   20894494.8924
     -2087.6564
    176036.55548    137416.27046  21451642.1694   21451648.1694
      -522.4694
   2371187.39146   1837060.32846  22380129.5994   22380137.1854
     -3691.5004
 01 10  2  0 30 45.0010000  0  8G 3G 2G 8G10G13G27G28G31
   1362110.14943    768366.32045  25321861.0214   25321875.0994
     -5084.7344
     46971.90147     39817.67246  22565731.7394   22565739.9704
      -245.6874
    437532.02448    336556.24547  20649859.4664   20649865.5954
      -862.8284
    960889.64445    909569.06645  24280673.2004   24280684.7244
     -3130.0944
   3475307.80447   2464792.09446  22484863.1064   22484870.4704
     -5038.4374
   1333251.86748   1037843.83847  20900459.9194   20900466.0134
     -2095.9844
    183942.47948    143576.75346  21453146.5214   21453152.5914
      -531.6094
   2426655.98246   1880282.59846  22390685.1534   22390692.3064
     -3704.2504
 01 10  2  0 31  0.0010000  0  8G 3G 2G 8G10G13G27G28G31
   1438440.07142    827844.27544  25336384.9194   25336394.7314
     -5092.3914
     50714.49847     42734.03846  22566443.8494   22566451.8684
      -253.1414
    450535.67148    346688.97547  20652334.2314   20652340.4074
      -870.7974
   1007924.59845    946219.64545  24289623.9424   24289635.3964
     -3141.0624
   3550951.70947   2523735.32846  22499257.7944   22499264.8644
     -5047.2194
   1364756.00748   1062392.52147  20906454.9504   20906460.9744
     -2104.3754
    191986.96748    149845.21546  21454677.2864   21454683.2394
      -540.7974
   2482317.04146   1923654.84246  22401276.7864   22401284.1494
     -3717.0474
 01 10  2  0 31 15.0010000  0  8G 3G 2G 8G10G13G27G28G31
     40780.31552    887413.97343  25350931.0914   25350934.5364
     -5100.3754
     54570.31847     45738.62146  22567177.6224   22567185.9464
      -260.8914
    463660.08248    356915.80047  20654831.6614   20654837.7674
      -879.0474
   1055125.54545    982999.53845  24298606.3804   24298619.1224
     -3152.3124
   3626728.52047   2582782.12046  22513677.7634   22513685.0324
     -5056.2814
   1396387.54748   1087040.47447  20912474.2634   20912480.3104
     -2113.0784
    200170.65848    156222.14646  21456234.5994   21456240.6924
      -550.2814
   2538171.14946   1967177.51346  22411905.7944   22411913.3684
     -3730.0944
 01 10  2  0 31 30.0010000  0  8G 3G 2G 8G10G13G27G28G31
    117340.93943    947071.76545  25365501.9114   25365513.5994
     -5107.9534
     58537.70847     48830.14446  22567932.4974   22567940.8214
      -268.2664
    476903.69748    367235.51847  20657351.7004   20657357.6884
      -886.9374
   1102490.61045   1019907.29745  24307619.5214   24307632.1574
     -3163.1874
   3702636.42347   2641931.07446  22528122.4114   22528129.5994
     -5064.9374
   1428145.00248   1111786.54647  20918517.5914   20918523.6384
     -2121.4064
    208492.04648    162706.37646  21457817.8494   21457823.8254
      -559.3914
   2594216.50646   2010849.21046  22422570.6224   22422577.9974
     -3742.7664
 01 10  2  0 31 45.0010000  0  7G 2G 8G10G13G27G28G31
     62617.78047     52009.47946  22568708.8254   22568717.1494
      -275.6564
    490267.96848    377649.25247  20659894.9114   20659900.9114
      -894.8754
   1150020.69345   1056943.67645  24316663.8644   24316673.9464
     -3174.0624
   3778676.26647   2701182.82046  22542592.6614   22542599.6494
     -5073.6094
   1460029.69448   1136631.76147  20924584.9274   20924591.0444
     -2129.7814
    216952.27348    169298.78446  21459427.9664   21459434.0604
      -568.5314
   2650454.01446   2054670.64046  22433272.2244   22433279.9974
     -3755.4694
 01 10  2  0 32  0.0010000  0  7G 2G 8G10G13G27G28G31
     66806.22247     55273.25546  22569505.9034   22569514.0754
      -282.9064
    503748.64248    388153.68647  20662460.3024   20662466.3724
      -902.6724
   1197711.11545   1094104.97545  24325738.9584   24325752.4154
     -3184.7664
   3854843.53947   2760533.87246  22557086.7004   22557093.7354
     -5082.1254
   1492037.41648   1161572.84447  20930675.8644   20930681.8994
     -2138.0314
    225546.92848    175995.94346  21461063.3644   21461069.4114
      -577.5314
   2706879.03046   2098638.18046  22444010.0994   22444017.6144
     -3767.9844
 01 10  2  0 32 15.0010000  0  7G 2G 8G10G13G27G28G31
     71103.26147     58621.65246  22570323.4894   22570331.8724
      -290.1254
    517346.12248    398749.13947  20665047.6924   20665053.6694
      -910.4374
   1245561.86945   1131391.20645  24334844.8804   24334856.1224
     -3195.4224
   3931138.22747   2819984.20646  22571605.1064   22571612.3414
     -5090.5784
   1524168.46748   1186610.02847  20936790.2554   20936796.2904
     -2146.2194
    234276.31048    182798.08946  21462724.3564   21462730.3334
      -586.4844
   2763491.53546   2142751.80446  22454782.5754   22454790.2084
     -3780.4534
 01 10  2  0 32 30.0010000  0  7G 2G 8G10G13G27G28G31
     75510.40747     62055.83746  22571162.2314   22571170.4274
      -297.3124
    531062.09248    409436.92447  20667657.7244   20667663.8414
      -918.1874
   1293574.23445   1168803.35245  24343981.4584   24343993.9894
     -3206.0474
   4007561.45347   2879534.70946  22586148.0214   22586155.7354
     -5099.0004
   1556424.61748   1211744.69347  20942928.3564   20942934.3104
     -2154.4064
    243142.01948    189706.46446  21464411.6464   21464417.6574
      -595.4224
   2820292.86446   2187012.57646  22465591.4814   22465599.5484
     -3792.8754
 01 10  2  0 32 45.0010000  0  7G 2G 8G10G13G27G28G31
     80022.00747     65571.43046  22572020.5364   22572028.8024
      -304.3444
    544890.97948    420212.69247  20670289.2314   20670295.3254
      -925.7814
   1341742.32945   1206336.84745  24353146.9664   24353160.5054
     -3216.4694
   4084107.41647   2939180.84446  22600714.2474   22600721.4464
     -5107.2344
   1588800.27248   1236972.47947  20949089.1224   20949095.1814
     -2162.4534
    252138.27048    196716.56246  21466123.4424   21466129.4894
      -604.1874
   2877277.13146   2231415.89046  22476435.4584   22476443.3374
     -3805.1254
 01 10  2  0 33  0.0010000  0  7G 2G 8G10G13G27G28G31
     84640.84347     69170.56746  22572899.7004   22572907.3804
      -311.5784
    558835.79748    431078.80047  20672942.7784   20672948.8374
      -933.6094
   1390068.59245   1243993.61245  24362343.6614   24362356.9424
     -3227.1094
   4160778.61147   2998924.55446  22615304.1224   22615311.1924
     -5115.6564
   1621298.29648   1262295.61047  20955273.4744   20955279.4274
     -2170.7034
    261267.75848    203830.47246  21467860.8024   21467866.8024
      -613.1564
   2934446.83346   2275963.70146  22487314.0284   22487322.0954
     -3817.5784
 01 10  2  0 33 15.0010000  0  7G 2G 8G10G13G27G28G31
     89367.50747     72853.73846  22573798.9424   22573807.3494
      -318.6254
    572897.27448    442035.80647  20675618.6304   20675624.6774
      -941.2344
   1438553.47845   1281773.98745  24371570.1304   24371583.3534
     -3237.5314
   4237575.36747   3058766.11746  22629918.3024   22629925.2554
     -5123.8914
   1653919.49748   1287714.73347  20961480.9034   20961486.8684
     -2178.7814
    270531.10448    211048.69946  21469623.5134   21469629.5014
      -621.9374
   2991802.48646   2320656.40346  22498228.7554   22498236.4934
     -3829.8284
 01 10  2  0 33 30.0010000  0  7G 2G 8G10G13G27G28G31
     94200.05147     76619.40146  22574718.6064   22574726.5444
      -325.7974
    587073.62648    453082.32747  20678316.4114   20678322.4114
      -949.0314
   1487194.86845   1319676.27745  24380826.4664   24380839.1494
     -3248.0624
   4314495.61647   3118703.89846  22644555.7474   22644563.2044
     -5132.2194
   1686662.15348   1313228.48647  20967711.7394   20967717.7394
     -2187.0004
    279926.55648    218369.85646  21471411.3804   21471417.4274
      -630.8754
   3049341.95146   2365492.35346  22509178.4894   22509186.5444
     -3842.1874
 01 10  2  0 33 45.0010000  0  7G 2G 8G10G13G27G28G31
     99138.73847     80467.78346  22575658.2554   22575666.2044
      -332.7034
    601365.34548    464218.74847  20681035.9584   20681042.0634
      -956.5624
   1535992.86445   1357700.65345  24390112.0754   24390124.9234
     -3258.3284
   4391539.10947   3178737.72546  22659216.5994   22659224.3254
     -5140.2504
   1719526.66548   1338837.20147  20973965.5994   20973971.7634
     -2194.9374
    289454.22848    225794.04146  21473224.4664   21473230.2904
      -639.5004
   3107065.21246   2410471.50546  22520162.6384   22520170.3764
     -3854.2504
 01 10  2  0 34  0.0010000  0  7G 2G 8G10G13G27G28G31
    104182.04547     84397.68046  22576618.0444   22576626.1344
      -339.7194
    615770.98448    475443.93847  20683777.2164   20683783.2864
      -964.1874
   1584945.54345   1395845.47945  24399428.6064   24399442.3924
     -3268.6724
   4468704.19146   3238866.27646  22673900.0914   22673907.8644
     -5148.4064
   1752511.55048   1364539.70547  20980242.4354   20980248.3994
     -2203.0164
    299112.54548    233320.03146  21475062.4034   21475068.4034
      -648.2504
   3164970.40346   2455592.44046  22531181.4744   22531189.3764
     -3866.4224
 01 10  2  0 34 15.0010000  0  7G 2G 8G10G13G27G28G31
    109330.07647     88409.18346  22577597.5834   22577605.6144
      -346.6254
    630290.75448    486758.06747  20686540.3024   20686546.3494
      -971.7194
   1634052.78645   1434110.82545  24408772.1464   24408786.0714
     -3278.9064
   4545990.77146   3299089.51446  22688607.6534   22688615.1694
     -5156.4224
   1785617.04148   1390336.19447  20986542.0674   20986548.0794
     -2210.9844
    308901.69348    240947.96646  21476925.1144   21476931.0914
      -656.9064
   3223057.40246   2500855.03946  22542235.4354   22542242.9974
     -3878.4694
 01 10  2  0 34 30.0010000  0  7G 2G 8G10G13G27G28G31
    114582.62847     92502.12746  22578596.9194   22578604.9854
      -353.5314
    644924.70448    498161.16147  20689324.9664   20689331.0364
      -979.2974
   1683314.16145   1472496.25145  24418147.1144   24418161.0634
     -3289.1094
   4623398.35146   3359407.04146  22703337.7714   22703345.3104
     -5164.4224
   1818843.11148   1416226.63747  20992864.9194   20992870.9314
     -2218.9844
    318821.47448    248677.69746  21478812.5914   21478818.5324
      -665.5624
   3281325.83346   2546259.00746  22553323.0754   22553330.8964
     -3890.5004
 01 10  2  0 34 45.0010000  0  7G 2G 8G10G13G27G28G31
    119937.93947     96675.15146  22579616.1304   22579624.1734
      -360.1874
    659671.24148    509651.98547  20692131.1304   20692137.1654
      -986.5944
   1732727.66145   1511000.13945  24427549.7314   24427562.3564
     -3299.0474
   4700924.97946   3419817.32246  22718090.8494   22718098.8104
     -5172.1564
   1852188.24048   1442209.85347  20999210.3414   20999216.4464
     -2226.7194
    328870.27248    256507.95946  21480724.8804   21480730.8334
      -673.9694
   3339773.77546   2591802.86146  22564445.5674   22564453.3294
     -3902.2664
 01 10  2  0 35  0.0010000  0  7G 2G 8G10G13G27G28G31
    125394.45747    100927.03046  22580654.3724   22580662.3684
      -367.1254
    674529.00448    521229.48347  20694958.4814   20694964.5634
      -994.2194
   1782291.43645   1549621.22445  24436981.3644   24436992.0214
     -3309.2504
   4778568.74846   3480318.88546  22732866.0054   22732873.4974
     -5180.1414
   1885650.96548   1468284.70847  21005577.9974   21005584.0914
     -2234.7664
    339046.38948    264437.42646  21482661.3414   21482667.2354
      -682.6414
   3398399.37046   2637485.14346  22575601.4114   22575609.2554
     -3914.2664
 01 10  2  0 35 15.0010000  0  7G 2G 8G10G13G27G28G31
    130953.19247    105258.57246  22581712.2784   22581719.9114
      -374.0624
    689499.13748    532894.53747  20697807.3964   20697813.4894
     -1001.8284
   1832006.31345   1588360.01245  24446442.4814   24446454.4974
     -3319.4534
   4856330.51247   3540912.38746  22747664.0134   22747671.0714
     -5188.1254
   1919232.40548   1494452.06147  21011968.3804   21011974.4154
     -2242.7974
    349350.82048    272466.88046  21484622.3494   21484628.4074
      -691.3124
   3457203.34446   2683306.41346  22586791.5444   22586799.6224
     -3926.2814
 01 10  2  0 35 30.0010000  0  7G 2G 8G10G13G27G28G31
    136614.64347    109670.14046  22582789.5834   22582797.5214
      -380.7504
    704582.25548    544647.63347  20700677.3174   20700683.4464
     -1009.2344
   1881872.48945   1627216.67845  24455930.5214   24455943.8494
     -3329.3594
   4934210.44746   3601597.98446  22762483.8104   22762491.1144
     -5195.8444
   1952933.19448   1520712.41547  21018381.2784   21018387.3254
     -2250.6094
    359784.11748    280596.75046  21486607.7164   21486613.6464
      -699.7664
   3516186.03146   2729266.96146  22598015.6224   22598023.3024
     -3938.0314
 01 10  2  0 35 45.0010000  0  7G 2G 8G10G13G27G28G31
    142375.31947    114159.02246  22583885.6854   22583893.6224
      -387.2344
    719775.09248    556486.22547  20703568.4504   20703574.4744
     -1016.3914
   1931886.23245   1666188.38745  24465448.2244   24465461.0484
     -3339.0474
   5012204.73846   3662372.67346  22777326.2784   22777333.6534
     -5203.3124
   1986749.96048   1547063.13947  21024816.5364   21024822.6534
     -2258.2034
    370342.87248    288824.37946  21488617.0444   21488622.9974
      -707.9844
   3575343.71746   2775363.86146  22609272.7554   22609280.4704
     -3949.5624
 01 10  2  0 36  0.0010000  0  7G 2G 8G10G13G27G28G31
    148235.57047    118725.49546  22585000.9664   22585008.7044
      -394.0474
    735078.12448    568410.68647  20706480.6694   20706486.6924
     -1023.9534
   1982047.51945   1705274.99545  24474993.5914   24475006.9664
     -3349.0624
   5090313.45146   3723236.54146  22792188.8414   22792196.1814
     -5211.1254
   2020683.22048   1573504.64447  21031273.8724   21031280.0014
     -2266.1564
    381027.34448    297149.97246  21490650.1614   21490656.1384
      -716.5314
   3634676.48046   2821597.19146  22620563.7164   22620570.8804
     -3961.4064
 01 10  2  0 36 15.0010000  0  7G 2G 8G10G13G27G28G31
    154194.75947    123369.06946  22586134.8334   22586142.7474
      -400.6094
    750490.90248    580420.66247  20709413.5604   20709419.6064
     -1031.2194
   2032355.58745   1744476.02045  24484567.8494   24484583.9664
     -3358.7814
   5168535.82146   3784188.96946  22807074.7554   22807082.2824
     -5218.6254
   2054732.53948   1600036.58247  21037753.1224   21037759.2634
     -2273.8444
    391836.93348    305573.05447  21492707.0674   21492713.0444
      -724.8284
   3694183.49846   2867966.29846  22631887.2634   22631894.8024
     -3972.9694
 01 10  2  0 36 30.0010000  0  7G 2G 8G10G13G27G28G31
    160252.10947    128089.12446  22587287.1384   22587295.2514
      -407.1094
    766012.79848    592515.66047  20712367.2864   20712373.3564
     -1038.4374
   2082809.35145   1783790.55145  24494168.6224   24494182.3134
     -3368.4694
   5246870.82346   3845229.16646  22821981.4424   22821988.9934
     -5226.0944
   2088897.22948   1626658.41547  21044254.3564   21044260.3334
     -2281.5164
    402770.87048    314093.03447  21494787.7394   21494793.5634
      -733.0944
   3753863.76246   2914470.39746  22643244.0674   22643251.4894
     -3984.4844
 01 10  2  0 36 45.0010000  0  7G 2G 8G10G13G27G28G31
    166408.20147    132886.11946  22588458.8104   22588466.5134
      -413.6874
    781644.50848    604696.22947  20715341.9194   20715348.0484
     -1045.7664
   2133409.14545   1823218.90645  24503797.4584   24503809.4504
     -3378.1724
   5325318.72646   3906357.31746  22836909.5524   22836917.2434
     -5233.5944
   2123177.98048   1653370.68947  21050777.8644   21050783.9704
     -2289.2504
    413829.64548    322710.28946  21496892.2314   21496898.2204
      -741.4064
   3813717.62146   2961109.77246  22654634.0284   22654641.3564
     -3996.0314
 01 10  2  0 37  0.0010000  0  7G 2G 8G10G13G27G28G31
    172661.48847    137758.85246  22589648.9504   22589656.7594
      -419.9694
    797384.74048    616961.36747  20718337.0834   20718343.1424
     -1052.8124
   2184153.19345   1862759.64245  24513453.4974   24513465.7244
     -3387.5944
   5403877.57846   3967571.92646  22851859.0674   22851866.7354
     -5240.7974
   2157573.42348   1680172.33547  21057323.0524   21057329.0524
     -2296.7034
    425011.73548    331423.63346  21499019.8104   21499025.5874
      -749.4224
   3873743.33346   3007883.05646  22666056.4584   22666063.7164
     -4007.2664
 01 10  2  0 37 15.0010000  0  7G 2G 8G10G13G27G28G31
    179011.26147    142706.77446  22590857.1384   22590864.9934
      -426.6254
    813232.85348    629310.56747  20721352.8724   20721358.8844
     -1060.2504
   2235040.56745   1902412.08145  24523137.5604   24523150.1384
     -3397.3594
   5482546.54646   4028872.33146  22866829.2004   22866836.8214
     -5248.3594
   2192082.96848   1707062.88847  21063890.0834   21063896.0244
     -2304.5474
    436316.49648    340232.56946  21501171.1304   21501177.0954
      -757.8284
   3933939.81846   3054789.39746  22677511.2394   22677518.9894
     -4018.8754
 01 10  2  0 37 30.0010000  0  7G 2G 8G10G13G27G28G31
    185458.52747    147730.66246  22592083.8804   22592091.7594
      -433.0784
    829190.18848    641744.87247  20724389.4664   20724395.5014
     -1067.4694
   2286071.94545   1942176.69845  24532847.9814   24532860.5014
     -3406.9064
   5561326.42046   4090259.17446  22881820.6304   22881828.2044
     -5255.6874
   2226707.84648   1734043.31547  21070479.0054   21070484.9934
     -2312.1874
    447744.90348    349137.84546  21503345.9424   21503351.8844
      -766.0314
   3994307.86546   3101829.44246  22688998.9424   22689006.2824
     -4030.2664
 01 10  2  0 37 45.0010000  0  7G 2G 8G10G13G27G28G31
    192004.33647    152831.33746  22593329.6384   22593337.2474
      -439.6414
    845257.88648    654265.17647  20727446.9744   20727453.0564
     -1074.8284
   2337248.14045   1982054.17845  24542587.5134   24542599.0714
     -3416.5314
   5640217.93946   4151733.00746  22896833.3414   22896841.3024
     -5263.1094
   2261449.26448   1761114.54847  21077090.0134   21077096.1774
     -2319.9534
    459298.00248    358140.29146  21505544.3254   21505550.2314
      -774.3284
   4054848.29846   3149003.79146  22700519.4034   22700526.5564
     -4041.7344
 01 10  2  0 38  0.0010000  0  7G 2G 8G10G13G27G28G31
    198646.83747    158007.35746  22594593.6064   22594601.2044
      -446.0944
    861434.26948    666870.16947  20730525.3254   20730531.3494
     -1082.0944
   2388567.00645   2022042.85645  24552353.0674   24552367.4504
     -3426.0624
   5719218.99946   4213292.20246  22911866.2714   22911873.5284
     -5270.4224
   2296305.42448   1788275.19547  21083722.9744   21083729.0564
     -2327.6094
    470973.91248    367238.43346  21507766.1224   21507772.0994
      -782.5314
   4115559.09646   3196310.90646  22712072.8024   22712080.6464
     -4053.0944
 01 10  2  0 38 15.0010000  0  7G 2G 8G10G13G27G28G31
    205388.60247    163260.71946  22595876.5444   22595884.0484
      -452.7034
    877721.99448    679561.92247  20733624.5444   20733630.6854
     -1089.5164
   2440030.92245   2062144.49945  24562146.0674   24562159.3254
     -3435.7194
   5798331.83546   4274938.50146  22926921.2164   22926929.5284
     -5277.8594
   2331279.07948   1815527.39447  21090378.1534   21090384.1534
     -2335.4534
    482775.27748    376434.33347  21510011.9034   21510017.7164
      -790.8914
   4176442.53146   3243752.52146  22723658.2634   22723665.9544
     -4064.5944
 01 10  2  0 38 30.0010000  0  7G 2G 8G10G13G27G28G31
    212227.99447    168590.15746  22597177.9974   22597185.5484
      -459.2814
    894119.75448    692339.41247  20736745.0444   20736751.0794
     -1096.9224
   2491638.02345   2102357.76745  24571966.5364   24571980.0634
     -3445.3124
   5877554.81546   4336670.62046  22941996.8174   22942005.0134
     -5285.2664
   2366368.81548   1842870.04747  21097055.5364   21097061.4664
     -2343.2504
    494700.44748    385726.69947  21512281.2004   21512287.2244
      -799.2034
   4237496.86246   3291327.32746  22735276.9974   22735284.7824
     -4076.0474
 01 10  2  0 38 45.0010000  0  7G 2G 8G10G13G27G28G31
    219164.84247    173995.53246  22598497.8104   22598505.7004
      -465.6094
    910627.40348    705202.54047  20739886.4354   20739892.3764
     -1104.0944
   2543387.85545   2142682.26545  24581814.6304   24581828.1574
     -3454.6414
   5956887.24646   4398488.01146  22957093.6304   22957101.4034
     -5292.3754
   2401574.53848   1870303.08147  21103754.9354   21103760.9584
     -2350.8284
    506749.21548    395115.38047  21514573.9114   21514579.8884
      -807.2664
   4298721.55046   3339034.85246  22746926.8494   22746934.8804
     -4087.2194
 01 10  2  0 39  0.0010000  0  8G 7G 2G 8G10G13G27G28G31
     -7586.91853                  25171115.9744
      1517.0314
    226198.35147    179476.22946  22599836.3804   22599844.0364
      -472.2034
    927244.28748    718150.77347  20743048.3964   20743054.3024
     -1111.5314
   2595279.28645   2183117.04745  24591689.3254   24591700.8724
     -3464.2504
   6036328.03046   4460389.84346  22972210.7864   22972218.4424
     -5299.7344
   2436895.61448   1897826.00547  21110476.3564   21110482.3564
     -2358.6724
    518920.76448    404599.73147  21516890.1384   21516896.0564
      -815.6254
   4360115.48546   3386874.27846  22758610.2474   22758617.1064
     -4098.6564
 01 10  2  0 39 15.0010000  0  8G 7G 2G 8G10G13G27G28G31
    -30323.21744                  25166789.4194
      1514.4694
    233328.73347    185032.41146  22601193.0994   22601200.8724
      -478.5314
    943970.87348    731184.49747  20746231.4584   20746237.3994
     -1118.7034
   2647312.33645   2223662.23445  24601590.7164   24601604.0794
     -3473.5474
   6115877.32246   4522376.22546  22987348.3644   22987356.6064
     -5306.8444
   2472332.34848   1925439.04847  21117219.7944   21117225.7714
     -2366.2664
    531215.31748    414179.92047  21519229.7474   21519235.7474
      -823.6874
   4421678.62446   3434845.54046  22770325.3724   22770332.7824
     -4109.7974
 01 10  2  0 39 30.0010000  0  8G 7G 2G 8G10G13G27G28G31
    -53021.08944                  25162470.4194
      1511.8914
    240553.98447    190662.51746  22602568.0674   22602575.3494
      -484.8594
    960805.27948    744302.23647  20749435.0524   20749441.0754
     -1125.9224
   2699484.65845   2264315.90845  24611518.7864   24611530.1104
     -3482.8124
   6195532.72946   4584445.29446  23002506.7474   23002514.9894
     -5313.9064
   2507882.88748   1953140.77247  21123984.8564   21123990.9384
     -2373.8444
    543630.81748    423854.37047  21521592.3104   21521598.2864
      -831.7504
   4483408.78246   3482946.94346  22782072.5524   22782079.9034
     -4120.9224
 01 10  2  0 39 45.0010000  0  8G 7G 2G 8G10G13G27G28G31
    -75679.66344                  25158158.2394
      1509.2664
    247874.70947    196367.02046  22603961.1694   22603968.5674
      -491.1874
    977748.32548    757504.63247  20752659.1924   20752665.2164
     -1133.1254
   2751796.64245   2305078.43345  24621473.5214   24621486.8374
     -3492.0474
   6275294.73446   4646597.43046  23017685.0364   23017693.5244
     -5320.9694
   2543548.05848   1980931.82347  21130771.6614   21130777.7314
     -2381.4694
    556167.97548    433623.61147  21523977.9744   21523983.7744
      -839.8284
   4545306.41146   3531178.85446  22793850.5214   22793857.4744
     -4132.0474
 01 10  2  0 40  0.0010000  0  8G 7G 2G 8G10G13G27G28G31
    -98302.49744                  25153853.3884
      1506.8444
    255287.03247    202142.89346  22605371.5914   22605379.1534
      -497.3754
    994796.32348    770788.80547  20755903.1534   20755909.1534
     -1140.2034
   2804244.07145   2345946.48545  24631454.2164   24631466.5484
     -3501.1724
   6355159.12746   4708829.33246  23032882.7784   23032890.3994
     -5327.8594
   2579324.14648   2008809.30447  21137579.8414   21137585.7474
     -2388.9374
    568822.98548    443484.68847  21526385.8804   21526391.9624
      -847.7664
   4607367.27246   3579537.94146  22805660.6224   22805668.3844
     -4143.0004
 01 10  2  0 40 15.0010000  0  8G 7G 2G 8G10G13G27G28G31
   -120886.17944     -4688.83155  25149556.1464   25149576.0954
      1504.3284
    262793.95347    207992.47746  22606800.2394   22606807.6614
      -503.5624
   1011952.42248    784157.20947  20759167.7244   20759173.6534
     -1147.2974
   2856829.70245   2386922.20745  24641460.8254   24641473.5674
     -3510.2504
   6435128.57146   4771143.11346  23048100.6924   23048108.7004
     -5334.7344
   2615214.19848   2036775.58747  21144409.2084   21144415.2084
     -2396.4224
    581598.74048    453439.84847  21528817.1064   21528823.0364
      -855.6874
   4669594.09346   3628026.36046  22817502.1694   22817510.4354
     -4153.9224
 01 10  2  0 40 30.0010000  0  8G 7G 2G 8G10G13G27G28G31
   -143428.04444    -22253.74245  25145265.9974   25145283.7314
      1501.5004
    270397.99047    213917.74646  22608246.9584   22608254.4384
      -510.0624
   1029219.29448    797611.93947  20762453.4974   20762459.4274
     -1154.7034
   2909555.86145   2428007.44945  24651494.4114   24651508.0564
     -3519.6564
   6515205.32346   4833540.50346  23063338.4744   23063347.0564
     -5341.9064
   2651220.85248   2064832.72547  21151261.0834   21151267.0014
     -2404.2194
    594497.71248    463491.02347  21531271.7394   21531277.7514
      -863.9374
   4731989.22746   3676645.93146  22829375.4114   22829382.6814
     -4165.1724
 01 10  2  0 40 45.0010000  0  8G 7G 2G 8G10G13G27G28G31
   -165930.42844    -39787.84145  25140984.9744   25141004.2084
      1498.8444
    278096.32547    219916.47646  22609712.1224   22609719.5794
      -516.3124
   1046594.39748    811151.00547  20765759.8884   20765765.9934
     -1161.9064
   2962419.54345   2469199.81745  24661553.4664   24661568.2824
     -3528.7664
   6595386.37546   4896019.17146  23078596.6384   23078604.5994
     -5348.8284
   2687341.54148   2092978.73147  21158134.3494   21158140.4424
     -2411.7974
    607517.15348    473636.06847  21533749.2554   21533755.1734
      -871.9224
   4794549.67846   3725394.30546  22841280.1534   22841288.3844
     -4176.1564
 01 10  2  0 41  0.0010000  0  8G 7G 2G 8G10G13G27G28G31
   -188393.21844    -57291.16145  25136709.0524   25136727.1384
      1496.1094
    285888.65047    225988.46246  22611194.7314   22611202.1534
      -522.7504
   1064077.55248    824774.26647  20769086.7864   20769092.8564
     -1169.2664
   3015420.15045   2510498.94445  24671639.0754   24671652.0754
     -3538.0624
   6675671.06346   4958578.59446  23093874.3644   23093882.8064
     -5355.8754
   2723576.05948   2121213.42747  21165029.8884   21165035.8414
     -2419.5474
    620656.66648    483874.68047  21536249.6614   21536255.6964
      -880.0944
   4857274.81146   3774271.02046  22853216.5524   22853224.3254
     -4187.2814
 01 10  2  0 41 15.0010000  0  8G 7G 2G 8G10G13G27G28G31
   -210815.38444    -74762.68145  25132441.9274   25132459.7314
      1493.2814
    293775.82447    232134.34346  22612695.5754   22612703.2084
      -529.1564
   1081669.77648    838482.51747  20772434.6224   20772440.6104
     -1176.6254
   3068558.17745   2551905.15145  24681751.6224   24681764.2244
     -3547.2814
   6756060.10046   5021219.32546  23109171.6304   23109179.7674
     -5362.9374
   2759925.41948   2149537.61647  21171946.9354   21171952.9814
     -2427.2974
    633917.19148    494207.58747  21538773.0444   21538779.1034
      -888.2504
   4920165.25546   3823276.53546  22865184.4034   22865191.8024
     -4198.3754
 01 10  2  0 41 30.0010000  0  8G 7G 2G 8G10G13G27G28G31
   -233195.68544    -92201.75245  25128182.9194   25128198.6854
      1490.7344
    301758.78747    238354.87546  22614214.7394   22614222.3254
      -535.2664
   1099372.01648    852276.49147  20775803.1774   20775809.2594
     -1183.7194
   3121834.26545   2593418.89745  24691889.8174   24691902.0564
     -3556.2194
   6836554.24846   5083941.94346  23124489.3104   23124497.2244
     -5369.6564
   2796390.71048   2177952.13747  21178885.9424   21178891.9424
     -2434.7664
    647299.61048    504635.47247  21541319.5134   21541325.3724
      -896.0944
   4983221.76846   3872411.46446  22877183.3414   22877190.9504
     -4209.1874
 01 10  2  0 41 45.0010000  0  8G 7G 2G 8G10G13G27G28G31
   -255534.45543   -109608.33945  25123931.1144   25123949.4704
      1487.9064
    309836.89547    244649.53846  22615751.6774   22615759.1574
      -541.6724
   1117183.98648    866155.97547  20779192.5754   20779198.5754
     -1191.0784
   3175247.46545   2635039.48745  24702053.0054   24702065.5834
     -3565.4064
   6917152.46746   5146745.67746  23139826.5674   23139834.9274
     -5376.6254
   2832971.44448   2206456.61447  21185846.9194   21185853.0134
     -2442.5314
    660803.29548    515157.84847  21543889.2314   21543895.2084
      -904.2504
   5046443.33446   3921674.98746  22889214.4114   22889221.8334
     -4220.2194
 01 10  2  0 42  0.0010000  0  8G 7G 2G 8G10G13G27G28G31
   -277831.20744   -126982.22345  25119689.2314   25119705.0324
      1485.0474
    318010.22247    251018.39546  22617307.2474   22617314.6104
      -548.0474
   1135105.80748    880121.05247  20782602.9504   20782608.8804
     -1198.4374
   3228797.77545   2676766.92245  24712243.5134   24712259.7944
     -3574.5624
   6997854.56746   5209630.34346  23155183.7004   23155191.8024
     -5383.5944
   2869667.86048   2235051.23847  21192830.1224   21192836.0754
     -2450.2664
    674428.38848    525774.83447  21546481.9424   21546487.9424
      -912.3594
   5109829.84246   3971067.05046  22901276.0754   22901283.6034
     -4231.2344
 01 10  2  0 42 15.0010000  0  8G 7G 2G 8G10G13G27G28G31
   -300085.94143   -144323.34445  25115453.5054   25115472.0134
      1482.3444
    326278.46647    257461.22446  22618880.6384   22618888.2004
      -554.2814
   1153137.41348    894171.67547  20786034.2784   20786040.2204
     -1205.6724
   3282484.58845   2718600.75645  24722459.8964   24722473.6104
     -3583.5624
   7078660.06346   5272595.57046  23170560.5914   23170568.8684
     -5390.3594
   2906479.74748   2263735.83347  21199835.1924   21199841.2284
     -2457.8754
    688174.41748    536486.05347  21549097.7474   21549103.6654
      -920.3284
   5173380.71846   4020587.18946  22913369.8494   22913377.5634
     -4242.0944
 01 10  2  0 42 30.0020000  0  8G 7G 2G 8G10G13G27G28G31
   -322299.58343   -161632.48645  25111226.4714   25111244.0064
      1479.4064
    334642.41147    263978.62146  22620471.9794   22620479.5414
      -560.7344
   1171280.44248    908309.12347  20789486.6974   20789492.7094
     -1213.1254
   3336311.47545   2760543.69745  24732703.7444   24732717.7404
     -3592.7664
   7159574.28246   5335645.53046  23185958.2994   23185966.3074
     -5397.3594
   2943410.01148   2292512.67647  21206862.8694   21206868.9514
     -2465.7194
    702042.65348    547292.50347  21551736.7294   21551742.6934
      -928.5314
   5237100.25046   4070238.75646  22925495.0104   22925503.0884
     -4253.1724
 01 10  2  0 42 45.0020000  0  8G 7G 2G 8G10G13G27G28G31
   -344468.99744   -178907.07345  25107008.4004   25107027.7404
      1476.4384
    343100.75947    270569.58346  22622081.6044   22622089.3184
      -567.1254
   1189532.67448    922531.66447  20792960.0644   20792966.0644
     -1220.5624
   3390270.70545   2802589.74745  24742971.2914   24742981.8544
     -3601.8754
   7240586.05246   5398771.51946  23201375.1974   23201383.2994
     -5404.2664
   2980453.65548   2321377.86447  21213911.9004   21213917.9944
     -2473.5004
    716031.15748    558192.66647  21554398.5644   21554404.5064
      -936.6724
   5300979.54346   4120014.79946  22937650.7134   22937658.4514
     -4264.1564
 01 10  2  0 43  0.0020000  0  8G 7G 2G 8G10G13G27G28G31
   -366593.93543   -196147.13645  25102796.9794   25102815.1004
      1473.6254
    351655.48347    277235.63246  22623709.4474   22623717.3964
      -573.4224
   1207896.63148    936841.26847  20796454.5884   20796460.6584
     -1227.8914
   3444367.06445   2844742.70245  24753266.0724   24753278.0064
     -3610.8754
   7321701.72246   5461978.45046  23216810.6744   23216818.6234
     -5411.0624
   3017614.70248   2350334.53047  21220983.3694   21220989.4284
     -2481.2194
    730142.10448    569188.23847  21557083.5804   21557089.5684
      -944.7034
   5365023.87646   4169919.46246  22949838.0184   22949846.0374
     -4275.0164
 01 10  2  0 43 15.0020000  0  8G 7G 2G 8G10G13G27G28G31
   -388675.73643   -213353.48045  25098595.7054   25098613.8854
      1470.7664
    360304.97247    283975.53746  22625355.5024   22625363.0644
      -579.7034
   1226370.93748    951236.85747  20799970.0184   20799976.0184
     -1235.2034
   3498598.62745   2887000.99145  24763586.0104   24763600.4754
     -3619.8754
   7402919.58346   5525265.02246  23232265.5254   23232274.3894
     -5417.8444
   3054891.67248   2379381.53147  21228077.0724   21228083.0724
     -2488.9064
    744373.96348    580278.03047  21559791.8464   21559797.7524
      -952.7344
   5429231.46446   4219951.32546  22962056.4554   22962064.6504
     -4285.8594
 01 10  2  0 43 30.0020000  0  8G 7G 2G 8G10G13G27G28G31
   -410713.82243   -230525.82945  25094400.3144   25094418.3184
      1467.6724
    369049.41347    290789.42946  22627019.2684   22627026.9944
      -586.2034
   1244955.96848    965718.72247  20803506.6194   20803512.7014
     -1242.7814
   3552965.51545   2929364.67445  24773930.9394   24773944.5724
     -3629.0314
   7484239.45746   5588631.08646  23247739.7214   23247748.6784
     -5424.7974
   3092284.87248   2408519.09947  21235192.6824   21235198.7054
     -2496.8124
    758726.93848    591462.20247  21562523.3384   21562529.2684
      -960.9694
   5493602.24646   4270110.36646  22974305.8614   22974314.2684
     -4296.8914
 01 10  2  0 43 45.0020000  0  8G 7G 2G 8G10G13G27G28G31
   -432706.71543   -247662.88745  25090216.0964   25090233.1154
      1464.7344
    377890.00947    297678.24146  22628701.7994   22628709.6544
      -592.5164
   1263653.10648    980287.94447  20807064.5964   20807070.7254
     -1250.1564
   3607468.45945   2971834.48545  24784304.2834   24784317.8464
     -3638.0004
   7565662.31646   5652077.37346  23263234.4324   23263243.1434
     -5431.5624
   3129795.64548   2437748.27747  21242330.7684   21242336.9204
     -2504.5944
    773202.07948    602741.56347  21565277.6664   21565283.6434
      -969.0164
   5558137.12046   4320397.25346  22986586.1354   22986594.2954
     -4307.7194
 01 10  2  0 44  0.0020000  0  8G 7G 2G 8G10G13G27G28G31
   -454660.32443   -264769.46345  25086038.7214   25086056.5374
      1462.1414
    386820.53147    304637.12646  22630401.0964   22630408.3544
      -598.5004
   1282456.36548    994939.85647  20810642.7134   20810648.6784
     -1257.2034
   3662100.98745   3014405.17445  24794699.1974   24794713.3114
     -3646.6094
   7647181.68746   5715598.88746  23278747.0724   23278755.0574
     -5437.9694
   3167417.95048   2467064.36247  21249490.1664   21249496.2484
     -2512.0164
    787793.21448    614111.30747  21568054.4714   21568060.4244
      -976.7344
   5622829.54946   4370806.93246  22998897.1664   22998904.7994
     -4318.2034
 01 10  2  0 44 15.0020000  0  8G 7G 2G 8G10G13G27G28G31
   -476568.21443   -281840.31945  25081868.9324   25081885.9634
      1459.0784
    395846.96447    311670.74946  22632118.6974   22632126.3424
      -604.8594
   1301371.83948   1009679.20547  20814242.2364   20814248.3424
     -1264.6874
   3716868.79245   3057081.30345  24805121.8384   24805134.0534
     -3655.5944
   7728803.41646   5779200.14546  23294279.9084   23294288.2914
     -5444.7504
   3205157.97248   2496472.18147  21256671.6504   21256677.6044
     -2519.8284
    802506.32848    625576.10447  21570854.1044   21570860.0214
      -984.8284
   5687685.29246   4421343.85346  23011238.5414   23011245.9864
     -4329.0624
 01 10  2  0 44 30.0020000  0  8G 7G 2G 8G10G13G27G28G31
   -498432.69043   -298877.32845  25077707.4944   25077725.0644
      1456.0784
    404966.79347    318777.15246  22633854.0884   22633861.5924
      -611.2344
   1320397.27348   1024504.24947  20817862.5804   20817868.6624
     -1272.1724
   3771769.00045   3099860.58545  24815568.6894   24815580.2364
     -3664.5624
   7810524.63246   5842878.95346  23309830.8304   23309839.7644
     -5451.5314
   3243013.32348   2525969.86247  21263875.3464   21263881.4044
     -2527.6724
    817338.98448    637134.04247  21573676.6434   21573682.5494
      -992.9694
   5752701.60446   4472005.89346  23023611.0104   23023618.9594
     -4339.9064
 01 10  2  0 44 45.0020000  0  8G 7G 2G 8G10G13G27G28G31
   -520251.57643   -315878.84445  25073556.8074   25073574.3184
      1453.0164
    414181.89447    325957.78446  22635607.7994   22635615.4434
      -617.5624
   1339534.57748   1039416.45747  20821504.3224   20821510.3224
     -1279.6094
   3826803.28045   3142744.38645  24826041.8464   24826056.8504
     -3673.4844
   7892346.86746   5906636.43946  23325400.2294   23325408.5534
     -5458.2344
   3280986.01448   2555558.97447  21271101.4864   21271107.5684
     -2535.4844
    832293.01348    648786.56247  21576522.3224   21576528.3464
     -1001.0474
   5817880.03946   4522794.26346  23036013.7054   23036021.6664
     -4350.7034
 01 10  2  0 45  0.0020000  0  8G 7G 2G 8G10G13G27G28G31
   -542024.94843   -332844.87145  25069413.2524   25069430.2714
      1450.0784
    423491.71547    333212.23346  22637379.2294   22637386.7564
      -623.7814
   1358783.46048   1054415.61347  20825167.2214   20825173.3264
     -1286.9534
   3881970.81245   3185731.98945  24836539.4474   24836553.9244
     -3682.2504
   7974269.44146   5970472.13746  23340990.6664   23340999.3424
     -5464.8124
   3319075.65148   2585239.21647  21278349.5644   21278355.7174
     -2543.1874
    847367.91448    660533.26747  21579391.0644   21579396.9824
     -1009.0004
   5883219.85246   4573708.37946  23048447.6664   23048455.1934
     -4361.3444
 01 10  2  0 45 15.0020000  0  8G 7G 2G 8G10G13G27G28G31
   -563753.43742   -349776.00945  25065276.7294   25065296.8654
      1446.9534
    432895.29547    340539.73846  22639168.5104   22639176.1074
      -630.2034
   1378143.00648   1069500.98347  20828851.0724   20828857.0964
     -1294.5164
   3937270.32745   3228822.46345  24847063.0644   24847075.4904
     -3691.2034
   8056291.04946   6034385.00346  23356598.7914   23356607.2564
     -5471.5784
   3357281.41148   2615009.93547  21285620.0024   21285625.9204
     -2551.0944
    862562.69348    672373.38947  21582282.3074   21582288.1894
     -1017.1564
   5948719.80946   4624747.29646  23060911.8854   23060919.2604
     -4372.1724
 01 10  2  0 45 30.0020000  0  8G 7G 2G 8G10G13G27G28G31
   -585434.11742   -366669.80645  25061151.8224   25061169.7564
      1443.8444
    442395.47047    347942.51546  22640976.7054   22640984.2094
      -636.5164
   1397616.46748   1084675.12847  20832556.8224   20832562.7874
     -1301.9694
   3992704.55745   3272017.82945  24857611.7214   24857626.5724
     -3700.0314
   8138414.23246   6098377.01246  23372225.9474   23372234.9864
     -5478.2034
   3395606.32348   2644873.50547  21292912.9474   21292918.9364
     -2558.9064
    877880.20248    684309.13747  21585197.1354   21585203.0644
     -1025.2034
   6014382.49946   4675913.00246  23073407.1354   23073414.4984
     -4382.8754
 01 10  2  0 45 45.0020000  0  8G 7G 2G 8G10G13G27G28G31
   -607068.39543   -383527.43644  25057036.2214   25057052.6074
      1440.6724
    451990.24347    355419.00346  22642802.2214   22642809.6784
      -642.8444
   1417202.01148   1099936.61747  20836283.8464   20836289.8694
     -1309.5004
   4048271.07644   3315316.39245  24868185.5414   24868198.8114
     -3708.8914
   8220636.82646   6162446.49446  23387872.8934   23387881.2754
     -5484.8594
   3434048.46448   2674828.42547  21300228.2604   21300234.3074
     -2566.7664
    893318.29648    696338.85547  21588134.9554   21588140.8614
     -1033.2664
   6080205.68546   4727203.78646  23085932.6194   23085940.7444
     -4393.5944
 01 10  2  0 46  0.0020000  0  8G 7G 2G 8G10G13G27G28G31
   -628655.79742   -400348.63545  25052926.5414   25052945.9634
      1437.7974
    461679.89347    362969.41646  22644646.1274   22644653.5614
      -648.9064
   1436899.85548   1115285.60147  20840032.1824   20840038.2404
     -1316.7194
   4103969.89144   3358717.98845  24878784.7994   24878799.0644
     -3717.4224
   8302958.89346   6226593.47146  23403537.6434   23403545.9084
     -5491.2194
   3472608.29448   2704875.04447  21307565.8544   21307571.8184
     -2574.3444
    908877.28148    708462.76747  21591095.5724   21591101.5614
     -1041.0624
   6146189.34846   4778619.59846  23098489.2754   23098497.4244
     -4404.0164
 01 10  2  0 46 15.0020000  0  8G 7G 2G 8G10G13G27G28G31
   -650197.89042   -417134.47745  25048827.3074   25048844.3614
      1434.6254
    471462.46347    370592.24146  22646507.5884   22646515.1044
      -655.2814
   1456708.44648   1130720.89047  20843801.7444   20843807.7564
     -1324.2664
   4159798.80144   3402220.97845  24889408.7364   24889421.3144
     -3726.2664
   8385378.06646   6290816.11546  23419221.8854   23419230.7484
     -5497.8594
   3511283.96948   2735011.93447  21314925.6894   21314931.7254
     -2582.2504
    924555.15048    720679.31847  21594079.0884   21594085.0414
     -1049.1724
   6212331.17846   4830158.68546  23111075.5494   23111084.3894
     -4414.7344
 01 10  2  0 46 30.0020000  0  8G 7G 2G 8G10G13G27G28G31
   -671691.98641   -433882.87044  25044736.1504   25044753.6044
      1431.4384
    481340.46847    378289.42946  22648387.4394   22648394.8734
      -661.6254
   1476630.31548   1146244.44147  20847592.5804   20847598.6044
     -1331.8284
   4215760.01944   3445827.04945  24900058.8144   24900072.5884
     -3735.0624
   8467896.46446   6355116.09246  23434925.2134   23434933.7834
     -5504.4374
   3550078.14348   2765241.15947  21322307.9864   21322314.0924
     -2590.1414
    940354.51248    732990.54147  21597085.5414   21597091.5414
     -1057.2504
   6278633.45546   4881822.78446  23123692.4864   23123700.2954
     -4425.4064
 01 10  2  0 46 45.0020000  0  8G 7G 2G 8G10G13G27G28G31
   -693139.74442   -450595.25945  25040655.4944   25040669.5724
      1428.3754
    491311.78647    386059.32646  22650284.7134   22650292.2174
      -667.7664
   1496663.65248   1161854.84947  20851404.8224   20851410.8574
     -1339.1724
   4271851.17944   3489534.36245  24910731.6894   24910745.4864
     -3743.6414
   8550511.82946   6419491.63846  23450645.5574   23450653.6464
     -5510.8284
   3588988.81748   2795561.16047  21329712.3934   21329718.4044
     -2597.8444
    956273.26948    745394.80047  21600114.8694   21600120.7524
     -1065.1414
   6345093.86146   4933610.09446  23136339.7134   23136347.5214
     -4435.8594
 01 10  2  0 47  0.0020000  0  8G 7G 2G 8G10G13G27G28G31
   -714540.97541   -467271.16444  25036580.9474   25036592.2834
      1425.1094
    501376.29347    393901.84546  22652200.0104   22652207.5024
      -674.1254
   1516808.36148   1177552.04447  20855238.1744   20855244.2794
     -1346.7504
   4328071.99944   3533342.66545  24921430.0884   24921444.1194
     -3752.4224
   8633224.03146   6483942.63146  23466385.8854   23466393.8114
     -5517.4064
   3628016.14948   2825972.06347  21337138.9794   21337145.1314
     -2605.7664
    972311.20548    757891.92147  21603166.6974   21603172.6624
     -1073.2194
   6411712.10546   4985520.39546  23149016.0644   23149024.3184
     -4446.5164
 01 10  2  0 47 15.0020000  0  8G 7G 2G 8G10G13G27G28G31
   -735894.17341   -483910.05844  25032518.4864   25032532.7754
      1422.0634
    511535.13947    401817.87246  22654133.1664   22654140.6824
      -680.2814
   1537065.89448   1193337.15447  20859093.0494   20859099.0494
     -1354.1564
   4384423.19144   3577252.61445  24932154.4554   24932167.6194
     -3760.9694
   8716033.71846   6548469.58146  23482143.5804   23482152.7604
     -5523.7814
   3667161.29848   2856474.77047  21344588.1114   21344594.1234
     -2613.5004
    988469.41348    770482.75647  21606241.5024   21606247.3614
     -1081.1094
   6478489.02646   5037554.34846  23161724.0574   23161731.7954
     -4456.9694
 01 10  2  0 47 30.0020000  0  8G 7G 2G 8G10G13G27G28G31
    -15618.61051   -500510.30944  25028464.9244   25028485.9904
      1418.5164
    521787.73347    409806.94546  22656084.1584   22656091.5334
      -686.8914
   1557435.81848   1209209.84047  20862969.5024   20862975.5254
     -1362.0004
   4440903.82144   3621263.43045  24942901.5334   24942916.6194
     -3769.9224
   8798940.15846   6613071.92146  23497920.8224   23497929.6864
     -5530.5624
   3706423.88248   2887068.98647  21352059.5184   21352065.6004
     -2621.6724
   1004747.48348    783166.99947  21609338.9004   21609344.7134
     -1089.4534
   6545423.72846   5089711.24146  23174461.0884   23174468.9084
     -4467.8284
 01 10  2  0 47 45.0020000  0  8G 7G 2G 8G10G13G27G28G31
    -36875.63442   -517074.09645  25024419.8544   25024435.9364
      1415.6254
    532134.29447    417869.24346  22658052.9164   22658060.2914
      -692.7974
   1577918.54748   1225170.42747  20866867.1354   20866873.2404
     -1369.1724
   4497513.91344   3665375.12145  24953673.6584   24953690.0104
     -3778.2034
   8881943.24446   6677749.55346  23513714.8694   23513722.8894
     -5536.6564
   3745804.32648   2917755.04147  21359553.3774   21359559.4244
     -2629.1874
   1021145.59148    795944.77147  21612459.3774   21612465.2714
     -1097.0944
   6612516.26646   5141991.13846  23187228.6114   23187236.5144
     -4477.9844
 01 10  2  0 48  0.0020000  0  8G 7G 2G 8G10G13G27G28G31
    -58084.52542   -533600.35144  25020383.5334   25020404.3184
      1412.1564
    542574.36447    426004.41446  22660039.7214   22660047.1664
      -699.2504
   1598513.84948   1241218.72647  20870786.3384   20870792.3964
     -1376.9064
   4554252.80744   3709587.17645  24964472.7994   24964486.1744
     -3786.9844
   8965042.24946   6742501.95146  23529528.7524   23529537.4634
     -5543.2664
   3785302.26948   2948532.65247  21367069.6274   21367075.7564
     -2637.2504
   1037663.20448    808815.66947  21615602.6504   21615608.5104
     -1105.2814
   6679765.87046   5194393.39846  23200025.2054   23200032.6864
     -4488.6724
 01 10  2  0 48 15.0020000  0  9G 7G 2G11G 8G10G13G27G28G31
     -2817.45352   -550086.63844  25016355.4944   25016377.1934
      1409.0784
    553109.27747    434213.48246  22662044.4244   22662051.8694
      -705.3914
      -861.85553                  25747387.1894
       106.6724
   1619223.24248   1257355.93947  20874727.2134   20874733.1894
     -1384.3284
   4611121.53244   3753900.39145  24975294.5494   24975310.2914
     -3795.4694
   9048238.10046   6807329.80346  23545361.0184   23545370.0334
     -5549.5004
   3824919.16248   2979402.95347  21374608.4794   21374614.6544
     -2644.9844
   1054301.61748    821780.69747  21618768.8464   21618774.7874
     -1113.1414
   6747173.53746   5246918.83146  23212852.9324   23212860.9864
     -4499.0004
 01 10  2  0 48 30.0020000  0  9G 7G 2G11G 8G10G13G27G28G31
    -23929.47642   -566537.31844  25012340.0884   25012362.1504
      1405.8754
    563735.76147    442493.90846  22664066.6434   22664074.1234
      -711.5004
     -2434.06843                  25747086.5104
       102.9224
   1640043.44848   1273579.49747  20878689.0494   20878695.0144
     -1391.7344
   4668116.41944   3798311.85945  24986139.6114   24986155.9864
     -3803.8754
   9131527.45446   6872230.51146  23561210.5334   23561218.0614
     -5555.7504
   3864651.89748   3010363.51847  21382169.3614   21382175.5144
     -2652.7344
   1071057.49548    834837.25547  21621957.2214   21621963.1864
     -1120.9844
   6814735.75546   5299564.70746  23225709.2754   23225716.9324
     -4509.3124
 01 10  2  0 48 45.0020000  0  9G 7G 2G11G 8G10G13G27G28G31
    -44992.90042   -582950.28045  25008330.3774   25008345.2054
      1402.6254
    574455.10647    450846.69846  22666106.1114   22666113.6504
      -717.7344
     -3949.00043                  25746798.5884
        99.0634
   1660976.16448   1289890.71947  20882672.2834   20882678.3654
     -1399.2664
   4725238.54044   3842822.58445  24997010.1584   24997026.4044
     -3812.3914
   9214911.33046   6937204.88346  23577078.2684   23577087.4714
     -5562.0784
   3904501.86848   3041415.43847  21389752.6664   21389758.6784
     -2660.5944
   1087932.21148    847986.40947  21625168.3854   21625174.4554
     -1128.9534
   6882453.49446   5352331.77546  23238595.3144   23238603.4514
     -4519.7194
 01 10  2  0 49  0.0020000  0  9G 7G 2G11G 8G10G13G27G28G31
    -66009.57343   -599326.68244  25004332.5184   25004346.1044
      1399.3914
    585265.21847    459270.20546  22668163.2524   22668170.6624
      -723.8444
     -5408.44343                  25746520.8074
        95.2974
   1682019.41348   1306288.06247  20886676.8304   20886682.8894
     -1406.7034
   4782485.51744   3887430.49145  25007902.8304   25007915.5374
     -3820.7814
   9298387.31746   7002251.04946  23592961.6194   23592970.2484
     -5568.2814
   3944467.16748   3072557.21847  21397357.7054   21397363.7404
     -2668.3444
   1104923.71548    861226.57147  21628401.8224   21628407.8694
     -1136.7974
   6950324.37546   5405218.15546  23251511.2214   23251519.2994
     -4529.9694
 01 10  2  0 49 15.0020000  0  9G 7G 2G11G 8G10G13G27G28G31
    -86978.10343   -615665.57744  25000341.0104   25000361.2174
      1396.3134
    596167.08947    467765.22046  22670237.8224   22670245.5254
      -729.8124
     -6810.97143                  25746254.5494
        91.6414
   1703174.31348   1322772.40947  20890702.3854   20890708.3614
     -1414.0314
   4839858.00344   3932136.26645  25018819.6274   25018835.0534
     -3829.0004
   9381956.05046   7067369.44446  23608863.9324   23608872.8894
     -5574.3124
   3984548.95948   3103789.77547  21404984.9554   21404990.9434
     -2675.9694
   1122032.87248    874558.41047  21631657.5644   21631663.5294
     -1144.5004
   7018349.12446   5458224.43946  23264455.6434   23264463.7324
     -4540.0624
 01 10  2  0 49 30.0020000  0  9G 7G 2G11G 8G10G13G27G28G31
   -107898.64543   -631967.15944  24996359.2994   24996380.6354
      1392.9844
    607160.31147    476331.41846  22672329.6044   22672337.2134
      -736.0474
     -8156.58044      -483.65155  25745998.3854   25746007.8114
        87.6884
   1724440.71548   1339343.64847  20894749.1974   20894755.2444
     -1421.5944
   4897355.35544   3976939.31645  25029761.7444   25029775.6114
     -3837.4374
   9465617.12646   7132559.80846  23624785.5334   23624794.0334
     -5580.5944
   4024747.03048   3135112.94547  21412634.4324   21412640.4084
     -2683.8594
   1139259.32848    887981.65247  21634935.6584   21634941.5534
     -1152.4534
   7086527.06846   5511350.10146  23277429.7444   23277436.8614
     -4550.4224
 01 10  2  0 49 45.0020000  0  9G 7G 2G11G 8G10G13G27G28G31
   -128770.48543   -648230.73844  24992388.0414   24992405.5414
      1390.0474
    618245.15747    484969.01346  22674439.0184   22674446.5104
      -741.8444
     -9444.58044     -1487.20645  25745753.4944   25745766.2834
        84.1414
   1745819.07648   1356002.12447  20898817.4634   20898823.5214
     -1428.7664
   4954977.64544   4021839.68145  25040727.6434   25040741.7794
     -3845.4374
   9549370.45146   7197822.06146  23640723.7994   23640732.4634
     -5586.4224
   4065061.82848   3166527.06647  21420306.0884   21420312.1934
     -2691.3444
   1156603.39248    901496.52847  21638236.0184   21638241.8544
     -1159.9844
   7154858.31946   5564595.21146  23290432.2914   23290439.7834
     -4560.3124
 01 10  2  0 50  0.0020000  0  9G 7G 2G11G 8G10G13G27G28G31
   -149596.93743   -664458.92144  24988424.1824   24988443.6624
      1386.6414
    629417.87847    493675.07946  22676565.1894   22676572.4824
      -748.0474
    -10678.14843     -2448.31645  25745518.2754   25745533.6314
        80.1724
   1767305.88048   1372745.10247  20902906.3224   20902912.4164
     -1436.3444
   5012720.89244   4066834.35645  25051714.8934   25051731.4084
     -3853.8444
   9633211.96546   7263153.02646  23656678.0804   23656687.0614
     -5592.6414
   4105489.73848   3198029.33047  21427999.2754   21428005.3694
     -2699.2504
   1174061.30948    915100.13647  21641558.2524   21641564.0884
     -1167.9224
   7223338.83546   5617956.64546  23303464.2214   23303471.3964
     -4570.6094
 01 10  2  0 50 15.0020000  0  9G 7G 2G11G 8G10G13G27G28G31
   -170372.90043   -680647.89045  24984470.6744   24984489.9554
      1383.4064
    640683.39847    502453.46346  22678708.7994   22678716.0924
      -754.0944
    -11852.12943     -3362.95445  25745294.9394   25745310.3544
        76.2974
   1788906.16648   1389576.50447  20907016.5724   20907022.6194
     -1443.7814
   5070589.70944   4111926.89745  25062727.7054   25062741.9594
     -3862.0784
   9717146.29946   7328556.33645  23672649.9474   23672659.2094
     -5598.6724
   4146035.74748   3229623.61247  21435714.9794   21435720.9324
     -2706.9844
   1191637.97248    928796.26447  21644902.8934   21644908.6934
     -1175.7194
   7291973.34746   5671438.06046  23316524.9714   23316532.5214
     -4580.7504
 01 10  2  0 50 30.0020000  0  9G 7G 2G11G 8G10G13G27G28G31
   -191100.81844   -696799.28844  24980526.7994   24980545.6234
      1380.2034
    652038.94547    511301.99246  22680869.6744   22680876.8034
      -760.1094
    -12968.86343     -4232.97445  25745082.0254   25745098.5764
        72.4694
   1810617.29948   1406494.28247  20911148.0104   20911153.9394
     -1451.1874
   5128580.79344   4157114.65545  25073763.1274   25073776.1744
     -3870.2194
   9801170.38146   7394029.55646  23688638.1974   23688647.3304
     -5604.6724
   4186697.27148   3261307.90947  21443452.4474   21443458.6004
     -2714.7034
   1209330.67648    942582.81147  21648269.7054   21648275.6584
     -1183.4534
   7360758.69946   5725037.03046  23329613.9794   23329622.2094
     -4590.7814
 01 10  2  0 50 45.0020000  0  9G 7G 2G11G 8G10G13G27G28G31
   -211777.52044   -712910.89744  24976591.8224   24976608.9244
      1376.6564
    663487.21847    520222.78046  22683047.9394   22683055.1974
      -766.4064
    -14025.29043     -5056.09145  25744880.8694   25744896.7524
        68.3134
   1832442.35048   1423500.83147  20915301.2294   20915307.2174
     -1458.8914
   5186696.77444   4202399.78945  25084821.9944   25084837.0454
     -3878.6564
   9885286.79646   7459574.73246  23704646.4944   23704654.8654
     -5610.9224
   4227477.12448   3293084.41347  21451212.7754   21451218.8694
     -2722.7034
   1227142.03448    956461.81547  21651659.1434   21651665.0254
     -1191.4694
   7429697.41246   5778755.49146  23342732.8614   23342740.8934
     -4601.1094
 01 10  2  0 51  0.0020000  0  9G 7G 2G11G 8G10G13G27G28G31
   -232403.88144   -728983.24645  24972666.4864   24972681.8184
      1373.4384
    675027.11347    529214.95846  22685244.0414   22685251.1234
      -772.3444
    -15022.04043     -5832.70445  25744691.4634   25744705.0724
        64.5004
   1854380.09248   1440595.18947  20919475.7604   20919481.9124
     -1466.2664
   5244936.22844   4247781.05145  25095904.5804   25095918.3304
     -3886.7034
   9969494.14646   7525190.75445  23720670.5024   23720679.8934
     -5616.8124
   4268374.32948   3324952.35747  21458995.1974   21459001.3264
     -2730.3594
   1245070.94348    970432.42547  21655070.8074   21655076.5144
     -1199.1414
   7498788.06446   5832592.34846  23355880.6194   23355888.4754
     -4611.0784
 01 10  2  0 51 15.0020000  0  9G 7G 2G11G 8G10G13G27G28G31
   -252980.55244   -745016.88245  24968750.1434   24968768.4864
      1370.0944
    686657.67947    538277.78946  22687457.3074   22687464.4364
      -778.4064
    -15959.83743     -6563.36245  25744512.4864   25744525.6624
        60.5004
   1876430.04548   1457776.97947  20923671.8384   20923677.8504
     -1473.7504
   5303297.96444   4293257.69445  25107011.3614   25107023.3544
     -3894.8594
  10053791.10946   7590876.62345  23736712.6584   23736721.1584
     -5622.7974
   4309388.10848   3356911.14047  21466799.8614   21466805.9794
     -2738.1564
   1263116.33348    984493.79547  21658504.8694   21658510.7294
     -1206.9224
   7568029.35146   5886546.59746  23369056.9324   23369065.2794
     -4621.1254
 01 10  2  0 51 30.0020000  0  9G 7G 2G11G 8G10G13G27G28G31
   -273507.04445   -761011.41345  24964844.5494   24964860.9004
      1366.7034
    698378.91447    547411.27646  22689687.7754   22689694.8574
      -784.4844
    -16838.08743     -7247.59045  25744344.7364   25744355.7094
        56.5004
   1898592.24048   1475046.23847  20927889.0494   20927895.0144
     -1481.2664
   5361781.64244   4338829.28045  25118139.0254   25118151.3934
     -3903.0164
  10138177.46146   7656632.14145  23752769.3304   23752779.4714
     -5628.7814
   4350518.65048   3388960.91047  21474626.8384   21474632.8734
     -2745.9694
   1281278.26548    998645.97347  21661960.7444   21661966.4984
     -1214.7344
   7637421.10746   5940618.06946  23382261.4394   23382269.6934
     -4631.1564
 01 10  2  0 51 45.0020000  0  9G 7G 2G11G 8G10G13G27G28G31
   -293984.50345   -776967.69245  24960947.8074   24960966.8074
      1363.4534
    710189.46647    556614.35346  22691935.2054   22691942.1934
      -790.4064
    -17657.82643     -7886.19145  25744190.1744   25744202.6234
        52.6254
   1920865.67248   1492402.16647  20932127.6824   20932133.7994
     -1488.6724
   5420385.60043   4384494.63445  25129291.6974   25129304.1934
     -3911.0164
  10222651.63046   7722456.09445  23768843.6894   23768852.4244
     -5634.6094
   4391764.69048   3421100.67547  21482475.6044   21482481.7444
     -2753.6564
   1299555.39648   1012887.92047  21665438.8074   21665444.6894
     -1222.3754
   7706961.60246   5994805.45846  23395494.0184   23395501.8264
     -4641.0624
 01 10  2  0 52  0.0020000  0  9G 7G 2G11G 8G10G13G27G28G31
   -314412.47645   -792885.46945  24957060.6044   24957076.3224
      1360.1094
    722089.38447    565887.07446  22694199.4164   22694206.6974
      -796.3914
    -18418.55944     -8478.87345  25744045.1974   25744059.2874
        48.6414
   1943250.39848   1509844.82047  20936387.2054   20936393.1114
     -1496.1094
   5479109.59943   4430253.52945  25140466.2834   25140482.4474
     -3919.0314
  10307213.41046   7788348.27445  23784936.9944   23784946.3854
     -5640.4534
   4433126.45748   3453330.61447  21490346.5104   21490352.5454
     -2761.4064
   1317947.82448   1027219.70147  21668938.8144   21668944.6154
     -1230.0944
   7776650.70246   6049108.63046  23408755.9004   23408763.6974
     -4650.9694
 01 10  2  0 52 15.0020000  0  9G 7G 2G11G 8G10G13G27G28G31
   -334787.86045   -808762.32445  24953182.5884   24953196.8774
      1356.6094
    734081.48247    575231.61146  22696481.4864   22696488.6864
      -802.5474
    -19117.13944     -9023.14745  25743911.3544   25743927.9634
        44.5164
   1965749.33348   1527376.46647  20940668.5254   20940674.5964
     -1503.7344
   5537956.11743   4476107.84545  25151665.8854   25151677.8424
     -3927.1564
  10391865.34346   7854310.75845  23801044.7134   23801054.5254
     -5646.4534
   4474606.86548   3485653.00447  21498239.9714   21498246.0184
     -2769.3124
   1336458.29548   1041643.46647  21672461.2604   21672467.0374
     -1237.9694
   7846490.85946   6103529.52946  23422046.1354   23422053.9674
     -4661.0314
 01 10  2  0 52 30.0020000  0  9G 7G 2G11G 8G10G13G27G28G31
   -355111.59045   -824598.78145  24949315.6274   24949329.9984
      1353.2814
    746164.57447    584647.06646  22698780.8304   22698787.7484
      -808.5004
    -19754.54043     -9519.74044  25743789.8694   25743801.8034
        40.5164
   1988361.63348   1544996.45347  20944971.6044   20944977.5924
     -1511.2034
   5596923.65143   4522056.57745  25162885.7364   25162901.5374
     -3935.1254
  10476605.90846   7920342.29245  23817171.7364   23817180.6824
     -5652.2504
   4516204.86148   3518067.02347  21506155.8384   21506161.8384
     -2777.0474
   1355085.60248   1056158.27747  21676005.8854   21676011.7324
     -1245.6254
   7916480.59646   6158066.96946  23435364.9474   23435372.3574
     -4670.8914
 01 10  2  0 52 45.0020000  0  9G 7G 2G11G 8G10G13G27G28G31
   -375383.29645   -840394.73545  24945458.4944   24945472.5964
      1349.7504
    758338.54547    594133.32946  22701097.4634   22701104.5104
      -814.5784
    -20330.26543     -9968.28545  25743681.2054   25743692.7754
        36.3754
   2011087.50648   1562704.93947  20949296.1824   20949302.1934
     -1518.7814
   5656011.87543   4568099.25145  25174131.1824   25174143.1624
     -3943.1874
  10561434.79546   7986442.64745  23833312.5254   23833321.4004
     -5658.1564
   4557920.55348   3550572.75247  21514094.0884   21514100.0064
     -2784.9224
   1373829.56048   1070763.97747  21679572.7294   21679578.4824
     -1253.4374
   7986619.61246   6212720.72446  23448711.4634   23448719.2134
     -4680.8444
 01 10  2  0 53  0.0020000  0  9G 7G 2G11G 8G10G13G27G28G31
   -395604.44145   -856151.39445  24941610.3614   24941625.8464
      1346.2974
    770601.61747    603689.01446  22703430.9474   22703437.9474
      -820.5784
    -20845.63643    -10369.81245  25743582.3224   25743594.9594
        32.2664
   2033925.22748   1580500.57747  20953642.0644   20953648.0884
     -1526.3124
   5715218.70043   4614234.32145  25185397.7444   25185412.1864
     -3951.1254
  10646350.05946   8052610.31045  23849471.7994   23849480.6504
     -5663.9694
   4599752.30948   3583168.92047  21522054.5884   21522060.7404
     -2792.7194
   1392688.35548   1085459.16847  21683161.3074   21683167.0844
     -1261.1564
   8056905.89046   6267489.23846  23462087.0884   23462095.0844
     -4690.7344
 01 10  2  0 53 15.0020000  0  9G 7G 2G11G 8G10G13G27G28G31
   -415773.25545   -871867.15645  24937771.7754   24937785.0214
      1342.9384
    782955.24947    613315.28146  22705781.9004   22705788.6864
      -826.5004
    -21298.94743    -10722.82045  25743496.4634   25743507.5184
        28.2344
   2056876.40048   1598384.62347  20958009.5254   20958015.5614
     -1533.7664
   5774545.35643   4660462.83645  25196687.2834   25196703.4244
     -3959.0004
  10731352.77646   8118846.08145  23865648.3144   23865657.3774
     -5669.6564
   4641701.65948   3615856.72747  21530037.0574   21530043.1624
     -2800.4534
   1411663.49248   1100245.00747  21686772.1824   21686778.0414
     -1268.7974
   8127340.55746   6322373.38146  23475490.0724   23475497.9864
     -4700.5004
 01 10  2  0 53 30.0020000  0  9G 7G 2G11G 8G10G13G27G28G31
   -435890.41545   -887542.74845  24933943.9864   24933960.4204
      1339.4384
    795398.36047    623011.25946  22708149.4714   22708156.3304
      -832.5004
    -21690.70443    -11028.03845  25743421.3384   25743433.2364
        24.0784
   2079940.08148   1616356.33047  20962398.3854   20962404.3964
     -1541.3284
   5833990.56343   4706783.68845  25207998.8694   25208013.8144
     -3966.9534
  10816441.59846   8185149.00445  23881839.3774   23881848.3574
     -5675.4374
   4683767.74348   3648635.49047  21538041.9244   21538048.0064
     -2808.2814
   1430753.96248   1115120.72247  21690404.9554   21690410.9084
     -1276.5314
   8197922.29346   6377372.12246  23488921.1194   23488928.3074
     -4710.3444
 01 10  2  0 53 45.0020000  0 10G 7G 2G11G 8G10G13G27G28G31G26
   -455955.56845   -903177.81745  24930124.9324   24930141.3424
      1336.0164
    807930.97447    632776.98246  22710534.2994   22710541.5334
      -838.3914
    -22020.43543    -11284.82745  25743359.2604   25743369.9514
        20.0004
   2103116.60948   1634415.97547  20966808.6824   20966814.7874
     -1548.7814
   5893554.00343   4753196.68345  25219333.6434   25219349.7714
     -3974.7344
  10901616.33746   8251518.81345  23898047.8614   23898056.7834
     -5681.0784
   4725950.75448   3681505.36347  21546069.1044   21546075.0574
     -2816.0164
   1449959.73048   1130086.27547  21694059.6744   21694065.6624
     -1284.1414
   8268650.82246   6432485.25446  23502380.7054   23502389.0644
     -4720.0314
     -8449.70355                  25570384.7684
      1054.8134
 01 10  2  0 54  0.0020000  0 10G 7G 2G11G 8G10G13G27G28G31G26
   -475970.38045   -918773.61045  24926317.0254   24926333.7644
      1332.6564
    820551.05847    642610.85946  22712935.8934   22712942.9284
      -844.2194
    -22289.90443    -11494.70245  25743307.1824   25743318.6234
        15.9844
   2126404.14248   1652562.11647  20971240.2294   20971246.3224
     -1556.1874
   5953233.37143   4799700.01845  25230688.0574   25230699.4164
     -3982.4374
  10986874.81146   8317953.92145  23914271.6434   23914281.7134
     -5686.6414
   4768248.84348   3714464.91147  21554118.2054   21554124.1824
     -2823.6724
   1469278.84448   1145140.14847  21697735.9474   21697741.7364
     -1291.6724
   8339523.95746   6487711.05646  23515867.4244   23515875.6784
     -4729.6414
    -24229.26343                  25567381.3384
      1049.2194
 01 10  2  0 54 15.0020000  0 10G 7G 2G11G 8G10G13G27G28G31G26
   -495934.69145   -934330.12045  24922517.4004   24922533.5184
      1329.2034
    833258.49747    652512.80246  22715354.0184   22715360.9364
      -850.1254
    -22498.77643    -11657.39245  25743266.5644   25743276.1784
        11.8444
   2149802.79448   1670794.84447  20975692.8224   20975698.7994
     -1563.6724
   6013028.04843   4846293.20345  25242070.0494   25242087.8424
     -3990.1874
  11072216.37346   8384453.74345  23930512.9634   23930521.7324
     -5692.2504
   4810661.93348   3747514.07147  21562189.2684   21562195.3614
     -2831.4224
   1488711.10048   1160282.18647  21701433.8464   21701439.8344
     -1299.2974
   8410541.14346   6543049.10246  23529381.2444   23529389.5924
     -4739.3284
    -39924.19143                  25564393.0414
      1043.4694
 01 10  2  0 54 30.0020000  0 10G 7G 2G11G 8G10G13G27G28G31G26
   -515845.44945   -949844.87645  24918728.3544   24918744.4714
      1325.5634
    846056.07547    662484.98246  22717789.5254   22717796.1584
      -856.2034
    -22643.93144    -11770.47245  25743240.1894   25743251.7134
         7.5314
   2173315.32248   1689116.30247  20980166.9864   20980173.0804
     -1571.3284
   6072940.51643   4892978.14545  25253469.4164   25253482.5104
     -3998.1414
  11157643.50546   8451020.24045  23946769.4474   23946779.6584
     -5698.0164
   4853192.92048   3780655.09747  21570282.4394   21570288.4044
     -2839.3594
   1508259.26548   1175514.54347  21705153.7134   21705159.5494
     -1307.0944
   8481704.88346   6598501.35646  23542923.5024   23542931.4634
     -4749.1414
    -55531.49442                  25561423.5574
      1037.5474
 01 10  2  0 54 45.0020000  0 10G 7G 2G11G 8G10G13G27G28G31G26
   -535702.93345   -965318.08645  24914948.8544   24914965.7444
      1321.9844
    858943.05147    672526.82346  22720241.3934   22720248.0844
      -862.1564
    -22725.79044    -11834.14545  25743224.6744   25743238.7174
         3.2814
   2196941.26848   1707526.13247  20984662.9004   20984669.0064
     -1578.8914
   6132969.93643   4939754.20445  25264892.9164   25264908.7294
     -4005.8754
  11243155.40946   8517652.81145  23963040.5644   23963049.6624
     -5703.6724
   4895841.28248   3813887.58147  21578398.3694   21578404.3934
     -2847.1874
   1527922.54348   1190836.59547  21708895.4864   21708901.4044
     -1314.7664
   8553014.14046   6654066.98746  23556492.9944   23556501.0374
     -4758.8444
    -71051.35543     -8054.99855  25558471.5494   25558477.9474
      1031.7194
 01 10  2  0 55  0.0030000  0 10G 7G 2G11G 8G10G13G27G28G31G26
   -555508.40345   -980750.77745  24911180.1874   24911196.0934
      1318.4844
    871920.01647    682638.79146  22722711.0384   22722717.7654
      -868.0474
    -22744.19942    -11848.44045  25743219.4524   25743231.4684
        -0.8754
   2220682.25748   1726025.61447  20989180.6944   20989186.6244
     -1586.4064
   6193119.73043   4986624.18345  25276339.7414   25276354.3944
     -4013.5944
  11328757.23646   8584355.44545  23979331.2654   23979339.9174
     -5709.2194
   4938609.75848   3847213.66847  21586536.8044   21586542.8044
     -2854.9694
   1547701.96348   1206249.15047  21712659.4134   21712665.1794
     -1322.3754
   8624473.13246   6709749.30046  23570091.3584   23570099.3084
     -4768.4534
    -86484.76044    -20081.02445  25555534.8664   25555544.9954
      1025.8914
 01 10  2  0 55 15.0030000  0 10G 7G 2G11G 8G10G13G27G28G31G26
   -575261.06645   -996142.36145  24907420.8274   24907436.7224
      1315.1254
    884983.07547    692817.84146  22725196.6324   22725203.5504
      -873.7664
    -22700.89542    -11814.51344  25743228.1014   25743246.4214
        -4.9534
   2244533.07848   1744610.67847  20993719.2964   20993725.4254
     -1593.7664
   6253379.36343   5033579.59145  25287805.8824   25287820.4404
     -4021.0784
  11414435.24346   8651117.44745  23995634.9444   23995645.2964
     -5714.5944
   4981490.64548   3880627.34547  21594696.6634   21594702.7224
     -2862.5624
   1567592.79448   1221748.51547  21716444.4374   21716450.3544
     -1329.8124
   8696069.91946   6765539.01246  23583716.0074   23583723.8744
     -4777.8594
   -101831.26144    -32039.45345  25552614.3514   25552623.5544
      1020.2504
 01 10  2  0 55 30.0030000  0 10G 7G 2G11G 8G10G13G27G28G31G26
   -594960.03245  -1011492.03045  24903671.7184   24903686.0194
      1311.4844
    898134.95847    703066.09846  22727699.3664   22727706.0224
      -879.7344
    -22593.46944    -11730.64245  25743249.9834   25743266.4294
        -9.2974
   2268497.40848   1763284.19047  20998279.6084   20998285.6084
     -1601.3914
   6313754.40143   5080624.97545  25299295.1324   25299313.2184
     -4028.8124
  11500196.71846   8717944.45445  24011954.4054   24011962.4484
     -5720.1724
   5024488.73948   3914132.35147  21602879.1554   21602885.1904
     -2870.4224
   1587598.26048   1237337.21547  21720251.4054   21720257.0654
     -1337.4844
   8767810.87246   6821441.03146  23597367.4134   23597375.6444
     -4787.5004
   -117089.87443    -43929.25244  25549709.9294   25549717.4214
      1014.3444
 01 10  2  0 55 45.0030000  0 10G 7G 2G11G 8G10G13G27G28G31G26
   -614606.75045  -1026801.02945  24899932.8824   24899947.4524
      1307.9534
    911373.80447    713382.12246  22730218.5384   22730225.3004
      -885.5624
    -22423.40845    -11598.09145  25743281.5854   25743292.6754
       -13.5004
   2292573.45648   1782044.74847  21002861.0694   21002867.1514
     -1608.8754
   6374242.83643   5127758.76045  25310804.5074   25310818.5974
     -4036.4224
  11586039.38046   8784834.76545  24028290.2334   24028299.6244
     -5725.6254
   5067602.34348   3947727.36547  21611083.3354   21611089.4054
     -2878.1724
   1607716.32448   1253013.64347  21724079.6324   21724085.5154
     -1345.0314
   8839693.95646   6877453.81546  23611045.8584   23611054.1124
     -4797.0164
   -132262.07743    -55751.84744  25546823.3584   25546835.0464
      1008.5474
 01 10  2  0 56  0.0030000  0 10G 7G 2G11G 8G10G13G27G28G31G26
   -634199.24945  -1042067.77945  24896204.9764   24896219.8514
      1304.4064
    924701.39047    723767.28846  22732754.7264   22732761.4874
      -891.4224
    -22188.62643    -11415.01445  25743326.1874   25743336.2224
       -17.7814
   2316763.23548   1800893.93047  21007464.1714   21007470.2184
     -1616.4224
   6434846.03143   5174981.94245  25322338.2964   25322352.0464
     -4043.9844
  11671964.80746   8851789.56245  24044640.7184   24044648.9484
     -5731.0784
   5110833.32248   3981413.83847  21619309.9684   21619316.0854
     -2885.9534
   1627948.80848   1268779.23447  21727929.6244   21727935.3544
     -1352.6094
   8911720.66746   6933578.53646  23624752.7334   23624760.3434
     -4806.5164
   -147345.72243    -67505.42945  25543952.1014   25543962.5344
      1002.6414
 01 10  2  0 56 15.0030000  0 10G 7G 2G11G 8G10G13G27G28G31G26
   -653738.16345  -1057292.72545  24892487.4374   24892502.0304
      1300.8284
    938116.66647    734220.78646  22735307.6324   22735314.2764
      -897.2664
    -21889.79542    -11182.13244  25743381.0464   25743397.5624
       -22.0474
   2341065.89748   1819831.07447  21012088.8514   21012094.9214
     -1623.9224
   6495562.62243   5222293.53145  25333892.1874   25333910.4254
     -4051.5474
  11757971.65146   8918807.78245  24061007.7884   24061016.3474
     -5736.4844
   5154180.86948   4015191.14547  21627558.6874   21627564.7224
     -2893.7194
   1648294.65248   1284633.15847  21731801.3124   21731807.1364
     -1360.1564
   8983889.47346   6989813.96146  23638485.8584   23638493.6324
     -4815.9694
   -162341.41643    -79190.41045  25541099.4524   25541109.8274
       996.7974
 01 10  2  0 56 30.0030000  0 10G 7G 2G11G 8G10G13G27G28G31G26
   -673225.06945  -1072477.20645  24888778.1324   24888795.2454
      1297.3594
    951617.70147    744741.10246  22737876.7804   22737883.6754
      -902.9694
    -21528.40543    -10900.25043  25743450.6084   25743459.1554
       -26.2344
   2365479.62248   1838854.76347  21016734.6634   21016740.7454
     -1631.3444
   6556390.38343   5269691.64545  25345468.2414   25345484.4994
     -4058.9064
  11844057.75646   8985887.78145  24077390.6324   24077399.4374
     -5741.7664
   5197643.15148   4049057.85747  21635829.2964   21635835.3784
     -2901.3594
   1668751.85048   1300573.85147  21735694.1794   21735700.0854
     -1367.5784
   9056198.23146   7046158.42546  23652245.7494   23652252.9954
     -4825.2814
   -177250.70843    -90808.00345  25538262.3354   25538275.5114
       991.0474
 01 10  2  0 56 45.0030000  0 10G 7G 2G11G 8G10G13G27G28G31G26
   -692657.99545  -1087619.59545  24885081.1634   24885096.3314
      1293.7194
    965206.19547    755329.58346  22740462.5074   22740469.6364
      -908.8284
    -21102.32143    -10568.35945  25743532.8824   25743543.4334
       -30.5784
   2390006.52748   1857966.64347  21021402.0384   21021408.1324
     -1638.9064
   6617330.61943   5317177.47645  25357063.9684   25357081.8314
     -4066.4534
  11930224.47146   9053030.55245  24093786.6244   24093795.0894
     -5747.1414
   5241221.97248   4083015.38147  21644122.0304   21644127.9954
     -2909.1564
   1689322.12548   1316602.65547  21739608.7494   21739614.5974
     -1375.1254
   9128648.37446   7102613.08646  23666032.1944   23666040.1204
     -4834.7344
   -192071.55043   -102356.72545  25535442.7104   25535450.2494
       985.0944
 01 10  2  0 57  0.0030000  0 10G 7G 2G11G 8G10G13G27G28G31G26
   -712037.07245  -1102720.01845  24881392.6874   24881409.9874
      1290.3284
    978881.59447    765985.76846  22743064.9374   22743071.7104
      -914.4064
    -20611.63643    -10185.85245  25743626.2104   25743639.9484
       -34.6724
   2414646.17848   1877166.37847  21026090.8824   21026096.9404
     -1646.2194
   6678382.75843   5364750.46945  25368680.6014   25368693.2374
     -4073.6724
  12016471.11546   9120235.66845  24110198.6714   24110207.2654
     -5752.2504
   5284917.02148   4117063.46547  21652436.8354   21652442.8354
     -2916.6874
   1710005.02248   1332719.21747  21743544.5154   21743550.1404
     -1382.4224
   9201239.21546   7159177.39246  23679846.7024   23679854.1244
     -4843.8754
   -206804.10944   -113836.80745  25532638.9684   25532646.8474
       979.4224
 01 10  2  0 57 15.0030000  0 10G 7G 2G11G 8G10G13G27G28G31G26
   -731363.86545  -1117779.67345  24877715.8274   24877731.7804
      1286.7664
    992641.94647    776708.14646  22745683.1714   22745690.2064
      -920.1254
    -20058.08043     -9754.37145  25743730.9684   25743745.2454
       -38.9534
   2439396.59848   1896452.43347  21030800.6324   21030806.7844
     -1653.7034
   6739544.46443   5412408.91145  25380320.9604   25380335.3664
     -4081.0314
  12102795.40946   9187501.23245  24126626.4834   24126635.4054
     -5757.4694
   5328726.44248   4151200.67547  21660773.7184   21660779.8474
     -2924.3754
   1730798.54248   1348921.97847  21747501.5464   21747507.4294
     -1389.8594
   9273968.42346   7215849.49646  23693685.7104   23693693.1794
     -4853.1564
   -221449.98444   -125249.21045  25529852.2104   25529860.1244
       973.5474
 01 10  2  0 57 30.0030000  0 10G 7G 2G11G 8G10G13G27G28G31G26
   -750637.01245  -1132797.55045  24874047.9914   24874063.8864
      1283.0004
   1006488.31647    787497.56846  22748318.1794   22748325.1324
      -926.0474
    -19439.99343     -9272.62345  25743848.1014   25743860.2334
       -43.4534
   2464259.30548   1915825.97847  21035531.9524   21035537.9764
     -1661.3594
   6800816.50243   5460153.22845  25391980.2804   25391994.0424
     -4088.5624
  12189198.27446   9254828.07145  24143068.4834   24143078.2964
     -5762.8914
   5372651.46148   4185427.96147  21669132.1634   21669138.3274
     -2932.2814
   1751703.68848   1365211.72047  21751479.4834   21751485.3314
     -1397.4844
   9346836.69846   7272629.96446  23707552.4914   23707560.7224
     -4862.5944
   -236007.74343   -136592.97344  25527080.1324   25527088.4914
       967.4844
 01 10  2  0 57 45.0030000  0 10G 7G 2G11G 8G10G13G27G28G31G26
   -769855.90245  -1147773.15945  24870389.6014   24870405.2614
      1279.3134
   1020420.96047    798354.19946  22750969.3824   22750976.3474
      -931.8594
    -18756.72343     -8740.13245  25743978.1474   25743991.7104
       -47.8594
   2489234.61148   1935287.26047  21040284.4914   21040290.5504
     -1668.9224
   6862198.79543   5507983.49245  25403660.9214   25403672.1284
     -4095.9534
  12275679.56346   9322215.99245  24159524.1714   24159534.2764
     -5768.1564
   5416692.44748   4219745.60847  21677512.8904   21677518.9724
     -2940.0624
   1772720.69048   1381588.62447  21755478.8194   21755484.5624
     -1404.9844
   9419844.05746   7329518.80445  23721444.9134   23721452.8154
     -4871.9224
   -250476.79043   -147867.48644  25524326.8354   25524334.9134
       961.5164
 01 10  2  0 58  0.0030000  0 10G 7G 2G11G 8G10G13G27G28G31G26
   -789019.55245  -1162705.69845  24866742.5224   24866758.7454
      1275.8594
   1034440.50647    809278.54546  22753637.4834   22753644.3544
      -937.4374
    -18007.29042     -8156.01945  25744120.1084   25744131.9484
       -52.0784
   2514323.37948   1954836.95447  21045058.6944   21045064.6124
     -1676.2814
   6923691.68443   5555899.97545  25415364.0854   25415380.3434
     -4103.0784
  12362239.78446   9389665.42045  24175996.9684   24176006.4994
     -5773.2034
   5460850.18348   4254154.22547  21685915.9294   21685922.0224
     -2947.6414
   1793850.13548   1398053.15247  21759499.5624   21759505.4794
     -1412.2814
   9492990.92446   7386516.36946  23735364.8514   23735373.0584
     -4881.0004
   -264856.11643   -159072.16445  25521591.7414   25521604.1554
       955.7194
 01 10  2  0 58 15.0030000  0 10G 7G 2G11G 8G10G13G27G28G31G26
   -808130.50345  -1177597.17745  24863106.0074   24863120.7884
      1272.3594
   1048544.08547    820268.38546  22756320.9444   22756327.6594
      -942.9694
    -17194.26943     -7522.33845  25744276.0544   25744290.2264
       -56.2664
   2539522.87548   1974472.93147  21049854.0774   21049860.1244
     -1683.5784
   6985291.94743   5603900.06345  25427085.3824   25427097.1634
     -4110.1874
  12448875.69446   9457173.84145  24192483.3584   24192492.1634
     -5778.1724
   5505121.91148   4288651.67547  21694340.4524   21694346.5934
     -2955.1874
   1815089.19748   1414603.08647  21763541.2264   21763547.1204
     -1419.5164
   9566274.07346   7443620.10846  23749310.0544   23749318.2144
     -4890.0164
   -279148.17043   -170208.79445  25518872.1324   25518883.3744
       949.9534
 01 10  2  0 58 30.0030000  0 10G 7G 2G11G 8G10G13G27G28G31G26
   -827189.05945  -1192447.81545  24859479.7334   24859495.6634
      1268.9064
   1062731.14947    831323.26846  22759020.7184   22759027.4914
      -948.5004
    -16317.59844     -6839.15345  25744443.0224   25744455.4724
       -60.4844
   2564832.76048   1994194.92547  21054670.3044   21054676.3624
     -1690.9224
   7046998.72143   5651983.17545  25438827.5774   25438841.5384
     -4117.2344
  12535586.48246   9524740.59645  24208982.9054   24208992.6014
     -5783.1254
   5549507.25248   4323237.65247  21702786.7654   21702792.7884
     -2962.7344
   1836437.30648   1431238.00147  21767603.5934   21767609.4524
     -1426.7504
   9639692.73546   7500829.47146  23763281.8354   23763289.9954
     -4898.9844
   -293353.06044   -181277.64145  25516168.4834   25516177.2884
       944.1884
 01 10  2  0 58 45.0030000  0 10G 7G 2G11G 8G10G13G27G28G31G26
   -846194.30645  -1207256.91945  24855862.7414   24855880.2294
      1265.2344
   1077002.19047    842443.58646  22761736.3434   22761743.0114
      -954.2034
    -15376.52544     -6105.84545  25744621.9294   25744631.1554
       -64.8914
   2590253.74748   2014003.49047  21059507.7414   21059513.8004
     -1698.4224
   7108812.29643   5700149.48245  25450589.5074   25450603.1984
     -4124.4694
  12622372.18146   9592365.72645  24225497.9914   24225506.8784
     -5788.2194
   5594006.77348   4357912.59647  21711254.7414   21711260.6834
     -2970.4374
   1857894.81348   1447958.15447  21771686.9214   21771692.7454
     -1434.1564
   9713246.95246   7558144.44546  23777278.0074   23777287.0584
     -4908.1254
   -307470.11244   -192277.88445  25513482.9834   25513496.0774
       938.1884
 01 10  2  0 59  0.0030000  0 10G 7G 2G11G 8G10G13G27G28G31G26
   -865144.43345  -1222023.08545  24852256.7494   24852272.4914
      1261.4534
   1091358.62747    853630.44646  22764468.2964   22764475.1794
      -959.9844
    -14369.09443     -5320.71045  25744813.5224   25744826.8274
       -69.4534
   2615787.43648   2033899.87847  21064366.6474   21064372.6474
     -1706.0474
   7170733.76544   5748399.94945  25462373.5544   25462384.7144
     -4131.7194
  12709234.25146   9660050.35545  24242027.8664   24242037.5034
     -5793.3914
   5638622.14548   4392677.81947  21719744.7334   21719750.7804
     -2978.2664
   1879463.30048   1464764.78647  21775791.2654   21775797.1364
     -1441.6414
   9786938.04146   7615566.07045  23791301.2334   23791308.6204
     -4917.3444
   -321497.43443   -203208.31245  25510812.6474   25510820.8904
       932.1254
 01 10  2  0 59 15.0030000  0 10G 7G 2G11G 8G10G13G27G28G31G26
   -884038.14045  -1236745.23745  24848660.9604   24848678.1204
      1257.7194
   1105801.41147    864884.59446  22767216.6404   22767223.6164
      -965.7344
    -13294.02942     -4482.87445  25745015.9684   25745030.5974
       -73.9224
   2641434.96348   2053884.96847  21069247.2574   21069253.3274
     -1713.6414
   7232763.84844   5796734.95045  25474178.5774   25474191.7184
     -4138.9694
  12796173.42146   9727795.09045  24258571.2104   24258580.5074
     -5798.5164
   5683354.43148   4427534.14047  21728256.9444   21728263.0624
     -2986.0474
   1901143.74448   1481658.66047  21779916.9294   21779922.6014
     -1449.1094
   9860766.58846   7673094.81846  23805350.0384   23805357.9404
     -4926.4844
   -335433.63343   -214067.71345  25508161.0544   25508166.8664
       926.0314
 01 10  2  0 59 30.0030000  0 10G 7G 2G11G 8G10G13G27G28G31G26
   -902877.81545  -1251425.37045  24845075.8824   24845091.6014
      1254.1564
   1120327.88647    876203.95446  22769980.9294   22769987.7374
      -971.2664
    -12153.79642     -3594.12145  25745232.7654   25745251.1794
       -78.2504
   2667193.90248   2073956.88147  21074148.9444   21074154.8514
     -1721.0164
   7294899.52644   5845152.27445  25486001.8904   25486016.2264
     -4145.9224
  12883186.64846   9795597.50945  24275130.1164   24275139.6834
     -5803.3914
   5728201.03848   4462479.54747  21736791.1164   21736797.2804
     -2993.6254
   1922933.29848   1498637.55147  21784063.4294   21784069.1594
     -1456.3124
   9934729.67346   7730728.37446  23819424.8664   23819433.6594
     -4935.3914
   -349281.12343   -224857.98245  25505526.0544   25505534.4484
       920.1724
 01 10  2  0 59 45.0030000  0 10G 7G 2G11G 8G10G13G27G28G31G26
   -921662.98545  -1266062.93445  24841500.9764   24841515.8744
      1250.5784
   1134938.22047    887588.66146  22772760.9684   22772767.9684
      -976.7664
    -10947.62945     -2654.02245  25745464.8514   25745476.0114
       -82.5784
   2693064.45248   2094115.75947  21079071.9604   21079077.9834
     -1728.3754
   7357140.67044   5893651.78945  25497845.5934   25497860.5974
     -4152.8594
  12970273.88146   9863457.56545  24291701.6634   24291712.2724
     -5808.2194
   5773162.32948   4497514.31647  21745346.9054   21745353.0464
     -3001.1874
   1944832.15148   1515701.61647  21788230.5384   21788236.2694
     -1463.5164
  10008827.10646   7788466.62945  23833525.6714   23833532.4094
     -4944.2504
   -363039.31843   -235578.65345  25502907.8124   25502915.7144
       914.2664
 01 10  2  1  0  0.0030000  0 10G 7G 2G11G 8G10G13G27G28G31G26
   -940393.12345  -1280657.66745  24837937.7654   24837951.2224
      1246.8284
   1149632.50947    899038.78646  22775557.3514   22775564.1594
      -982.4224
     -9674.89745     -1662.26745  25745706.9994   25745713.9524
       -87.0784
   2719047.12748   2114362.00747  21084016.3664   21084022.3904
     -1735.9224
   7419487.10344   5942233.34545  25509710.4604   25509727.7494
     -4159.9374
  13057434.90746   9931375.15445  24308287.7334   24308298.1554
     -5813.1874
   5818238.59448   4532638.67747  21753924.6014   21753930.5304
     -3008.9224
   1966840.41448   1532850.92847  21792418.5624   21792424.3154
     -1470.8594
  10083058.74046   7846309.47546  23847650.7334   23847659.2224
     -4953.2344
   -376707.60144   -246229.13645  25500307.6014   25500317.8004
       908.2194
 01 10  2  1  0 15.0030000  0 10G 7G 2G11G 8G10G13G27G28G31G26
   -959068.45345  -1295209.68945  24834382.2724   24834397.4994
      1243.1254
   1164410.10647    910553.81846  22778369.3354   22778375.9914
      -988.0314
     -8335.96144      -619.07245  25745960.8354   25745971.9484
       -91.5474
   2745141.40348   2134695.21447  21088981.8744   21088987.9684
     -1743.4224
   7481937.84644   5990896.17145  25521594.5384   25521609.1204
     -4166.9374
  13144668.88546   9999349.61145  24324889.5384   24324899.5034
     -5818.0784
   5863429.32048   4567852.22047  21762524.1634   21762530.1164
     -3016.5944
   1988957.49948   1550085.03947  21796627.2184   21796632.9254
     -1478.1564
  10157423.70546   7904256.16946  23861802.5774   23861811.6514
     -4962.1724
   -390286.43545   -256810.11645  25497723.8274   25497733.7574
       902.1884
 01 10  2  1  0 30.0030000  0 10G 7G 2G11G 8G10G13G27G28G31G26
   -977689.25845  -1309719.19845  24830839.0154   24830854.6754
      1239.5314
   1179270.42747    922133.32146  22781197.4134   22781204.1984
      -993.4534
     -6930.95842       475.89345  25746226.0624   25746237.8314
       -95.8754
   2771346.83048   2155115.04247  21093968.5074   21093974.5774
     -1750.7504
   7544492.13444   6039639.71445  25533498.6474   25533513.1244
     -4173.7344
  13231974.83046  10067380.09845  24341502.6874   24341512.1124
     -5822.7974
   5908734.10748   4603154.65347  21771145.3514   21771151.1874
     -3024.1414
   2011182.77748   1567403.45547  21800856.4994   21800862.1474
     -1485.2974
  10231921.13546   7962306.13245  23875978.0074   23875985.8744
     -4970.9224
   -403775.90045   -267321.38345  25495157.6244   25495167.3544
       896.2814
 01 10  2  1  0 45.0030000  0 10G 7G 2G11G 8G10G13G27G28G31G26
   -996252.46345  -1324183.84345  24827306.4294   24827320.0854
      1235.5634
   1194216.25247    933779.45046  22784041.3194   22784048.1404
      -999.2974
     -5456.76443      1624.93145  25746507.8434   25746523.4914
      -100.6724
   2797666.41848   2175623.82147  21098977.1014   21098983.1594
     -1758.5164
   7607152.24145   6088465.67145  25545423.6164   25545438.0344
     -4180.9224
  13319355.28546  10135468.69045  24358130.1404   24358140.3394
     -5827.9064
   5954155.81348   4638548.18347  21779788.6164   21779794.6404
     -3032.0784
   2033518.88648   1584808.23547  21805106.9764   21805112.6244
     -1492.8444
  10306553.48946   8020461.22345  23890180.7654   23890189.1474
     -4980.0474
   -417172.89143   -277760.55945  25492606.8514   25492614.9054
       889.9844
 01 10  2  1  1  0.0030000  0 10G 7G 2G11G 8G10G13G27G28G31G26
  -1014759.34345  -1338604.55645  24823784.7804   24823800.2764
      1231.9534
   1209246.03347    945490.99446  22786901.3744   22786908.3274
     -1004.7034
     -3914.46543      2826.88445  25746802.4684   25746816.7104
      -105.0164
   2824098.77148   2196220.47047  21104006.9444   21104013.0264
     -1765.8444
   7669916.40545   6137372.71945  25557366.1554   25557379.9644
     -4187.6564
  13406808.58146  10203613.99445  24374771.6634   24374781.6164
     -5832.5624
   5999692.97348   4674031.68047  21788454.2334   21788460.3274
     -3039.5784
   2055964.37848   1602298.24847  21809378.0694   21809383.6364
     -1499.9224
  10381318.81846   8078719.90945  23904407.6714   23904415.3864
     -4988.6874
   -430478.70543   -288128.62445  25490073.9444   25490085.3394
       884.0944
 01 10  2  1  1 15.0030000  0 10G 7G 2G11G 8G10G13G27G28G31G26
  -1033212.71845  -1352983.61045  24820274.1714   24820288.7414
      1228.4534
   1224356.58447    957265.47746  22789776.8824   22789783.4914
     -1010.0624
     -2306.91644      4079.60945  25747107.4764   25747120.6404
      -109.3444
   2850640.82648   2216902.60447  21109057.6944   21109063.6944
     -1773.1254
   7732781.06145   6186358.07345  25569329.5624   25569345.0114
     -4194.3124
  13494331.07946  10271813.28145  24391427.3664   24391437.3784
     -5837.1254
   6045342.52048   4709602.75447  21797140.9764   21797147.0344
     -3047.0474
   2078515.96448   1619870.92747  21813669.4834   21813675.1084
     -1506.9694
  10456213.73546   8137079.60545  23918660.0774   23918666.6404
     -4997.2974
   -443696.10343   -298427.87445  25487560.0624   25487569.6404
       878.2194
 01 10  2  1  1 30.0030000  0 10G 7G 2G11G 8G10G13G27G28G31G26
  -1051609.28945  -1367318.41745  24816771.9054   24816787.5544
      1224.7344
   1239550.81947    969105.17146  22792668.1634   22792674.8314
     -1015.5314
      -630.78544      5385.79345  25747425.8974   25747435.7224
      -113.8444
   2877295.69448   2237672.64347  21114130.0154   21114136.0624
     -1780.5784
   7795748.85845   6235423.84345  25581311.6404   25581327.3824
     -4201.0624
  13581925.55846  10340068.61145  24408096.0304   24408106.3004
     -5841.8124
   6091107.57748   4745263.83147  21805849.9764   21805855.9524
     -3054.6414
   2101176.61048   1637528.59347  21817981.6474   21817987.2964
     -1514.1254
  10531240.89245   8195542.32145  23932936.5934   23932944.4374
     -5005.9844
   -456821.73244   -308655.66345  25485062.2884   25485068.4644
       872.1884
 01 10  2  1  1 45.0030000  0 10G 7G 2G11G 8G10G13G27G28G31G26
  -1069952.00145  -1381611.22145  24813281.1554   24813295.7844
      1220.9384
   1254825.37847    981007.45246  22795574.7574   22795581.3904
     -1021.1094
      1110.94945      6743.13945  25747758.3904   25747768.8354
      -118.4534
   2904060.50048   2258528.35047  21119223.0074   21119229.1364
     -1788.1254
   7858816.18044   6284567.09445  25593312.1404   25593330.6014
     -4207.9374
  13669588.36046  10408377.18745  24424778.0774   24424789.5074
     -5846.5944
   6136984.90448   4781012.39447  21814580.0224   21814585.9764
     -3062.3754
   2123942.96148   1655268.62947  21822313.9914   21822319.6634
     -1521.4064
  10606396.69046   8254105.27445  23947239.3974   23947246.5854
     -5014.7974
   -469858.50945   -318814.20345  25482581.4834   25482590.8394
       866.0004
 01 10  2  1  2  0.0030000  0 10G 7G 2G11G 8G10G13G27G28G31G26
  -1088239.13145  -1395860.72045  24809800.2804   24809817.5694
      1217.5004
   1270181.78048    992973.51046  22798496.9524   22798503.5854
     -1026.2664
      2920.32844      8153.11345  25748102.5224   25748115.7924
      -122.6564
   2930936.71748   2279470.86747  21124337.4294   21124343.5344
     -1795.2504
   7921984.21444   6333788.87545  25605332.0544   25605346.5544
     -4214.3444
  13757320.69746  10476739.96945  24441472.7334   24441482.9334
     -5850.9224
   6182976.19148   4816849.75547  21823331.9134   21823337.8434
     -3069.6724
   2146816.50848   1673092.19047  21826666.7104   21826672.4994
     -1528.2504
  10681682.28446   8312769.39645  23961565.0224   23961572.4794
     -5023.1414
   -482804.69444   -328902.07645  25480118.0694   25480127.8124
       860.2664
 01 10  2  1  2 15.0030000  0 10G 7G 2G11G 8G10G13G27G28G31G26
  -1106472.34245  -1410068.20145  24806331.7334   24806348.1324
      1213.6254
   1285617.91648   1005001.70146  22801434.3274   22801440.9014
     -1031.8444
      4795.35742      9614.23944  25748455.8044   25748461.7804
      -127.2814
   2957922.35248   2300498.65047  21129472.6874   21129478.7334
     -1802.8284
   7985250.45245   6383087.15545  25617371.9684   25617389.1984
     -4221.1254
  13845120.23646  10545155.07545  24458180.3124   24458190.6984
     -5855.6564
   6229079.43848   4852774.35847  21832105.0074   21832111.1124
     -3077.3914
   2169794.99948   1690997.52547  21831039.4604   21831045.1084
     -1535.5164
  10757095.26246   8371532.74645  23975915.7184   23975924.0894
     -5031.8914
   -495661.96943   -338920.74545  25477670.4764   25477677.7224
       854.0784
 01 10  2  1  2 30.0030000  0 10G 7G 2G11G 8G10G13G27G28G31G26
  -1124648.95444  -1424231.59145  24802871.8434   24802886.3194
      1210.0164
   1301136.18448   1017093.88646  22804387.2334   22804393.9604
     -1037.1564
      6739.00343     11129.00545  25748829.0544   25748845.2294
      -131.7504
   2985020.13048   2321613.81847  21134629.2264   21134635.3194
     -1810.1254
   8048617.17844   6432463.75345  25629430.2414   25629445.3044
     -4227.6724
  13932989.17545  10613624.28045  24474900.9374   24474909.8584
     -5860.1094
   6275297.25448   4888788.24447  21840899.9834   21840906.1474
     -3084.8754
   2192880.92648   1708986.57947  21835432.4604   21835438.1794
     -1542.5164
  10832637.75846   8430397.04145  23990290.9524   23990298.9254
     -5040.3594
   -508427.53043   -348867.85345  25475241.0154   25475253.1944
       848.1094
 01 10  2  1  2 45.0030000  0 10G 7G 2G11G 8G10G13G27G28G31G26
  -1142770.66145  -1438352.18045  24799424.4054   24799440.4404
      1206.3134
   1316734.53048   1029248.47646  22807355.6084   22807362.3944
     -1042.5314
      8749.83545     12695.97345  25749212.0544   25749224.0694
      -136.2664
   3012228.10648   2342814.85047  21139806.6324   21139812.6794
     -1817.5164
   8112081.94844   6481916.70345  25641507.8434   25641526.3624
     -4234.2194
  14020925.11046  10682145.68345  24491635.0224   24491644.2844
     -5864.5784
   6321627.67548   4924889.86947  21849716.4134   21849722.5774
     -3092.4224
   2216072.22148   1727057.73847  21839845.4914   21839851.1984
     -1549.5624
  10908307.44846   8489360.45945  24004690.6474   24004698.4684
     -5048.8594
   -521103.17643   -358744.91745  25472828.4054   25472840.5384
       842.0634
 01 10  2  1  3  0.0030000  0 10G 7G 2G11G 8G10G13G27G28G31G26
  -1160835.88245  -1452428.75845  24795985.0224   24796000.8474
      1202.4064
   1332414.09348   1041466.34846  22810339.3434   22810345.9764
     -1048.0784
     10829.33044     14316.50445  25749607.3664   25749619.3124
      -141.0164
   3039547.78348   2364102.92847  21145005.4294   21145011.4294
     -1825.1094
   8175645.60745   6531446.72845  25653603.5774   25653617.3044
     -4240.9374
  14108928.99946  10750720.04445  24508382.3744   24508391.6594
     -5869.2504
   6368071.99448   4961080.24747  21858554.4214   21858560.3624
     -3100.1564
   2239370.02248   1745211.88947  21844278.9914   21844284.8274
     -1556.8124
  10984105.18745   8548423.63145  24019113.9684   24019121.7764
     -5057.5164
   -533687.19443   -368550.57645  25470434.5624   25470444.8664
       835.8134
 01 10  2  1  3 15.0030000  0 10G 7G 2G11G 8G10G13G27G28G31G26
  -1178845.80545  -1466462.26645  24792558.5384   24792573.9874
      1198.6884
   1348173.41747   1053746.37246  22813338.0154   22813344.6944
     -1053.3754
     12976.24543     15989.59845  25750014.2804   25750025.1714
      -145.4844
   3066977.68648   2385476.89647  21150225.2574   21150231.3274
     -1832.4374
   8239306.40945   6581052.49445  25665717.5774   25665731.8664
     -4247.3914
  14196999.04446  10819345.91545  24525141.9054   24525151.8584
     -5873.6414
   6414628.83848   4997358.30747  21867414.0224   21867420.1514
     -3107.6414
   2262772.79748   1763447.83447  21848732.3664   21848738.1084
     -1563.7814
  11060029.20045   8607585.19745  24033562.2334   24033570.8864
     -5065.9064
   -546180.71745   -378285.73745  25468058.2414   25468068.1474
       829.7814
 01 10  2  1  3 30.0030000  0 10G 7G 2G11G 8G10G13G27G28G31G26
  -1196799.73445  -1480452.10745  24789141.1084   24789156.8274
      1195.0634
   1364012.88148   1066088.84546  22816352.2104   22816358.9254
     -1058.6254
     15191.57444     17715.89445  25750436.2334   25750447.3704
      -149.9694
   3094518.56848   2406937.34247  21155466.0464   21155471.9524
     -1839.7504
   8303064.39545   6630733.96045  25677850.3824   25677864.8124
     -4253.7664
  14285135.45946  10888023.57845  24541913.5224   24541922.9134
     -5877.9694
   6461298.72748   5033724.45347  21876294.8274   21876300.9564
     -3115.0944
   2286280.87748   1781765.83547  21853205.9054   21853211.6014
     -1570.7034
  11136079.57846   8666845.27045  24048033.9374   24048042.5074
     -5074.2194
   -558582.99945   -387949.83645  25465698.3434   25465706.0814
       823.7664
 01 10  2  1  3 45.0030000  0 10G 7G 2G11G 8G10G13G27G28G31G26
  -1214696.83945  -1494397.68745  24785736.0384   24785751.2294
      1191.0634
   1379932.96748   1078494.14246  22819381.6474   22819388.4444
     -1064.2034
     17476.04045     19496.11745  25750871.8974   25750879.8944
      -154.7814
   3122170.83148   2428484.57947  21160727.9604   21160734.0304
     -1847.3914
   8366919.80344   6680491.33345  25690001.9214   25690018.1084
     -4260.4374
  14373338.40846  10956753.03845  24558697.8824   24558707.0154
     -5882.5784
   6508082.24948   5070179.14747  21885197.6404   21885203.6634
     -3122.8754
   2309894.69848   1800166.22947  21857699.3274   21857704.8584
     -1577.9534
  11212256.49945   8726203.93145  24062529.6714   24062537.5154
     -5082.8444
   -570893.34143   -397542.33045  25463354.2024   25463365.0694
       817.4384
 01 10  2  1  4  0.0030000  0 10G 7G 2G11G 8G10G13G27G28G31G26
  -1232538.72445  -1508300.26845  24782340.6014   24782355.2064
      1187.7504
   1395931.64748   1090960.68246  22822426.1164   22822432.8784
     -1069.0474
     19828.13444     21329.00245  25751318.3124   25751324.4874
      -158.9064
   3149932.96648   2450117.43047  21166010.9764   21166017.0344
     -1854.3284
   8430870.30445   6730322.77645  25702171.0854   25702187.2494
     -4266.3914
  14461605.60946  11025532.59645  24575494.8044   24575504.0544
     -5886.4844
   6554977.60848   5106720.98747  21894121.4994   21894127.6164
     -3129.9374
   2333612.38448   1818647.56347  21862212.7184   21862218.3084
     -1584.5004
  11288557.62046   8785659.35345  24077050.6244   24077057.1044
     -5090.7344
   -583113.23943   -407064.23945  25461028.4684   25461039.0074
       811.7814
 01 10  2  1  4 15.0030000  0 10G 7G 2G11G 8G10G13G27G28G31G26
  -1250324.03645  -1522158.74945  24778954.9524   24778969.1244
      1183.7504
   1412009.90648   1103489.22846  22825485.6874   22825492.4374
     -1074.5624
     22249.17842     23215.70045  25751777.0304   25751790.1014
      -163.7664
   3177805.94648   2471836.64947  21171315.0934   21171321.1284
     -1861.9224
   8494916.56445   6780228.91345  25714358.9524   25714371.7764
     -4272.9694
  14549937.85546  11094362.80445  24592303.4054   24592313.6634
     -5891.0004
   6601985.88948   5143350.81947  21903066.7964   21903072.7844
     -3137.6874
   2357434.84648   1837210.53647  21866745.9914   21866751.7334
     -1591.7034
  11364983.61345   8845212.11745  24091592.5694   24091600.7534
     -5099.2814
   -595241.35243   -416514.62445  25458721.1324   25458733.8514
       805.4534
 01 10  2  1  4 30.0030000  0 10G 7G 2G11G 8G10G13G27G28G31G26
  -1268052.96245  -1535973.27045  24775581.5304   24775595.5384
      1179.9534
   1428167.31748   1116079.45546  22828560.2654   22828566.8974
     -1079.8914
     24739.21344     25156.18745  25752253.1874   25752262.8704
      -168.3914
   3205789.50348   2493642.03947  21176640.0464   21176645.9994
     -1869.3754
   8559057.78645   6830208.99745  25726564.6164   25726581.4254
     -4279.3444
  14638334.32345  11163243.07045  24609124.5624   24609134.7494
     -5895.3124
   6649106.76248   5180068.38147  21912033.6404   21912039.6514
     -3145.2504
   2381361.58648   1855854.76647  21871299.0304   21871304.8664
     -1598.6874
  11441533.83545   8904861.61045  24106160.0854   24106167.9994
     -5107.5624
   -607277.71844   -425893.50645  25456430.6944   25456441.6204
       799.2504
 01 10  2  1  4 45.0030000  0 10G 7G 2G11G 8G10G13G27G28G31G26
  -1285726.20145  -1549744.40245  24772218.7964   24772231.9254
      1176.4844
   1444402.91048   1128730.60046  22831649.8824   22831656.6324
     -1084.8594
     27297.73544     27149.81745  25752740.0694   25752749.1444
      -172.7664
   3233883.11648   2515533.18747  21181986.1084   21181992.2024
     -1876.4534
   8623292.69345   6880262.05845  25738788.5384   25738804.6794
     -4285.3284
  14726793.72645  11232172.35045  24625957.7104   24625968.7884
     -5899.2974
   6696339.36148   5216873.00447  21921021.6244   21921027.5654
     -3152.4534
   2405391.61348   1874579.48347  21875871.7574   21875877.3584
     -1605.3284
  11518207.00845   8964606.98745  24120750.0624   24120758.3154
     -5115.5474
   -619222.89944   -435201.40845  25454157.5774   25454167.7884
       793.4064
 01 10  2  1  5  0.0030000  0 10G 7G 2G11G 8G10G13G27G28G31G26
  -1303340.76045  -1563469.84445  24768866.5694   24768880.4014
      1172.3754
   1460719.24048   1141444.66046  22834754.6404   22834761.4014
     -1090.4064
     29927.62143     29199.17145  25753239.4444   25753247.6874
      -177.6564
   3262089.30548   2537512.05647  21187353.5934   21187359.7104
     -1884.1414
   8687623.64145   6930390.03745  25751029.7334   25751043.0264
     -4291.8754
  14815318.47545  11301152.59845  24642802.6944   24642812.2374
     -5903.7814
   6743686.43448   5253766.82947  21930031.6404   21930037.6984
     -3160.2504
   2429527.59948   1893386.75747  21880464.6634   21880470.2414
     -1612.5624
  11595005.50045   9024449.98845  24135364.0624   24135372.7724
     -5124.0474
   -631074.12444   -444436.08745  25451903.0074   25451908.4794
       786.9694
 01 10  2  1  5 15.0030000  0 10G 7G 2G11G 8G10G13G27G28G31G26
  -1320901.17645  -1577153.07245  24765525.0544   24765538.7104
      1168.8134
   1477111.34848   1154217.76446  22837873.9994   22837880.5504
     -1095.4064
     32624.24243     31300.58445  25753753.0544   25753763.9334
      -182.0624
   3290403.28148   2559574.91047  21192741.5854   21192747.6084
     -1891.2504
   8752045.37145   6980588.69945  25763289.3974   25763303.1364
     -4297.8444
  14903903.38545  11370179.69345  24659660.3044   24659671.3944
     -5907.7194
   6791143.12748   5290746.07547  21939062.2574   21939068.1984
     -3167.5004
   2453764.42748   1912272.61347  21885076.7334   21885082.2884
     -1619.2194
  11671924.00746   9084386.49845  24150002.3124   24150009.4524
     -5131.9534
   -642835.81543   -453601.02145  25449664.1794   25449671.5194
       781.0784
 01 10  2  1  5 30.0030000  0 10G 7G 2G11G 8G10G13G27G28G31G26
  -1338405.62645  -1590792.66845  24762193.7804   24762207.4604
      1165.0474
   1493580.75148   1167051.09946  22841008.0854   22841014.7064
     -1100.5944
     35389.72643     33455.70345  25754278.9914   25754289.3904
      -186.7194
   3318827.01248   2581723.29047  21198150.3514   21198156.3514
     -1898.6254
   8816558.99944   7030858.93145  25775565.7334   25775583.0114
     -4304.0314
  14992549.76145  11439254.68645  24676529.4684   24676539.3744
     -5911.8594
   6838711.17248   5327812.08447  21948114.1404   21948120.2334
     -3174.9694
   2478103.60848   1931238.22347  21889708.2804   21889713.8474
     -1626.0944
  11748963.79245   9144417.52045  24164662.2964   24164669.7534
     -5140.0784
   -654506.09643   -462694.71945  25447442.4294   25447453.3664
       774.9064
 01 10  2  1  5 45.0030000  0 10G 7G 2G11G 8G10G13G27G28G31G26
  -1355853.87045  -1604388.53245  24758873.1944   24758886.8974
      1161.2504
   1510127.35948   1179944.59546  22844156.7884   22844163.4444
     -1105.7664
     38224.14343     35664.52945  25754818.7884   25754831.0974
      -191.3284
   3347360.38548   2603957.10847  21203580.0384   21203586.0854
     -1905.9694
   8881164.20244   7081200.57445  25787860.0934   25787876.3744
     -4310.1414
  15081257.24745  11508377.29545  24693410.3434   24693420.7884
     -5915.9534
   6886390.58948   5364964.88147  21957187.0854   21957193.1904
     -3182.4224
   2502545.12948   1950283.57847  21894359.3664   21894365.0264
     -1632.9374
  11826124.47945   9204542.76145  24179345.1014   24179354.1984
     -5148.1564
   -666084.69943   -471716.92645  25445240.7024   25445251.1474
       768.7504
 01 10  2  1  6  0.0030000  0 10G 7G 2G11G 8G10G13G27G28G31G26
  -1373244.28145  -1617939.28145  24755564.8744   24755578.2494
      1157.4224
   1526752.52148   1192899.30246  22847320.3434   22847326.8354
     -1110.9374
     41129.38145     37928.45045  25755372.1084   25755383.6554
      -196.0314
   3376004.88248   2626277.51847  21209030.9834   21209037.0304
     -1913.3284
   8945862.01544   7131614.38145  25800171.3194   25800188.1284
     -4316.2344
  15170026.85345  11577548.32945  24710302.6404   24710313.0384
     -5920.0004
   6934182.82948   5402205.59147  21966281.7264   21966287.7494
     -3189.8914
   2527090.20648   1969409.63247  21899030.0694   21899035.7764
     -1639.7664
  11903407.03046   9264762.93145  24194051.9134   24194059.7924
     -5156.2034
   -677569.97343   -480666.40245  25443054.2884   25443064.7224
       762.5944
 01 10  2  1  6 15.0030000  0 10G 7G 2G11G 8G10G13G27G28G31G26
  -1390578.81745  -1631446.51745  24752264.7494   24752278.9684
      1153.8134
   1543453.79148   1205913.31546  22850498.4914   22850505.0074
     -1115.9374
     44103.46345     40245.84645  25755938.5224   25755944.6754
      -200.5784
   3404758.50048   2648682.95247  21214502.5624   21214508.5034
     -1920.5164
   9010649.65844   7182098.14245  25812500.4054   25812516.9794
     -4322.1414
  15258855.80745  11646765.58045  24727206.4294   24727217.4604
     -5923.8914
   6982085.62048   5439532.44447  21975397.3274   21975403.3974
     -3197.1874
   2551736.34248   1988614.42847  21903720.0694   21903725.7184
     -1646.4374
  11980808.71045   9325075.96245  24208780.7654   24208789.3944
     -5164.0624
   -688963.87844   -489544.71445  25440886.8044   25440895.7144
       756.5474
 01 10  2  1  6 30.0030000  0 10G 7G 2G11G 8G10G13G27G28G31G26
  -1407855.48045  -1644908.66145  24748977.3584   24748990.2294
      1149.8134
   1560232.98748   1218988.05046  22853691.3974   22853697.8314
     -1121.2034
     47148.54843     42618.84145  25756515.2334   25756524.8124
      -205.3594
   3433622.98948   2671174.78347  21219995.3584   21220001.4294
     -1928.0004
   9075528.55244   7232653.01045  25824846.1554   25824861.3124
     -4328.2814
  15347745.73545  11716030.37545  24744122.3274   24744133.6514
     -5928.0004
   7030100.87948   5476946.93947  21984534.5384   21984540.5854
     -3204.7664
   2576485.44548   2007899.46047  21908429.7334   21908435.3584
     -1653.3594
  12058331.04745   9385482.97545  24223532.6404   24223540.2724
     -5172.1724
   -700264.29644   -498350.15945  25438735.3904   25438744.3704
       750.2504
 01 10  2  1  6 45.0040000  0 10G 7G 2G11G 8G10G13G27G28G31G26
  -1425075.55445  -1658326.68445  24745700.3404   24745713.0944
      1146.0314
   1577090.55148   1232123.85146  22856899.3484   22856905.9344
     -1126.3284
     50264.49043     45047.05545  25757109.5664   25757121.3944
      -210.1254
   3462599.86948   2693754.19347  21225509.3244   21225515.3124
     -1935.3594
   9140502.06544   7283281.65645  25837210.5744   25837225.3914
     -4334.2664
  15436701.56945  11785346.49345  24761050.5744   24761061.7694
     -5931.9694
   7078231.28048   5514451.15647  21993693.1684   21993699.1564
     -3212.2034
   2601338.49448   2027265.49147  21913159.2074   21913164.7274
     -1660.1564
  12135978.25945   9445987.33745  24238308.7544   24238316.4574
     -5180.1094
   -711472.20243   -507083.52245  25436603.1214   25436612.6294
       744.0634
 01 10  2  1  7  0.0040000  0 10G 7G 2G11G 8G10G13G27G28G31G26
  -1442237.99445  -1671699.81645  24742434.5434   24742448.7734
      1142.3594
   1594022.81548   1245317.86246  22860121.2154   22860127.8834
     -1131.2344
     53450.03143     47529.41345  25757715.3944   25757723.8834
      -214.6094
   3491684.06048   2716417.21447  21231043.8794   21231049.8914
     -1942.4844
   9205559.88344   7333975.98945  25849591.3014   25849609.3284
     -4340.0164
  15525709.81245  11854703.44345  24777988.8094   24777998.5044
     -5935.7034
   7126469.15148   5552039.10647  22002872.7544   22002878.7424
     -3219.4374
   2626290.65248   2046708.74347  21917907.3554   21917912.8524
     -1666.7194
  12213738.35345   9506579.63345  24253105.1054   24253112.8444
     -5187.8284
   -722587.22243   -515744.52745  25434487.8244   25434497.9884
       738.0474
 01 10  2  1  7 15.0040000  0 10G 7G 2G11G 8G10G13G27G28G31G26
  -1459344.81445  -1685029.64245  24739179.1994   24739192.4344
      1138.4844
   1611029.47448   1258569.83246  22863357.2934   22863363.8554
     -1136.3754
     56704.39745     50065.35845  25758335.2154   25758346.4804
      -219.3594
   3520876.36948   2739164.48647  21236598.9414   21236604.8834
     -1949.8594
   9270704.68144   7384738.07945  25861987.2694   25862005.2734
     -4346.0004
  15614774.65145  11924104.52945  24794936.6294   24794947.4614
     -5939.6414
   7174816.42548   5589712.31847  22012072.9414   22012079.0594
     -3226.9224
   2651342.12948   2066229.38547  21922674.4574   21922680.0124
     -1673.5164
  12291614.82045   9567262.61445  24267924.6374   24267932.1644
     -5195.7504
   -733611.07343   -524334.49645  25432388.7234   25432399.8014
       731.7664
 01 10  2  1  7 30.0040000  0 10G 7G 2G11G 8G10G13G27G28G31G26
  -1476394.94145  -1698315.22645  24735934.1054   24735948.9804
      1134.7974
   1628111.47148   1271880.51646  22866608.0434   22866614.6524
     -1141.2974
     60028.79645     52655.94345  25758968.1374   25758977.8444
      -223.9534
   3550177.75448   2761996.74947  21242174.8874   21242180.8404
     -1957.0784
   9335937.09044   7435568.47445  25874400.6374   25874412.5474
     -4351.7194
  15703896.88745  11993550.35145  24811897.3244   24811907.1844
     -5943.3444
   7223274.12648   5627471.56447  22021293.9414   22021299.9184
     -3234.1874
   2676493.87548   2085828.16247  21927460.7304   21927466.2034
     -1680.1094
  12369608.22445   9628036.71545  24282766.9024   24282775.0624
     -5203.4534
   -744542.50144   -532852.48445  25430310.0744   25430319.3244
       725.6564
 01 10  2  1  7 45.0040000  0 10G 7G 2G11G 8G10G13G27G28G31G26
  -1493387.40745  -1711555.93845  24732700.4104   24732714.7114
      1130.9844
   1645269.29248   1285250.28246  22869873.0984   22869879.7544
     -1146.3284
     63423.97843     55301.58645  25759613.4264   25759625.7464
      -228.6254
   3579588.97148   2784914.60047  21247771.5824   21247777.6524
     -1964.3594
   9401257.19044   7486467.11745  25886830.5194   25886849.3324
     -4357.5164
  15793076.76545  12063041.02645  24828866.8714   24828876.3324
     -5947.1724
   7271842.87148   5665317.34947  22030536.3484   22030542.3944
     -3241.5624
   2701746.38448   2105505.46147  21932265.9804   21932271.3594
     -1686.7974
  12447718.70645   9688902.02945  24297630.2154   24297637.6134
     -5211.2034
   -755380.59044   -541297.64545  25428247.4264   25428257.0274
       719.4844
 01 10  2  1  8  0.0040000  0 10G 7G 2G11G 8G10G13G27G28G31G26
  -1510322.64145  -1724752.04645  24729478.0124   24729491.9844
      1127.2034
   1662502.29848   1298678.63146  22873152.3794   22873159.0354
     -1151.2504
     66889.83143     58002.44545  25760272.9264   25760284.2624
      -233.3124
   3609109.55248   2807917.66547  21253389.1454   21253395.2504
     -1971.5784
   9466664.00543   7537433.44145  25899277.5194   25899295.8634
     -4363.2034
  15882313.29645  12132575.88045  24845847.3484   24845857.2304
     -5950.8594
   7320522.09648   5703249.21947  22039799.5984   22039805.5984
     -3248.8444
   2727098.83148   2125260.62947  21937090.3874   21937095.7544
     -1693.3754
  12525945.37645   9749857.90745  24312516.7934   24312524.6844
     -5218.8594
   -766125.73744   -549670.48745  25426202.4184   25426212.3714
       713.3444
 01 10  2  1  8 15.0040000  0 10G 7G 2G11G 8G10G13G27G28G31G26
  -1527203.00045  -1737905.37045  24726265.4104   24726278.2694
      1123.4534
   1679807.81148   1312163.48646  22876445.5434   22876452.0474
     -1156.1874
     70424.18943     60756.57345  25760944.5664   25760956.2664
      -238.0004
   3638737.03548   2831004.03347  21259027.0204   21259033.0314
     -1978.8124
   9532154.50843   7588464.82645  25911739.7774   25911760.1254
     -4368.8914
  15971603.55045  12202152.56445  24862839.9024   24862848.1334
     -5954.5314
   7369309.28248   5741265.21647  22049083.5594   22049089.6174
     -3256.1564
   2752548.58348   2145091.62947  21941933.1994   21941938.6844
     -1699.9694
  12604285.17745   9810901.92345  24327423.8404   24327432.2934
     -5226.5004
   -776780.07744   -557972.49045  25424174.6604   25424186.1134
       707.1724
 01 10  2  1  8 30.0040000  0 10G 7G 2G11G 8G10G13G27G28G31G26
  -1544026.12145  -1751014.11345  24723064.1684   24723078.7154
      1119.7034
   1697187.77048   1325706.35046  22879752.6914   22879759.0784
     -1161.0624
     74029.23743     63565.88245  25761629.8944   25761644.2544
      -242.6254
   3668473.55948   2854175.36847  21264685.7934   21264691.7464
     -1985.9844
   9597730.39944   7639562.85145  25924218.3244   25924234.5004
     -4374.4694
  16060949.22045  12271772.50845  24879840.7234   24879851.1914
     -5958.1414
   7418206.51148   5779366.96147  22058388.3874   22058394.4454
     -3263.4064
   2778097.65848   2165000.01647  21946795.1054   21946800.7774
     -1706.5004
  12682739.81545   9872035.43245  24342353.0434   24342361.2974
     -5234.0474
   -787341.43043   -566202.04645  25422164.5594   25422173.1994
       701.0474
 01 10  2  1  8 45.0040000  0 10G 7G 2G11G 8G10G13G27G28G31G26
  -1560792.26345  -1764078.44945  24719873.4024   24719886.1804
      1115.8594
   1714641.54948   1339306.73546  22883074.1604   22883080.4304
     -1166.0164
     77704.87845     66430.18345  25762330.7854   25762342.0274
      -247.3594
   3698318.62848   2877431.28347  21270365.0274   21270371.0744
     -1993.2504
   9663390.79044   7690726.66945  25936714.8014   25936733.5434
     -4380.1094
  16150349.49245  12341434.90845  24896854.6604   24896863.6294
     -5961.7814
   7467213.26148   5817554.04647  22067714.2464   22067720.3284
     -3270.7344
   2803745.29548   2184985.20847  21951675.6914   21951681.1414
     -1713.0784
  12761308.34745   9933257.68945  24357304.4964   24357311.9774
     -5241.6564
   -797809.97343   -574359.28445  25420171.8244   25420178.8834
       694.8444
 01 10  2  1  9  0.0040000  0 10G 7G 2G11G 8G10G13G27G28G31G26
  -1577503.20745  -1777099.81245  24716693.1524   24716706.5514
      1112.2194
   1732167.00948   1352962.97546  22886409.1914   22886415.7664
     -1170.7344
     81449.39145     69348.08545  25763042.9574   25763054.8204
      -251.9224
   3728270.47448   2900770.40247  21276064.6684   21276070.6914
     -2000.3284
   9729133.21043   7741954.46245  25949224.7854   25949240.5164
     -4385.5474
  16239801.90845  12411138.03145  24913877.3244   24913887.6644
     -5965.2034
   7516327.59848   5855824.96647  22077060.1214   22077066.1804
     -3277.8594
   2829489.46648   2205045.62047  21956574.6604   21956580.2974
     -1719.4844
  12839988.44245   9994566.85845  24372276.4734   24372285.2664
     -5249.0314
   -808187.39344   -582445.52545  25418197.5664   25418207.4734
       688.7974
 01 10  2  1  9 15.0040000  0 10G 7G 2G11G 8G10G13G27G28G31G26
  -1594158.37245  -1790077.65145  24713523.1444   24713536.5784
      1108.2344
   1749764.35748   1366675.23346  22889757.7304   22889764.0474
     -1175.8124
     85263.41545     72320.16545  25763770.0044   25763778.5864
      -256.8444
   3758329.26148   2924192.85147  21281784.7234   21281790.7704
     -2007.7504
   9794957.59244   7793246.09745  25961751.2384   25961769.4064
     -4391.2504
  16329306.33845  12480881.65145  24930908.1994   24930920.0984
     -5968.9374
   7565549.78348   5894179.92047  22086426.7624   22086432.7974
     -3285.3284
   2855330.32148   2225181.37347  21961492.1134   21961497.4924
     -1726.2034
  12918779.97545  10055962.84445  24387270.7234   24387278.8834
     -5256.7194
   -818473.14144   -590460.37445  25416241.7154   25416251.7624
       682.3914
 01 10  2  1  9 30.0040000  0 10G 7G 2G11G 8G10G13G27G28G31G26
  -1610753.24445  -1803008.56845  24710365.1914   24710377.8984
      1104.4534
   1767437.82248   1380446.80246  22893120.8244   22893127.3054
     -1180.6414
     89151.56445     75349.91445  25764508.7384   25764515.1374
      -261.5624
   3788499.57948   2947702.20447  21287525.9494   21287531.8794
     -2014.9374
   9860867.77143   7844604.58545  25974292.8874   25974307.7624
     -4396.7344
  16418866.82845  12550668.89845  24947950.7624   24947963.1764
     -5972.4224
   7614884.20848   5932622.33447  22095814.8874   22095820.9454
     -3292.5784
   2881272.11048   2245395.77247  21966428.6684   21966434.1414
     -1732.6874
  12997686.93745  10117448.83645  24402286.1524   24402294.4534
     -5264.1874
   -828662.69944   -598400.26145  25414301.4884   25414310.0354
       676.2194
 01 10  2  1  9 45.0040000  0 10G 7G 2G11G 8G10G13G27G28G31G26
  -1627291.73945  -1815895.52745  24707218.5594   24707231.8984
      1100.7194
   1785183.03648   1394274.28246  22896497.6294   22896504.0984
     -1185.3754
     93109.74343     78434.33745  25765261.3094   25765268.3094
      -266.1874
   3818777.25648   2971295.21347  21293287.5904   21293293.5434
     -2022.0474
   9926859.04943   7896026.24045  25986850.3554   25986868.0904
     -4402.0624
  16508478.78445  12620496.33145  24965001.0824   24965012.9574
     -5975.8284
   7664326.64948   5971148.91547  22105223.5194   22105229.6374
     -3299.7194
   2907310.43748   2265685.39547  21971383.4884   21971388.9844
     -1739.0624
  13076704.72045  10179021.13345  24417321.7694   24417330.0944
     -5271.5164
   -838759.99544   -606268.24945  25412380.8404   25412389.2464
       670.1094
 01 10  2  1 10  0.0040000  0 10G 7G 2G11G 8G10G13G27G28G31G26
  -1643773.07445  -1828737.95145  24704081.5514   24704095.8054
      1096.9694
   1803000.51648   1408158.07046  22899888.1444   22899894.4734
     -1190.1254
     97138.96343     81574.16745  25766027.4024   25766039.2544
      -270.8754
   3849162.95748   2994972.39647  21299069.8484   21299075.9184
     -2029.2034
   9992931.83943   7947511.45045  25999423.2234   25999437.7464
     -4407.4374
  16598142.40445  12690363.91945  24982066.7854   24982077.5124
     -5979.1724
   7713877.67148   6009760.10047  22114652.6994   22114658.8404
     -3306.9224
   2933445.70448   2286050.56147  21976356.8634   21976362.4534
     -1745.4694
  13155833.37045  10240679.82045  24432380.5434   24432387.1414
     -5278.8284
   -848764.09043   -614063.57745  25410476.3554   25410485.0904
       663.9224
 01 10  2  1 10 15.0040000  0 10G 7G 2G11G 8G10G13G27G28G31G26
  -1660197.25545  -1841535.82345  24700956.1684   24700968.8054
      1093.0784
   1820889.94048   1422097.91846  22903292.3404   22903298.5864
     -1194.9844
    101239.38744     84769.45245  25766808.1444   25766819.8324
      -275.7194
   3879656.42148   3018733.54847  21304872.2704   21304878.3054
     -2036.4534
  10059085.39843   7999059.59345  26012012.4494   26012030.8754
     -4412.8754
  16687857.13345  12760271.48045  24999136.7384   24999149.4804
     -5982.6414
   7763537.12348   6048455.78247  22124102.8554   22124108.9374
     -3314.2034
   2959677.55248   2306490.98947  21981348.4024   21981353.8524
     -1751.9694
  13235072.31945  10302424.47045  24447458.6914   24447466.3944
     -5286.2344
   -858674.95943   -621786.26445  25408590.4414   25408598.8944
       657.6564
 01 10  2  1 10 30.0040000  0 10G 7G 2G11G 8G10G13G27G28G31G26
  -1676562.08945  -1854287.48045  24697841.7934   24697855.5784
      1089.0474
   1838853.13148   1436095.25146  22906710.6684   22906717.2074
     -1199.9374
    105413.16945     88021.84745  25767603.5354   25767612.9264
      -280.6564
   3910259.84748   3042580.38947  21310695.9264   21310701.8914
     -2043.8284
  10125321.13543   8050671.75045  26024616.0824   26024632.9844
     -4418.3594
  16777624.51045  12830219.94445  25016219.7854   25016229.3984
     -5986.1874
   7813306.95548   6087237.47247  22133573.5194   22133579.4734
     -3321.6094
   2986007.89848   2327008.16347  21986359.0354   21986364.5784
     -1758.5784
  13314423.06045  10364256.20545  24462558.9344   24462566.9884
     -5293.7034
   -868490.41244   -629434.62745  25406722.9804   25406734.9374
       651.2344
 01 10  2  1 10 45.0040000  0 10G 7G 2G11G 8G10G13G27G28G31G26
  -1692870.96145  -1866995.51145  24694737.5514   24694749.1684
      1085.4064
   1856886.37248   1450147.16947  22910142.3164   22910148.8094
     -1204.5474
    109657.01845     91328.84545  25768410.8164   25768421.6254
      -285.2814
   3940969.57648   3066510.06247  21316539.8484   21316545.7894
     -2050.8594
  10191635.13043   8102344.89345  26037235.3164   26037251.0124
     -4423.5474
  16867440.64345  12900206.41245  25033310.7854   25033319.8944
     -5989.3594
   7863183.62548   6126102.41147  22143064.7934   22143070.7814
     -3328.6874
   3012433.00948   2347599.18247  21991387.5044   21991392.8714
     -1764.8284
  13393881.62645  10426171.98445  24477679.0984   24477686.2034
     -5300.8284
   -878213.74045   -637011.18345  25404873.1994   25404879.5044
       645.1414
 01 10  2  1 11  0.0040000  0 10G 7G 2G11G 8G10G13G27G28G31G26
  -1709124.65245  -1879660.55045  24691645.0824   24691658.0944
      1081.5784
   1874988.47948   1464252.74747  22913586.9104   22913593.1334
     -1209.2664
    113970.15044     94689.82845  25769230.6054   25769239.0594
      -289.9844
   3971784.75648   3090521.90347  21322403.8484   21322409.7664
     -2058.0004
  10258025.80543   8154077.69245  26049869.6764   26049882.0084
     -4428.7504
  16957303.91245  12970229.64845  25050411.7854   25050422.2074
     -5992.6094
   7913166.06048   6165049.76747  22152576.0124   22152582.0124
     -3335.8444
   3038951.57748   2368263.02547  21996433.8634   21996439.3364
     -1771.1724
  13473446.62345  10488170.67845  24492819.9734   24492826.8914
     -5308.0314
   -887845.84644   -644516.72845  25403039.5824   25403046.8284
       638.9064
 01 10  2  1 11 15.0040000  0 10G 7G 2G11G 8G10G13G27G28G31G26
  -1725320.86745  -1892280.82745  24688562.8944   24688575.7074
      1077.7664
   1893161.45848   1478413.54847  22917045.1374   22917051.4304
     -1213.9694
    118354.83945     98106.60945  25770065.7694   25770075.6994
      -294.7974
   4002707.44948   3114617.52547  21328288.1374   21328294.1254
     -2065.1724
  10324494.89043   8205871.81545  26062517.4654   26062536.8754
     -4433.9534
  17047216.31745  13040291.20045  25067520.0354   25067532.4964
     -5995.8754
   7963256.43848   6204081.23047  22162107.9264   22162113.8914
     -3343.0314
   3065565.59148   2389001.24647  22001498.4494   22001503.8984
     -1777.5164
  13553119.77745  10550253.71645  24507980.4344   24507989.1914
     -5315.2194
   -897384.25744   -651949.16445  25401224.0124   25401232.2424
       632.7034
 01 10  2  1 11 30.0040000  0 10G 7G 2G11G 8G10G13G27G28G31G26
  -1741457.92145  -1904855.00545  24685491.6994   24685504.4184
      1073.8914
   1911406.67548   1492630.63947  22920517.0984   22920523.4614
     -1218.6564
    122813.01245    101580.54745  25770913.1994   25770923.4804
      -299.5624
   4033739.26248   3138798.17047  21334193.3094   21334199.3204
     -2072.3444
  10391043.55643   8257727.78744  26075181.6684   26075197.8674
     -4439.1414
  17137178.71745  13110391.63645  25084641.8164   25084653.6564
     -5999.0624
   8013456.23348   6243197.95447  22171660.5904   22171666.6374
     -3350.2034
   3092276.35148   2409814.84847  22006581.2154   22006586.5944
     -1783.8444
  13632902.11645  10612421.77145  24523163.4574   24523172.2504
     -5322.3594
   -906827.34643   -659307.33245  25399427.2544   25399435.2854
       626.4384
 01 10  2  1 11 45.0040000  0 10G 7G 2G11G 8G10G13G27G28G31G26
  -1757538.07545  -1917384.82645  24682431.5824   24682444.1254
      1070.0474
   1929721.41148   1506901.90247  22924002.1684   22924008.5434
     -1223.3914
    127342.21544    105109.91345  25771774.4654   25771784.2894
      -304.4224
   4064877.69248   3163061.89347  21340118.7464   21340124.8524
     -2079.5314
  10457668.79943   8309643.44045  26087858.8874   26087875.3324
     -4444.3124
  17227188.38045  13180528.88945  25101771.2304   25101780.1174
     -6002.2814
   8063762.84748   6282397.91547  22181233.6604   22181239.7424
     -3357.4224
   3119081.11548   2430701.70247  22011681.8634   22011687.3484
     -1790.2034
  13712790.59545  10674672.58745  24538365.6684   24538373.4304
     -5329.5164
   -916177.39843   -666593.06645  25397648.3244   25397658.2774
       620.1414
 01 10  2  1 12  0.0040000  0 10G 7G 2G11G 8G10G13G27G28G31G26
  -1773561.10245  -1929870.13145  24679383.1444   24679395.8284
      1066.4064
   1948105.72748   1521227.38447  22927500.5904   22927507.0354
     -1227.8124
    131943.04045    108695.09045  25772650.7464   25772659.8204
      -309.0004
   4096122.87348   3187408.80647  21346064.5984   21346070.6804
     -2086.4694
  10524370.09543   8361618.25845  26100553.5984   26100565.3674
     -4449.1564
  17317244.86945  13250702.70945  25118906.4264   25118915.9924
     -6005.1874
   8114176.38748   6321681.19447  22190827.0274   22190832.9804
     -3364.3444
   3145980.07848   2451661.95647  22016800.6214   22016806.1414
     -1796.2814
  13792784.88545  10737005.80545  24553587.6444   24553595.6054
     -5336.3444
   -925434.02944   -673805.94445  25395886.8714   25395894.2234
       614.0944
 01 10  2  1 12 15.0040000  0 10G 7G 2G11G 8G10G13G27G28G31G26
  -1789528.16645  -1942311.85845  24676344.7234   24676357.3014
      1062.4844
   1966558.10848   1535605.90547  22931011.8014   22931018.2934
     -1232.5314
    136614.33443    112335.15645  25773538.3874   25773547.2854
      -313.8754
   4127473.48048   3211837.86547  21352030.2304   21352036.2894
     -2093.6724
  10591145.64643   8413651.18945  26113260.7154   26113275.5784
     -4454.2664
  17407346.43445  13320911.56045  25136053.7774   25136066.1804
     -6008.3754
   8164695.43548   6361046.68547  22200440.6684   22200446.6214
     -3371.5624
   3172971.59548   2472694.33547  22021936.9494   22021942.4104
     -1802.6254
  13872883.08445  10799419.97945  24568830.3324   24568838.4104
     -5343.4374
   -934598.31544   -680946.88745  25394142.1054   25394151.7304
       607.7504
 01 10  2  1 12 30.0040000  0 10G 7G 2G11G 8G10G13G27G28G31G26
  -1805437.55345  -1954708.62445  24673317.1524   24673330.3634
      1058.7504
   1985079.75448   1550038.39347  22934536.3874   22934542.8914
     -1237.0314
    141357.69144    116031.43245  25774442.0194   25774452.3944
      -318.5784
   4158930.97948   3236350.22047  21358016.4964   21358022.4494
     -2100.6874
  10657996.46043   8465742.62645  26125981.9414   26125998.4104
     -4459.1724
  17497493.98944  13391156.40445  25153205.8794   25153216.9454
     -6011.3284
   8215321.33248   6400495.44247  22210074.1684   22210080.3094
     -3378.5784
   3200056.84648   2493799.75047  22027091.0194   22027096.5044
     -1808.7504
  13953086.21645  10861915.96345  24584092.2694   24584099.7974
     -5350.3124
   -943668.68344   -688014.60945  25392416.8244   25392424.3164
       601.5944
 01 10  2  1 12 45.0040000  0 10G 7G 2G11G 8G10G13G27G28G31G26
  -1821292.38045  -1967062.85545  24670299.8714   24670310.9964
      1055.1564
   2003667.38848   1564522.30647  22938073.4734   22938079.8834
     -1241.3754
    146170.29744    119781.64045  25775356.8634   25775368.9614
      -323.1414
   4190492.25448   3260943.44047  21364022.4494   21364028.4144
     -2107.5474
  10724918.92243   8517889.89145  26138717.4734   26138736.0164
     -4463.8754
  17587684.05945  13461434.16945  25170371.6764   25170382.0274
     -6014.0784
   8266050.93748   6440025.00947  22219727.8244   22219733.9774
     -3385.4374
   3227232.48148   2514975.59347  22032262.3874   22032267.9304
     -1814.7194
  14033390.73245  10924490.89445  24599373.6134   24599381.4574
     -5357.0004
   -952648.12144   -695011.50545  25390707.6134   25390716.2774
       595.5944
 01 10  2  1 13  0.0040000  0 10G 7G 2G11G 8G10G13G27G28G31G26
  -1837090.75445  -1979373.12245  24667293.0434   24667305.1524
      1051.3284
   2022322.44248   1579058.74747  22941623.4344   22941629.5864
     -1245.9224
    151053.90945    123587.16445  25776287.3554   25776295.9614
      -327.9694
   4222158.98448   3285618.83347  21370048.3484   21370054.2544
     -2114.6564
  10791914.11643   8570093.85345  26151464.7304   26151479.6524
     -4468.7814
  17677917.82444  13531746.12745  25187541.0984   25187550.1954
     -6017.0314
   8316885.83048   6479636.62147  22229401.1054   22229407.2464
     -3392.5164
   3254499.95148   2536222.99747  22037451.0824   22037456.4734
     -1820.8914
  14113797.72045  10987145.70945  24614673.8324   24614681.0194
     -5363.8754
   -961534.65844   -701936.04745  25389016.0354   25389025.0514
       589.2974
 01 10  2  1 13 15.0040000  0 10G 7G 2G11G 8G10G13G27G28G31G26
  -1852831.84945  -1991638.78245  24664297.6524   24664308.2854
      1047.3594
   2041045.37348   1593648.08547  22945186.1374   22945192.5004
     -1250.5944
    156009.43845    127448.69445  25777229.6844   25777239.3914
      -332.9064
   4253931.77748   3310376.87547  21376094.4884   21376100.5124
     -2121.8594
  10858982.28543   8622354.66945  26164227.2234   26164242.0514
     -4473.7974
  17768195.49545  13602092.23645  25204720.9494   25204731.7694
     -6020.1094
   8367826.62448   6519330.75546  22239094.9414   22239101.0354
     -3399.7194
   3281859.70348   2557542.30547  22042657.5664   22042663.0514
     -1827.1874
  14194307.48145  11049880.62245  24629995.1134   24630003.3794
     -5370.8594
   -970327.58544   -708787.60945  25387342.7854   25387353.1254
       582.9064
 01 10  2  1 13 30.0040000  0 10G 7G 2G11G 8G10G13G27G28G31G26
  -1868513.14045  -2003857.80345  24661313.2384   24661325.2774
      1043.6094
   2059838.41048   1608292.05347  22948762.2384   22948768.7894
     -1255.0314
    161039.60344    131368.47345  25778186.6524   25778196.4184
      -337.6564
   4285813.02348   3335219.42647  21382161.2934   21382167.2814
     -2128.8754
  10926125.30843   8674673.72945  26177005.8244   26177024.1214
     -4478.5004
  17858519.12444  13672474.16245  25221907.5274   25221918.0314
     -6022.9374
   8418875.63048   6559109.20846  22248809.4184   22248815.5354
     -3406.7034
   3309313.98748   2578935.28247  22047881.8714   22047887.3674
     -1833.2664
  14274921.78345  11112696.97745  24645335.3404   24645343.5124
     -5377.5944
   -979024.29744   -715564.18445  25385687.5824   25385697.3014
       576.7344
 01 10  2  1 13 45.0040000  0 10G 7G 2G11G 8G10G13G27G28G31G26
  -1884139.44845  -2016033.99745  24658339.4964   24658351.2424
      1039.7974
   2078696.49548   1622986.70247  22952350.7154   22952357.1134
     -1259.4844
    166139.68643    135342.58945  25779156.9184   25779166.3554
      -342.4694
   4317797.81748   3360142.66247  21388247.7624   21388253.7854
     -2135.8914
  10993337.81443   8727047.05545  26189795.7774   26189810.6524
     -4483.2664
  17948883.21245  13742887.60345  25239104.1524   25239117.3404
     -6025.7344
   8470027.90148   6598968.12846  22258543.2544   22258549.2664
     -3413.7194
   3336857.59048   2600397.85547  22053123.3244   22053128.7624
     -1839.3284
  14355635.36445  11175590.67645  24660694.4184   24660702.1804
     -5384.3284
   -987629.35544   -722269.34345  25384051.2694   25384062.1374
       570.5164
 01 10  2  1 14  0.0040000  0 10G 7G 2G11G 8G10G13G27G28G31G26
  -1899706.89545  -2028164.33345  24655377.4734   24655388.4344
      1036.0164
   2097622.91648   1637734.60347  22955952.4804   22955958.6684
     -1263.8914
    171313.40643    139374.22245  25780141.1524   25780149.5124
      -347.2344
   4349889.71148   3385149.35447  21394354.5824   21394360.6054
     -2142.8914
  11060622.88643   8779476.87145  26202598.9024   26202614.2344
     -4487.9374
  18039290.99845  13813335.20345  25256307.7544   25256320.1214
     -6028.5004
   8521286.89648   6638910.20646  22268297.4884   22268303.6054
     -3420.6724
   3364493.90248   2621932.67347  22058382.2544   22058387.6444
     -1845.3754
  14436451.22445  11238564.06245  24676073.8014   24676080.9654
     -5390.9844
   -996139.19544   -728900.32945  25382431.1134   25382439.0274
       564.2814
 01 10  2  1 14 15.0040000  0 10G 7G 2G11G 8G10G13G27G28G31G26
  -1915214.89545  -2040248.34145  24652426.2464   24652439.1524
      1031.9534
   2116618.03948   1652536.04047  22959567.0434   22959573.3244
     -1268.5474
    176561.53644    143463.79145  25781140.0824   25781150.6804
      -352.2664
   4382089.29348   3410239.96447  21400482.0274   21400487.9924
     -2150.1414
  11127980.41443   8831963.18145  26215416.9184   26215431.8164
     -4492.8124
  18129742.50545  13883816.68945  25273521.8094   25273531.7384
     -6031.4694
   8572653.08748   6678935.82346  22278072.2544   22278078.1604
     -3427.9064
   3392223.19548   2643539.93747  22063658.9344   22063664.2894
     -1851.6414
  14517369.40345  11301617.20445  24691471.1764   24691479.3484
     -5397.8754
  -1004553.00944   -735456.46945  25380829.8794   25380838.3674
       557.8284
 01 10  2  1 14 30.0040000  0 10G 7G 2G11G 8G10G13G27G28G31G26
  -1930665.64945  -2052287.73845  24649486.2934   24649498.5434
      1028.1094
   2135679.30348   1667389.00747  22963194.3484   22963200.6054
     -1272.9844
    181881.85643    147609.66645  25782152.1214   25782163.2814
      -357.1094
   4414394.15248   3435412.60147  21406629.3714   21406635.4184
     -2157.2034
  11195407.61343   8884503.72245  26228247.5124   26228262.6804
     -4497.4844
  18220234.92445  13954330.26345  25290739.4654   25290752.2074
     -6034.2194
   8624124.04948   6719043.07646  22287866.7544   22287872.8124
     -3434.9224
   3420042.95748   2665217.69847  22068952.9344   22068958.2074
     -1857.6874
  14598387.15845  11364747.95145  24706888.8554   24706897.2974
     -5404.5314
  -1012873.05044   -741939.53245  25379246.7854   25379254.9804
       551.5004
 01 10  2  1 14 45.0040000  0 10G 7G 2G11G 8G10G13G27G28G31G26
  -1946059.08645  -2064282.47645  24646556.8244   24646567.8914
      1024.3134
   2154806.41148   1682293.28447  22966833.9574   22966840.1804
     -1277.3124
    187274.42945    151811.83845  25783180.2464   25783189.6954
      -361.9224
   4446804.16748   3460667.18347  21412796.8554   21412802.8324
     -2164.1414
  11262903.81743   8937098.07745  26241092.1914   26241109.0004
     -4502.0164
  18310767.62345  14024875.01545  25307970.0434   25307982.1294
     -6036.8284
   8675699.56248   6759231.79546  22297681.1684   22297687.2624
     -3441.8284
   3447952.85448   2686965.69847  22074264.0744   22074269.4774
     -1863.6414
  14679503.81745  11427955.72745  24722324.7774   24722332.1414
     -5411.0474
  -1021099.15844   -748349.40045  25377681.3484   25377688.4414
       545.2974
 01 10  2  1 15  0.0040000  0 10G 7G 2G11G 8G10G13G27G28G31G26
  -1961397.10345  -2076234.03845  24643637.6214   24643649.6254
      1020.7814
   2173997.19448   1697247.17847  22970485.9344   22970492.1334
     -1281.4064
    192737.63944    156068.92745  25784219.0824   25784227.1374
      -366.4694
   4479317.31648   3486002.13147  21418983.8404   21418989.8164
     -2170.8754
  11330466.57643   8989744.23745  26253950.2774   26253966.6994
     -4506.2664
  18401338.26645  14095449.45845  25325204.1914   25325216.7464
     -6039.1874
   8727377.59448   6799500.40546  22307515.2074   22307521.2894
     -3448.5164
   3475950.68448   2708782.21247  22079591.8014   22079597.2034
     -1869.3444
  14760716.92745  11491238.69045  24737779.1684   24737786.6954
     -5417.3124
  -1029233.18744   -754687.50545  25376133.4024   25376141.9374
       539.2974
 01 10  2  1 15 15.0040000  0 10G 7G 2G11G 8G10G13G27G28G31G26
  -1976678.56745  -2088141.53745  24640729.2774   24640741.3754
      1016.8754
   2193252.46448   1712251.32347  22974149.9734   22974156.2774
     -1285.8124
    198272.67744    160382.13445  25785271.7234   25785280.5394
      -371.3754
   4511934.70948   3511418.30847  21425190.6214   21425196.6564
     -2177.9374
  11398096.48243   9042442.71445  26266818.6214   26266834.4104
     -4510.8754
  18491947.37645  14166053.87145  25342446.2854   25342457.8914
     -6041.8754
   8779159.12448   6839849.65846  22317369.0194   22317374.9964
     -3455.5314
   3504037.27348   2730667.89047  22084936.4264   22084941.8754
     -1875.3754
  14842027.07945  11554597.25145  24753251.4264   24753259.4924
     -5423.8914
  -1037273.87745   -760952.91445  25374604.0044   25374612.5984
       532.9384
 01 10  2  1 15 30.0040000  0 10G 7G 2G11G 8G10G13G27G28G31G26
  -1991903.50145  -2100004.98545  24637832.1374   24637844.7384
      1012.9694
   2212571.76048   1727305.35847  22977826.3164   22977832.6444
     -1290.2194
    203879.46144    164751.18745  25786338.7384   25786344.5164
      -376.3284
   4544656.00048   3536915.44347  21431417.3164   21431423.1874
     -2185.0164
  11465792.60343   9095192.88545  26279701.6914   26279716.7304
     -4515.4064
  18582594.26045  14236687.70645  25359695.4184   25359706.4374
     -6044.5314
   8831043.71048   6880279.22246  22327242.3794   22327248.4494
     -3462.5474
   3532211.94648   2752622.20847  22090298.0354   22090303.4734
     -1881.3914
  14923433.37545  11618030.73045  24768743.2774   24768751.6724
     -5430.4064
  -1045221.47244   -767145.80045  25373091.1294   25373100.5084
       526.6094
 01 10  2  1 15 45.0040000  0 10G 7G 2G11G 8G10G13G27G28G31G26
  -2007069.85445  -2111822.76845  24634946.3094   24634958.3714
      1009.0634
   2231956.83048   1742410.64347  22981515.2074   22981521.2424
     -1294.5944
    209560.02744    169177.68245  25787419.0904   25787429.7464
      -381.2344
   4577483.04648   3562494.98647  21437664.1294   21437670.0234
     -2192.0944
  11533556.50043   9147995.86745  26292596.2304   26292613.5084
     -4519.9064
  18673280.33845  14307352.01545  25376953.9964   25376962.5554
     -6047.1094
   8883033.26248   6920790.56746  22337135.5664   22337141.4964
     -3469.5314
   3560476.64248   2774646.67547  22095676.2234   22095681.5554
     -1887.3754
  15004937.35145  11681540.32845  24784252.5904   24784261.3124
     -5436.9224
  -1053073.74644   -773264.30845  25371596.0354   25371604.7694
       520.2504
 01 10  2  1 16  0.0040000  0 10G 7G 2G11G 8G10G13G27G28G31G26
  -2022177.20345  -2123594.60845  24632071.4264   24632082.7274
      1005.3444
   2251407.71248   1757567.21147  22985216.4344   22985222.4804
     -1298.7504
    215314.95345    173662.26045  25788515.3874   25788523.9804
      -386.0004
   4610416.27848   3588157.26947  21443931.1374   21443937.1844
     -2198.9224
  11601387.87443   9200851.30245  26305503.4654   26305519.2894
     -4524.1564
  18764005.49545  14378046.88445  25394217.2854   25394228.8324
     -6049.4694
   8935127.94148   6961383.83846  22347048.7934   22347054.7464
     -3476.3124
   3588831.36448   2796741.28847  22101072.2304   22101077.7974
     -1893.1414
  15086538.83545  11745125.89745  24799781.0044   24799787.8634
     -5443.1564
  -1060830.31044   -779308.29645  25370119.9414   25370129.9184
       514.0784
 01 10  2  1 16 15.0040000  0 10G 7G 2G11G 8G10G13G27G28G31G26
  -2037226.46445  -2135321.15045  24629207.4884   24629220.4184
      1001.2814
   2270923.16148   1772774.08547  22988930.2544   22988936.3484
     -1303.2194
    221143.33544    178203.98245  25789623.4654   25789632.9964
      -391.0624
   4643454.55348   3613901.40647  21450218.1914   21450224.1684
     -2206.0944
  11669285.09043   9253758.16645  26318424.4024   26318443.9184
     -4528.7034
  18854768.15345  14448770.88745  25411490.9264   25411498.8754
     -6052.1254
   8987326.57248   7002058.10846  22356981.9734   22356987.9844
     -3483.4224
   3617274.65248   2818904.91547  22106484.7074   22106490.2154
     -1899.2194
  15168236.17145  11808786.18745  24815327.3944   24815335.1914
     -5449.7194
  -1068491.91445   -785278.30845  25368662.5594   25368672.1844
       507.5784
 01 10  2  1 16 30.0040000  0 10G 7G 2G11G 8G10G13G27G28G31G26
  -2052218.36845  -2147003.00045  24626354.4344   24626367.2114
       997.3594
   2290502.25548   1788030.55547  22992655.9024   22992661.9374
     -1307.5624
    227044.47943    182802.47245  25790746.0594   25790757.3714
      -396.0314
   4676596.90548   3639726.64447  21456524.8954   21456530.9534
     -2213.1414
  11737246.93043   9306715.25945  26331357.8874   26331374.7304
     -4533.1094
  18945567.08244  14519523.26945  25428766.4184   25428780.4844
     -6054.6414
   9039628.32448   7042812.73146  22366934.5274   22366940.4804
     -3490.4064
   3645805.69648   2841136.92947  22111914.0354   22111919.3554
     -1905.1724
  15250028.03545  11872520.08445  24830892.2694   24830899.3984
     -5456.1094
  -1076059.33345   -791174.93545  25367222.7154   25367231.2854
       501.1564
 01 10  2  1 16 45.0040000  0 10G 7G 2G11G 8G10G13G27G28G31G26
  -2067149.36445  -2158637.39745  24623513.2774   24623526.2894
       993.5164
   2310148.05048   1803339.00747  22996394.3324   22996400.4844
     -1311.7814
    233022.13244    187460.41645  25791884.1444   25791892.2934
      -400.9064
   4709846.82048   3665635.69547  21462851.9804   21462857.9574
     -2220.0944
  11805276.12643   9359724.96445  26344302.1294   26344319.1724
     -4537.3914
  19036404.95845  14590305.86145  25446053.5194   25446065.3714
     -6057.0004
   9092036.45048   7083650.24146  22376907.4734   22376913.4494
     -3497.2664
   3674427.48748   2863439.65547  22117360.5124   22117365.8794
     -1910.9844
  15331917.17845  11936329.79945  24846475.0124   24846481.4694
     -5462.3594
  -1083528.96845   -796995.33145  25365800.8874   25365809.3634
       494.8914
 01 10  2  1 17  0.0040000  0 10G 7G 2G11G 8G10G13G27G28G31G26
  -2082024.07245  -2170227.93845  24620682.1764   24620694.7544
       989.5314
   2329855.59548   1818695.56947  23000144.5044   23000150.7734
     -1316.1254
    239071.67443    192174.49045  25793033.0594   25793043.0004
      -405.9374
   4743199.54248   3691624.85947  21469198.8404   21469204.7814
     -2227.1724
  11873367.48144   9412783.01845  26357261.8404   26357279.8094
     -4541.6874
  19127276.92745  14661115.09545  25463347.6214   25463356.7074
     -6059.4694
   9144546.15248   7124566.90446  22386899.7154   22386905.8094
     -3504.2664
   3703135.12748   2885809.27347  22122823.2774   22122828.7274
     -1916.9374
  15413898.51045  12000211.37345  24862075.0354   24862083.1724
     -5468.7034
  -1090905.40044   -802743.11945  25364396.8484   25364404.4924
       488.4224
 01 10  2  1 17 15.0040000  0 10G 7G 2G11G 8G10G13G27G28G31G26
  -2096839.97445  -2181772.64545  24617862.2384   24617874.7934
       985.8594
   2349627.05448   1834101.93047  23003906.9654   23003913.1994
     -1320.1254
    245195.61845    196946.62545  25794201.3324   25794209.2814
      -410.6724
   4776657.37548   3717695.92547  21475565.6134   21475571.5554
     -2233.9224
  11941522.82444   9465891.02045  26370230.7694   26370247.0864
     -4545.7194
  19218184.74645  14731952.21645  25480645.7854   25480659.8404
     -6061.6094
   9197159.67248   7165564.46146  22396911.6214   22396917.7274
     -3510.9374
   3731930.66148   2908247.38547  22128302.9734   22128308.2694
     -1922.5314
  15495973.79145  12064166.15245  24877694.4184   24877703.3984
     -5474.7194
  -1098186.10244   -808416.31845  25363011.6294   25363020.1994
       482.2664
 01 10  2  1 17 30.0040000  0 10G 7G 2G11G 8G10G13G27G28G31G26
  -2111597.30845  -2193271.72045  24615053.8944   24615066.2384
       981.6414
   2369461.85448   1849557.65647  23007681.4494   23007687.5904
     -1324.6564
    251393.86045    201776.38945  25795380.4344   25795388.9104
      -415.9224
   4810219.91448   3743848.57747  21481952.2774   21481958.3244
     -2241.2194
  12009741.24944   9519048.03945  26383212.3094   26383230.3364
     -4550.2344
  19309127.45445  14802816.63545  25497950.2774   25497961.7304
     -6064.2344
   9249876.57248   7206642.57446  22406943.2854   22406949.2154
     -3518.1254
   3760813.52948   2930753.54547  22133799.2074   22133804.5044
     -1928.6564
  15578142.16045  12128193.46445  24893329.1054   24893335.6684
     -5481.2194
  -1105371.25444   -814014.99745  25361644.3944   25361654.8054
       475.5944
 01 10  2  1 17 45.0040000  0 10G 7G 2G11G 8G10G13G27G28G31G26
  -2126292.83045  -2204722.63945  24612257.6914   24612269.4494
       977.6724
   2389362.87548   1865064.98047  23011468.4654   23011474.5704
     -1328.9064
    257669.50543    206666.74945  25796572.3244   25796586.0624
      -420.9374
   4843890.25748   3770085.23247  21488359.5824   21488365.5704
     -2248.2504
  12078025.45043   9572256.40045  26396205.7854   26396221.9024
     -4554.4374
  19400107.92045  14873710.30645  25515264.6374   25515277.4144
     -6066.5944
   9302699.85248   7247803.58146  22416995.5274   22417001.5514
     -3525.0624
   3789786.51148   2953329.92547  22139312.5434   22139317.8754
     -1934.5004
  15660406.25145  12192295.34845  24908984.4574   24908992.5824
     -5487.4224
  -1112457.64445   -819536.81245  25360295.9804   25360304.7624
       469.1564
 01 10  2  1 18  0.0050000  0 10G 7G 2G11G 8G10G13G27G28G31G26
  -2140931.17346  -2216128.97945  24609471.9854   24609483.3564
       974.0164
   2409327.42548   1880621.80647  23015267.4234   23015273.6344
     -1332.8284
    264019.64745    211615.03745  25797781.8294   25797790.0134
      -425.6564
   4877666.74948   3796404.60347  21494787.0174   21494792.9704
     -2254.9534
  12146375.42344   9625516.02845  26409213.1184   26409229.1184
     -4558.2504
  19491127.79045  14944634.80445  25532584.8604   25532599.0794
     -6068.5624
   9355629.11948   7289047.17346  22427067.3994   22427073.3534
     -3531.6724
   3818847.63448   2975974.99147  22144842.6184   22144847.9504
     -1940.0164
  15742767.15345  12256472.71245  24924656.8924   24924664.8294
     -5493.2664
  -1119449.43945   -824984.86645  25358965.3214   25358975.1344
       463.0314
 01 10  2  1 18 15.0050000  0 10G 7G 2G11G 8G10G13G27G28G31G26
  -2155513.42746  -2227491.64045  24606697.3534   24606708.0444
       970.0164
   2429349.54448   1896223.49447  23019077.4784   23019083.5714
     -1337.0474
    270440.32143    216618.22145  25799001.5714   25799012.8954
      -430.7034
   4911541.90648   3822800.85147  21501233.1814   21501239.2284
     -2261.9844
  12214778.45743   9678816.93145  26422229.8994   26422250.3644
     -4562.3914
  19582171.41445  15015577.71745  25549911.3844   25549924.0324
     -6070.8284
   9408654.10848   7330365.35246  22437157.7674   22437163.6964
     -3538.5944
   3847989.71548   2998683.13247  22150388.1034   22150393.3994
     -1945.8444
  15825210.49345  12320714.30145  24940345.2984   24940353.3174
     -5499.4224
  -1126348.51245   -830360.71245  25357652.1184   25357661.9194
       456.5634
 01 10  2  1 18 30.0050000  0 10G 7G 2G11G 8G10G13G27G28G31G26
  -2170035.46746  -2238807.35145  24603933.5484   24603945.0364
       966.4534
   2449435.36248   1911874.82047  23022899.5564   23022905.7084
     -1340.8594
    276937.13845    221680.86345  25800240.7124   25800250.9934
      -435.3444
   4945522.88048   3849279.55547  21507699.5794   21507705.5914
     -2268.5944
  12283243.60243   9732166.34645  26435256.6654   26435277.3214
     -4566.0944
  19673249.38044  15086547.50945  25567240.8064   25567252.2004
     -6072.6874
   9461783.24348   7371764.68346  22447267.8064   22447273.8064
     -3545.0944
   3877219.39548   3021459.53547  22155950.2354   22155955.4274
     -1951.2504
  15907746.14045  12385027.77045  24956051.8924   24956060.4274
     -5505.1254
  -1133150.26344   -835660.67445  25356357.5174   25356367.3644
       450.5164
 01 10  2  1 18 45.0050000  0 10G 7G 2G11G 8G10G13G27G28G31G26
  -2184501.38846  -2250079.35145  24601180.7984   24601191.7944
       962.3134
   2469580.35448   1927572.24747  23026733.0094   23026739.0674
     -1345.1874
    283506.12745    226799.64045  25801489.8064   25801498.3414
      -440.5624
   4979605.19348   3875837.22147  21514185.1034   21514191.0444
     -2275.7504
  12351766.10544   9785560.32745  26448297.9784   26448315.3024
     -4570.2974
  19764356.74645  15157540.07345  25584577.8764   25584591.8024
     -6075.0314
   9515012.01348   7413241.66046  22457397.0634   22457403.1344
     -3552.1254
   3906532.04948   3044300.59547  22161528.3294   22161533.6264
     -1957.1564
  15990369.21445  12449409.41745  24971774.4704   24971782.7704
     -5511.3284
  -1139858.88145   -840888.04145  25355081.1654   25355089.2434
       443.9224
 01 10  2  1 19  0.0050000  0 10G 7G 2G11G 8G10G13G27G28G31G26
  -2198904.63146  -2261302.50446  24598439.1424   24598450.5834
       958.2344
   2489790.85848   1943320.72947  23030579.1344   23030585.4034
     -1349.4224
    290153.83343    231979.82845  25802753.6184   25802762.5634
      -445.6874
   5013795.46548   3902479.01347  21520691.3294   21520697.2824
     -2282.8284
  12420352.04044   9839003.77645  26461349.4074   26461367.0714
     -4574.3754
  19855499.86345  15228560.60145  25601924.0794   25601935.4854
     -6077.2504
   9568346.92748   7454801.33646  22467546.3294   22467552.2824
     -3559.0784
   3935934.00148   3067211.23847  22167123.3604   22167128.5524
     -1962.9844
  16073085.72945  12513863.84845  24987514.3064   24987520.6814
     -5517.4064
  -1146467.58345   -846037.64045  25353823.7984   25353830.9974
       437.3594
 01 10  2  1 19 15.0050000  0 10G 7G 2G11G 8G10G13G27G28G31G26
  -2213251.93746  -2272482.08045  24595709.4704   24595721.9664
       954.6724
   2510059.74048   1959114.70747  23034436.0324   23034442.2084
     -1353.1564
    296873.79945    237216.24145  25804035.0634   25804044.4894
      -450.3594
   5048086.70748   3929199.48247  21527216.8064   21527222.7244
     -2289.4064
  12488993.81243   9892490.78045  26474409.7744   26474430.0284
     -4577.9374
  19946671.15844  15299603.06445  25619271.1264   25619283.2124
     -6078.9844
   9621780.99548   7496438.27646  22477714.5324   22477720.6614
     -3565.5314
   3965418.16448   3090185.93847  22172733.9464   22172739.1734
     -1968.2974
  16155888.40045  12578385.43945  25003270.9234   25003279.5754
     -5523.0004
  -1152983.12045   -851114.60845  25352583.3294   25352591.3134
       431.3284
 01 10  2  1 19 30.0050000  0 10G 7G 2G11G 8G10G13G27G28G31G26
  -2227541.62946  -2283616.75945  24592989.2744   24593000.1184
       950.5634
   2530388.21248   1974955.11047  23038304.3134   23038310.3374
     -1357.3914
    303667.45144    242510.11745  25805325.5484   25805334.4934
      -455.5314
   5082480.38348   3955999.76847  21533761.5714   21533767.5714
     -2296.5004
  12557692.52645   9946022.08945  26487484.9384   26487501.3024
     -4581.9844
  20037871.66145  15370668.24445  25636627.3924   25636640.8724
     -6081.1724
   9675315.48948   7538153.47246  22487901.7044   22487907.6814
     -3572.5004
   3994985.66348   3113225.57347  22178360.3294   22178365.5674
     -1974.1094
  16238778.12245  12642974.78345  25019045.4544   25019054.0244
     -5529.0314
  -1159403.97145   -856117.79945  25351361.5564   25351371.0174
       424.7344
 01 10  2  1 19 45.0050000  0 10G 7G 2G11G 8G10G13G27G28G31G26
  -2241772.28346  -2294705.41945  24590281.9384   24590293.3104
       946.7034
   2550777.58148   1990842.96947  23042184.2984   23042190.2514
     -1361.3444
    310536.38445    247862.68645  25806633.3064   25806640.0324
      -460.4694
   5116977.93548   3982881.00047  21540326.1654   21540332.0714
     -2303.3284
  12626449.03144   9999598.48445  26500567.9544   26500586.1574
     -4585.7194
  20129102.33145  15441757.03245  25653988.5174   25653998.2824
     -6083.0624
   9728951.81648   7579948.02246  22498108.3454   22498114.4854
     -3579.1724
   4024637.67548   3136331.06347  22184003.0244   22184008.4154
     -1979.6414
  16321755.87845  12707632.81745  25034835.3454   25034841.1104
     -5534.7974
  -1165728.43545   -861045.83645  25350158.0404   25350164.3334
       418.4064
 01 10  2  1 20  0.0050000  0 10G 7G 2G11G 8G10G13G27G28G31G26
  -2255946.10746  -2305749.81145  24587584.5794   24587595.5994
       942.8594
   2571225.18248   2006776.20247  23046075.1574   23046081.2634
     -1365.2664
    317478.41044    253272.11345  25807953.1814   25807964.0954
      -465.3914
   5151576.89348   4009841.25147  21546910.1344   21546916.1814
     -2310.1414
  12695260.24544  10053217.53445  26513661.4384   26513679.0324
     -4589.3914
  20220360.42545  15512867.07445  25671354.2044   25671364.1344
     -6084.9064
   9782687.45848   7621819.95846  22508334.1264   22508340.0914
     -3585.8444
   4054371.57248   3159500.36347  22189661.1264   22189666.3534
     -1985.1564
  16404818.61545  12772357.01245  25050641.5324   25050649.6104
     -5540.4844
  -1171958.80645   -865900.60745  25348972.6734   25348979.9074
       412.0474
 01 10  2  1 20 15.0050000  0 10G 7G 2G11G 8G10G13G27G28G31G26
  -2270058.12746  -2316746.04745  24584899.3374   24584911.3884
       938.7344
   2591735.52848   2022758.31947  23049978.2434   23049984.3604
     -1369.4374
    324498.38944    258742.38845  25809289.2674   25809296.7944
      -470.5944
   5186281.95848   4036884.17747  21553514.3294   21553520.2594
     -2317.2034
  12764130.35645  10106882.37045  26526769.2204   26526787.6224
     -4593.2814
  20311650.04945  15584001.71445  25688726.8604   25688737.9384
     -6087.0004
   9836527.03247   7663772.87946  22518579.2594   22518585.3414
     -3592.7664
   4084192.03048   3182737.10747  22195335.8534   22195341.1964
     -1990.9064
  16487970.68245  12837150.80945  25066464.4074   25066473.6104
     -5546.4224
  -1178090.19145   -870678.25145  25347804.5874   25347812.7124
       405.4384
 01 10  2  1 20 30.0050000  0 10G 7G 2G11G 8G10G13G27G28G31G26
  -2284112.27946  -2327697.18445  24582224.8214   24582235.5014
       935.1254
   2612304.51448   2038786.14747  23053892.3764   23053898.6454
     -1373.1094
    331592.82144    264270.67345  25810639.8454   25810648.9664
      -475.3284
   5221089.28148   4064006.78947  21560137.9464   21560143.9584
     -2323.7974
  12833055.21444  10160590.01845  26539884.5874   26539900.0134
     -4596.7034
  20402966.80344  15655157.54345  25706101.9234   25706110.3884
     -6088.5784
   9890466.57648   7705803.70846  22528843.5954   22528849.6654
     -3599.1874
   4114094.78748   3206037.98447  22201026.0014   22201031.3104
     -1996.1414
  16571207.60245  12902010.75245  25082304.0244   25082310.5874
     -5551.8444
  -1184126.24645   -875381.59345  25346656.3684   25346664.3644
       399.3914
 01 10  2  1 20 45.0050000  0 10G 7G 2G11G 8G10G13G27G28G31G26
  -2298110.15745  -2338604.45045  24579560.6734   24579571.9274
       931.2974
   2632930.17948   2054858.13247  23057817.3134   23057823.3134
     -1376.9374
    338759.96443    269855.52845  25812002.2594   25812013.2314
      -480.2504
   5255997.02548   4091207.65247  21566780.7044   21566786.5634
     -2330.5314
  12902032.47744  10214338.35545  26553010.6964   26553028.6424
     -4600.1724
  20494308.54245  15726332.77445  25723485.7824   25723498.1144
     -6090.2664
   9944504.20748   7747910.96146  22539126.6964   22539132.8254
     -3605.7814
   4144077.87048   3229401.45247  22206731.6654   22206736.9854
     -2001.5474
  16654527.17145  12966935.13045  25098159.2824   25098167.0324
     -5557.3914
  -1190068.74745   -880012.03645  25345525.9154   25345535.5284
       393.0004
 01 10  2  1 21  0.0050000  0 10G 7G 2G11G 8G10G13G27G28G31G26
  -2312051.84445  -2349467.93845  24576907.1034   24576917.9584
       927.3914
   2653612.00348   2070973.87947  23061752.8294   23061759.0404
     -1380.8284
    345999.87645    275497.20145  25813382.2674   25813391.0134
      -485.2664
   5291004.81048   4118486.46847  21573442.4314   21573448.3254
     -2337.3594
  12971061.15945  10268126.80845  26566147.0564   26566165.8214
     -4603.7974
  20585674.54945  15797526.91445  25740871.4544   25740884.8764
     -6092.0314
   9998639.52947   7790094.33846  22549428.2284   22549434.3684
     -3612.4534
   4174140.78148   3252827.12147  22212452.4234   22212457.7084
     -2007.0314
  16737928.51845  13031923.15745  25114029.7744   25114037.9814
     -5562.9694
  -1195917.59545   -884569.49045  25344413.2354   25344422.0284
       386.6094
 01 10  2  1 21 15.0050000  0 10G 7G 2G11G 8G10G13G27G28G31G26
  -2325931.31845  -2360282.96745  24574266.1104   24574277.2124
       923.1094
   2674355.67148   2087137.81847  23065700.3064   23065706.3644
     -1385.0784
    353318.59345    281200.17045  25814773.2984   25814782.8994
      -490.6414
   5326118.70648   4145847.96847  21580124.2354   21580130.3064
     -2344.5624
  13040146.87044  10321959.69045  26579293.6104   26579313.6304
     -4607.7034
  20677070.33145  15868744.32445  25758263.8064   25758276.5604
     -6094.1414
  10052878.37047   7832358.37946  22559749.4074   22559755.4544
     -3619.4844
   4204289.17848   3276319.40447  22218189.3294   22218194.6384
     -2012.8284
  16821417.05145  13096979.17245  25129917.0954   25129924.3884
     -5568.9064
  -1201666.74345   -889049.25745  25343318.9464   25343326.3924
       379.8594
 01 10  2  1 21 30.0050000  0 10G 7G 2G11G 8G10G13G27G28G31G26
  -2339748.30845  -2371049.29045  24571636.3294   24571647.1854
       919.2664
   2695161.17048   2103349.93147  23069659.3214   23069665.4274
     -1388.8754
    360716.43845    286964.84545  25816181.6654   25816189.5324
      -495.6254
   5361338.66948   4173292.11847  21586826.5874   21586832.5054
     -2351.3124
  13109289.07444  10375836.64745  26592450.5404   26592468.7084
     -4611.1094
  20768495.45845  15939984.54045  25775661.3454   25775674.2514
     -6095.7664
  10107220.78447   7874703.12946  22570090.7124   22570096.8534
     -3626.0624
   4234522.89448   3299878.17247  22223942.5714   22223947.8564
     -2018.2034
  16904992.45645  13162102.90745  25145820.9074   25145826.9544
     -5574.3594
  -1207316.02245   -893451.25245  25342242.9154   25342249.5364
       373.4844
 01 10  2  1 21 45.0050000  0 10G 7G 2G11G 8G10G13G27G28G31G26
  -2353507.98545  -2381770.96545  24569017.9854   24569028.2314
       915.5004
   2716022.96048   2119605.91047  23073629.2674   23073635.3604
     -1392.5624
    368188.18245    292787.17445  25817602.5404   25817612.1774
      -500.4844
   5396659.41748   4200814.79947  21593547.6574   21593553.7044
     -2357.9694
  13178481.88245  10429752.96645  26605618.5174   26605634.6574
     -4614.4374
  20859944.17445  16011243.17945  25793063.5794   25793077.3644
     -6097.2664
  10161661.35147   7917124.35746  22580450.1344   22580456.1104
     -3632.5314
   4264836.42048   3323499.13247  22229711.0174   22229716.2084
     -2023.4534
  16988648.95645  13227289.79845  25161740.4384   25161747.8374
     -5579.7034
  -1212870.55645   -897779.36945  25341186.6424   25341194.2284
       367.2344
 01 10  2  1 22  0.0050000  0 10G 7G 2G11G 8G10G13G27G28G31G26
  -2367208.31845  -2392446.39245  24566410.2204   24566421.4274
       911.2034
   2736942.84448   2135907.16047  23077610.1494   23077616.3954
     -1396.7664
    375736.08145    298668.71445  25819038.3684   25819043.4194
      -505.9224
   5432082.81148   4228417.46647  21600288.5714   21600294.5244
     -2365.1564
  13247726.81944  10483709.94645  26618793.5404   26618812.5404
     -4618.2504
  20951418.10345  16082521.43345  25810470.6104   25810484.4784
     -6099.2504
  10216201.94847   7959623.53846  22590829.0874   22590835.0754
     -3639.5474
   4295231.56048   3347183.68947  22235494.9384   22235500.0244
     -2029.2344
  17072387.94145  13292540.93945  25177675.4154   25177683.9504
     -5585.5164
  -1218328.08945   -902031.95345  25340147.3924   25340156.9234
       360.4534
 01 10  2  1 22 15.0050000  0 10G 7G 2G11G 8G10G13G27G28G31G26
  -2380850.57745  -2403076.58745  24563814.2674   24563825.4624
       907.7504
   2757919.16548   2152252.38547  23081601.7204   23081607.8254
     -1400.1094
    383358.99545    304608.78345  25820489.3844   25820498.3174
      -510.5164
   5467607.43748   4256099.01747  21607048.7744   21607054.7984
     -2371.5004
  13317021.96344  10537706.04645  26631980.9624   26631997.7244
     -4621.1414
  21042915.15245  16153817.75645  25827880.9464   25827893.5604
     -6100.3754
  10270841.03247   8002199.45746  22601226.5324   22601232.6034
     -3645.7034
   4325706.60748   3370930.50147  22241294.1814   22241299.3024
     -2034.1414
  17156207.48245  13357854.85045  25193625.8604   25193633.8804
     -5590.4534
  -1223690.02545   -906209.95745  25339127.1034   25339136.4354
       354.4534
 01 10  2  1 22 30.0050000  0 10G 7G 2G11G 8G10G13G27G28G31G26
  -2394434.95846  -2413661.66245  24561229.9624   24561241.0524
       903.5004
   2778951.31148   2168641.10947  23085603.9074   23085610.0604
     -1404.2194
    391056.57145    310607.03245  25821955.2044   25821963.3994
      -515.8914
   5503232.85348   4283859.10247  21613828.0174   21613833.9584
     -2378.5944
  13386366.50244  10591740.63545  26645177.6574   26645196.6814
     -4624.7974
  21134434.64745  16225131.44445  25845298.4544   25845310.6344
     -6102.2344
  10325578.06247   8044851.69746  22611642.6104   22611648.5634
     -3652.6094
   4356260.88048   3394739.04947  22247108.5094   22247113.6654
     -2039.7974
  17240106.71145  13423230.91745  25209591.0174   25209599.1064
     -5596.1414
  -1228956.54845   -910313.69145  25338125.3994   25338133.3024
       347.6884
 01 10  2  1 22 45.0050000  0 10G 7G 2G11G 8G10G13G27G28G31G26
  -2407957.36446  -2424198.45945  24558656.4154   24558666.5914
       899.6564
   2800043.15348   2185076.35247  23089617.3844   23089623.4194
     -1407.8914
    398833.07245    316666.74945  25823434.7284   25823442.0914
      -520.8594
   5538963.16648   4311700.92747  21620627.2204   21620633.1734
     -2385.2974
  13455763.78844  10645816.27945  26658381.7284   26658398.8064
     -4628.0164
  21225980.03245  16296465.42445  25862718.4934   25862729.1264
     -6103.6724
  10380416.96547   8087583.32346  22622078.1184   22622084.0364
     -3659.0944
   4386898.19948   3418612.31247  22252938.5714   22252943.6454
     -2045.0314
  17324089.08045  13488671.73445  25225572.4854   25225580.7744
     -5601.3754
  -1234123.53345   -914339.86545  25337141.9074   25337150.3374
       341.3284
 01 10  2  1 23  0.0050000  0 10G 7G 2G11G 8G10G13G27G28G31G26
  -2421422.37546  -2434690.53745  24556094.0564   24556104.4894
       895.6884
   2821189.75748   2201554.27347  23093641.6734   23093647.8254
     -1411.6564
    406683.92545    322784.36845  25824928.9464   25824937.2824
      -525.9224
   5574793.68648   4339620.83647  21627445.4854   21627451.4384
     -2392.1094
  13525208.61744  10699929.05345  26671596.7674   26671613.5754
     -4631.2814
  21317546.35245  16367815.72445  25880143.4464   25880154.8534
     -6105.1564
  10435353.02947   8130390.66446  22632532.0404   22632538.1224
     -3665.7034
   4417613.76048   3442546.54747  22258783.4464   22258788.6964
     -2050.3594
  17408149.57645  13554173.47445  25241567.9154   25241574.8684
     -5606.6874
  -1239195.32745   -918291.81245  25336177.5954   25336187.4544
       334.8754
 01 10  2  1 23 15.0050000  0 10G 7G 2G11G 8G10G13G27G28G31G26
  -2434830.17046  -2445138.02845  24553542.3064   24553553.1964
       891.8594
   2842390.54148   2218074.39947  23097676.0794   23097682.2084
     -1415.2814
    414608.89344    328959.85545  25826435.5794   25826441.5914
      -530.9064
   5610723.76848   4367618.32547  21634282.6264   21634288.5204
     -2398.7664
  13594700.06344  10754078.06145  26684822.1264   26684839.2634
     -4634.4064
  21409132.43845  16439181.34245  25897571.6734   25897585.9504
     -6106.4844
  10490385.71047   8173273.27546  22643004.3924   22643010.4154
     -3672.1724
   4448406.79648   3466541.14547  22264643.0954   22264648.1814
     -2055.5474
  17492287.10945  13619735.17145  25257579.7514   25257585.4354
     -5611.8124
  -1244172.27845   -922169.88145  25335230.0244   25335238.2904
       328.5474
 01 10  2  1 23 30.0050000  0 10G 7G 2G11G 8G10G13G27G28G31G26
  -2448178.36346  -2455539.07045  24551002.1814   24551012.7434
       888.0004
   2863647.64548   2234638.42047  23101721.0794   23101727.0914
     -1418.9064
    422610.64845    335195.11545  25827959.8454   25827965.9274
      -535.9064
   5646755.88248   4395695.32147  21641139.4234   21641145.4114
     -2405.4224
  13664239.92744  10808264.86445  26698053.9234   26698071.1424
     -4637.5314
  21500740.24945  16510563.90245  25915004.1034   25915015.2284
     -6107.8124
  10545517.23347   8216232.91546  22653495.3214   22653501.3564
     -3678.6254
   4479279.42948   3490597.76947  22270517.9544   22270523.0404
     -2060.7194
  17576503.62945  13685358.44245  25273605.0954   25273613.1614
     -5616.9374
  -1249051.91345   -925972.09745  25334301.1184   25334309.7594
       322.1884
 01 10  2  1 23 45.0050000  0 10G 7G 2G11G 8G10G13G27G28G31G26
  -2461466.48146  -2465893.31146  24548473.5794   24548484.3064
       883.7194
   2884961.14348   2251246.37547  23105776.7904   23105782.8494
     -1422.9224
    430689.56345    341490.43145  25829495.3294   25829502.9274
      -541.3284
   5682890.24848   4423851.99447  21648015.6424   21648021.6304
     -2412.5164
  13733828.06244  10862489.24845  26711297.5324   26711316.1924
     -4640.9534
  21592369.69345  16581963.37245  25932440.4074   25932452.7044
     -6109.4844
  10600747.75047   8259269.69146  22664005.5404   22664011.6814
     -3685.4844
   4510231.66848   3514716.42547  22276408.2824   22276413.3924
     -2066.2814
  17660798.91645  13751043.10845  25289645.5014   25289654.5754
     -5622.4534
  -1253833.73445   -929698.13445  25333391.2354   25333398.0674
       315.3914
 01 10  2  1 24  0.0050000  0 10G 7G 2G11G 8G10G13G27G28G31G26
  -2474691.66846  -2476198.51846  24545957.3214   24545968.4354
       879.6414
   2906333.63448   2267900.30547  23109843.9074   23109850.0014
     -1426.7194
    438848.70445    347848.37745  25831049.5324   25831056.3414
      -546.5474
   5719129.56048   4452090.44147  21654911.5954   21654917.6184
     -2419.3754
  13803466.69244  10916752.98445  26724548.0324   26724563.7394
     -4644.2194
  21684023.10445  16653381.49345  25949882.3994   25949895.5284
     -6110.9374
  10656079.99947   8302385.73846  22674534.8294   22674540.9234
     -3692.1254
   4541266.16848   3538899.18247  22282313.9384   22282319.1184
     -2071.6254
  17745175.19245  13816790.85445  25305703.0244   25305712.3924
     -5627.7034
  -1258514.84345   -933345.70045  25332500.4854   25332509.4784
       308.7814
 01 10  2  1 24 15.0050000  0 10G 7G 2G11G 8G10G13G27G28G31G26
  -2487856.99946  -2486457.06445  24543451.3604   24543462.4154
       875.7814
   2927761.64148   2284597.49847  23113921.5244   23113927.4894
     -1430.2664
    447084.91643    354266.27345  25832613.5794   25832617.8684
      -551.5164
   5755470.66748   4480408.21147  21661827.1034   21661832.9624
     -2426.0164
  13873152.10444  10971053.22245  26737809.6654   26737826.1574
     -4647.1254
  21775696.86645  16724815.50245  25967325.9464   25967340.1304
     -6112.1414
  10711510.57847   8345578.40746  22685082.9314   22685088.9424
     -3698.5314
   4572379.47648   3563143.34547  22288234.3374   22288239.3764
     -2076.7194
  17829628.83845  13882598.92745  25321772.4704   25321781.6384
     -5632.7034
  -1263098.34245   -936917.19145  25331627.7044   25331636.8724
       302.4224
 01 10  2  1 24 30.0050000  0 10G 7G 2G11G 8G10G13G27G28G31G26
  -2500964.32846  -2496670.43945  24540957.3454   24540967.4974
       871.8594
   2949242.97248   2301336.23347  23118009.3374   23118015.4194
     -1433.8754
    455396.33545    360742.84245  25834197.5404   25834204.2784
      -556.6254
   5791911.45948   4508803.65247  21668761.4384   21668767.3804
     -2432.7034
  13942881.68744  11025387.81545  26751078.6104   26751096.1924
     -4650.1254
  21867388.31745  16796263.21145  25984775.3604   25984791.1384
     -6113.3594
  10767037.38247   8388846.05446  22695649.3994   22695655.4354
     -3705.0004
   4603569.33948   3587447.16247  22294169.5874   22294174.5794
     -2081.8914
  17914157.24745  13948465.18145  25337858.5244   25337866.7674
     -5637.7344
  -1267585.93845   -940413.92745  25330774.0564   25330782.1454
       295.9694
 01 10  2  1 24 45.0050000  0 10G 7G 2G11G 8G10G13G27G28G31G26
  -2514010.78946  -2506836.36646  24538474.0794   24538484.8294
       867.6724
   2970780.17048   2318118.50547  23122107.6494   23122113.7904
     -1437.7194
    463786.06943    367280.36645  25835789.7204   25835798.2784
      -561.9844
   5828454.68648   4537278.91647  21675715.4154   21675721.3564
     -2439.6724
  14012657.74144  11079758.59745  26764356.3214   26764373.9384
     -4653.3124
  21959099.99645  16867726.77645  26002226.1884   26002240.5484
     -6114.8284
  10822663.11547   8432190.78746  22706234.4934   22706240.6224
     -3711.7194
   4634838.20048   3611812.54647  22300120.0404   22300125.2204
     -2087.2664
  17998762.67245  14014391.45845  25353958.5484   25353968.2784
     -5642.9534
  -1271974.84345   -943833.80845  25329938.4544   25329946.0994
       289.2504
 01 10  2  1 25  0.0050000  0 10G 7G 2G11G 8G10G13G27G28G31G26
  -2526995.89946  -2516954.49246  24536003.3534   24536013.7284
       863.7344
   2992373.36848   2334944.41447  23126216.5244   23126222.5364
     -1441.2974
    472254.56345    373879.35445  25837406.1494   25837414.3924
      -567.0944
   5865100.63848   4565834.22347  21682688.9074   21682694.9074
     -2446.3594
  14082480.04844  11134165.49145  26777641.9934   26777658.4274
     -4656.2974
  22050831.66945  16939205.82045  26019684.0484   26019696.3454
     -6115.9694
  10878387.94047   8475612.73346  22716838.7204   22716844.9894
     -3718.1874
   4666186.18748   3636239.57747  22306085.2594   22306090.2984
     -2092.3754
  18083444.95945  14080377.68345  25370073.6344   25370080.2204
     -5647.9064
  -1276264.58145   -947176.38945  25329121.5014   25329131.0094
       282.7814
 01 10  2  1 25 15.0050000  0 10G 7G 2G11G 8G10G13G27G28G31G26
  -2539920.91346  -2527025.78346  24533543.7284   24533555.0994
       859.6414
   3014021.06048   2351812.78447  23130335.9314   23130342.0134
     -1445.0164
    480800.73543    380538.76245  25839029.3844   25839040.4504
      -572.3594
   5901848.01948   4594468.56347  21689681.5484   21689687.5134
     -2453.2194
  14152346.71944  11188606.91945  26790939.9154   26790958.7394
     -4659.2194
  22142581.45245  17010699.08045  26037141.7744   26037153.3804
     -6117.2664
  10934210.42547   8519110.77946  22727461.3764   22727467.4814
     -3724.7664
   4697611.71348   3660727.02747  22312065.2984   22312070.1384
     -2097.6254
  18168202.25745  14146422.34145  25386201.6424   25386210.3644
     -5652.9844
  -1280456.22145   -950442.55045  25328324.5874   25328333.1924
       276.1094
 01 10  2  1 25 30.0050000  0 10G 7G 2G11G 8G10G13G27G28G31G26
  -2552785.18046  -2537049.74646  24531095.1424   24531106.0564
       855.8134
   3035723.49248   2368723.81047  23134465.6814   23134471.6924
     -1448.4224
    489425.16845    387259.33545  25840674.6734   25840682.5284
      -577.3444
   5938697.17048   4623182.21147  21696693.9464   21696699.9934
     -2459.7814
  14222257.70745  11243082.86545  26804244.1654   26804263.4814
     -4661.9224
  22234349.47945  17082206.49145  26054606.0564   26054618.3884
     -6118.2344
  10990130.93247   8562685.20546  22738102.5954   22738108.6774
     -3731.0624
   4729115.05348   3685275.11447  22318060.1104   22318065.0094
     -2102.5784
  18253034.58545  14212525.38945  25402344.3534   25402352.8064
     -5657.7664
  -1284549.16345   -953631.78545  25327546.3764   25327554.5484
       269.7974
 01 10  2  1 25 45.0050000  0 10G 7G 2G11G 8G10G13G27G28G31G26
  -2565592.58446  -2547029.40346  24528658.5714   24528669.9664
       851.5944
   3057476.49948   2385674.24547  23138605.2124   23138611.3644
     -1452.1874
    498124.12445    394037.67245  25842326.3684   25842334.5994
      -582.7034
   5975644.13748   4651972.07147  21703724.6184   21703730.5834
     -2466.7194
  14292208.50444  11297589.86445  26817552.7824   26817569.7434
     -4665.0314
  22326131.18744  17153724.57745  26072070.4784   26072082.1184
     -6119.5624
  11046145.34247   8606332.80646  22748761.8454   22748767.7984
     -3737.7194
   4760691.92848   3709880.49547  22324068.8134   22324073.7824
     -2107.8754
  18337937.45445  14278683.45945  25418501.8454   25418510.0284
     -5662.8284
  -1288547.34645   -956747.15845  25326785.7984   25326794.4034
       263.0634
 01 10  2  1 26  0.0050000  0 10G 7G 2G11G 8G10G13G27G28G31G26
  -2578338.82346  -2556961.38846  24526232.2044   24526243.4814
       847.8754
   3079283.99648   2402667.14447  23142755.0564   23142761.1494
     -1455.5004
    506901.87145    400877.72145  25843999.5094   25844008.8064
      -587.6724
   6012693.01948   4680841.34647  21710774.8604   21710780.8604
     -2473.1724
  14362202.84744  11352130.75645  26830872.1574   26830891.1454
     -4667.6254
  22417930.38745  17225256.23945  26089540.2354   26089554.5484
     -6120.3444
  11102257.72747   8650056.74646  22759439.6264   22759445.5794
     -3743.9374
   4792346.30948   3734546.27447  22330092.6494   22330097.7474
     -2112.7194
  18422914.52345  14344899.37645  25434671.8294   25434680.9504
     -5667.4374
  -1292446.31345   -959785.29045  25326042.6654   25326050.8374
       256.7814
 01 10  2  1 26 15.0050000  0 10G 7G 2G11G 8G10G13G27G28G31G26
  -2591025.21046  -2566846.72546  24523818.2744   24523828.8494
       843.7504
   3101144.34748   2419701.22147  23146914.7044   23146920.6694
     -1459.1254
    515757.20745    407778.00645  25845682.9624   25845690.5484
      -592.9534
   6049842.33648   4709788.88447  21717843.9384   21717849.9504
     -2479.9694
  14432238.64144  11406703.96145  26844199.6494   26844216.8684
     -4670.4534
  22509745.19644  17296800.21645  26107011.4074   26107024.7244
     -6121.5474
  11158466.52247   8693855.81446  22770135.8064   22770141.9704
     -3750.4844
   4824076.51148   3759271.12847  22336130.5244   22336135.5874
     -2117.8754
  18507963.82045  14411171.49145  25450856.0954   25450863.2944
     -5672.3754
  -1296247.39045   -962747.08845  25325319.1814   25325326.9424
       250.1414
 01 10  2  1 26 30.0050000  0 10G 7G 2G11G 8G10G13G27G28G31G26
  -2603650.47246  -2576684.45646  24521415.6964   24521425.9194
       839.7194
   3123058.58348   2436777.28947  23151084.9784   23151091.0134
     -1462.6724
    524691.42645    414739.87745  25847383.6964   25847391.7044
      -598.1724
   6087093.34148   4738815.65847  21724932.7514   21724938.6694
     -2486.7194
  14502316.70744  11461310.15745  26857538.6574   26857557.0714
     -4673.1724
  22601576.26545  17368356.66745  26124488.4784   26124502.8374
     -6122.5314
  11214772.85647   8737730.88646  22780850.4384   22780856.3804
     -3756.9374
   4855883.51348   3784055.82647  22342183.2044   22342188.2784
     -2122.9534
  18593086.11445  14477500.51545  25467054.3294   25467063.1924
     -5677.1874
  -1299949.24645   -965631.57545  25324615.0014   25324623.6654
       243.5314
 01 10  2  1 26 45.0050000  0  9G 7G 2G11G 8G13G27G28G31G26
  -2616213.93346  -2586474.02946  24519024.8214   24519034.5874
       835.3914
   3145026.96848   2453895.54547  23155265.3604   23155271.4074
     -1466.4534
    533705.26945    421763.75645  25849098.0094   25849108.7944
      -603.6874
   6124446.27648   4767921.86147  21732040.7514   21732046.7984
     -2493.7034
  22693423.53043  17439925.97445  26141964.5324   26141976.8994
     -6123.8124
  11271177.11947   8781682.26746  22791584.0794   22791590.1264
     -3763.6414
   4887767.59848   3808900.59247  22348250.5244   22348255.7044
     -2128.2664
  18678281.31544  14543886.42145  25483266.1814   25483275.6064
     -5682.2194
  -1303551.11645   -968438.16545  25323930.4934   25323937.6924
       236.7034
 01 10  2  1 27  0.0050000  0  9G 7G 2G11G 8G13G27G28G31G26
  -2628714.39846  -2596214.51046  24516645.5484   24516655.4424
       831.3754
   3167050.27048   2471056.59447  23159456.2204   23159462.1614
     -1469.9224
    542799.91045    428850.59245  25850828.1574   25850835.3334
      -608.8594
   6161902.34548   4797108.42747  21739168.2594   21739174.3064
     -2500.3754
  22785287.78145  17511508.26145  26159447.4854   26159461.5174
     -6124.7194
  11327680.19047   8825710.64146  22802336.0714   22802342.2004
     -3770.0314
   4919729.52548   3833806.01547  22354332.6344   22354337.7784
     -2133.2504
  18763549.88345  14610329.43145  25499492.9704   25499500.5794
     -5686.8754
  -1307051.94745   -971166.04545  25323263.3374   25323270.7354
       230.1414
 01 10  2  1 27 15.0050000  0  9G 7G 2G11G 8G13G27G28G31G26
  -2641155.33446  -2605908.61546  24514278.7744   24514289.2314
       827.4064
   3189124.80048   2488257.56547  23163656.8684   23163662.9744
     -1473.3444
    551972.12145    435997.85745  25852574.0244   25852580.7744
      -614.0784
   6199458.04548   4826372.62647  21746314.8214   21746320.8924
     -2507.0314
  22877164.80945  17583100.68845  26176929.5794   26176938.8414
     -6125.5784
  11384278.45847   8869813.19446  22813106.4704   22813112.4354
     -3776.3914
   4951765.57948   3858769.19647  22360428.9234   22360433.8804
     -2138.2034
  18848887.90445  14676826.57545  25515731.8604   25515738.4814
     -5691.5164
  -1310455.06945   -973817.76445  25322615.6104   25322623.8764
       223.6094
 01 10  2  1 27 30.0050000  0  9G 7G 2G11G 8G13G27G28G31G26
  -2653534.43546  -2615554.53046  24511922.8374   24511932.9894
       823.1414
   3211252.49648   2505499.96447  23167867.5564   23167873.5444
     -1477.0164
    561224.07244    443207.31245  25854332.7044   25854342.3064
      -619.5314
   6237115.37048   4855716.01447  21753480.8214   21753486.8104
     -2513.9534
  22969056.57144  17654704.57145  26194416.6494   26194431.7354
     -6126.6724
  11440973.84947   8913991.42746  22823895.1184   22823901.0954
     -3783.0004
   4983877.70148   3883791.65647  22366539.6654   22366544.7514
     -2143.4064
  18934297.06044  14743379.15245  25531984.1424   25531990.7984
     -5696.3594
  -1313758.20245   -976391.54545  25321987.0094   25321994.5244
       216.7814
 01 10  2  1 27 45.0050000  0  9G 7G 2G11G 8G13G27G28G31G26
  -2665850.60346  -2625151.40346  24509579.2904   24509588.7984
       819.0164
   3233434.15748   2522784.41147  23172088.4154   23172094.4504
     -1480.5314
    570557.08945    450479.96845  25856111.9154   25856119.8414
      -624.8594
   6274875.27748   4885139.33547  21760666.3214   21760672.3564
     -2520.6874
  23060963.43945  17726320.10645  26211905.9784   26211918.0994
     -6127.5784
  11497767.29947   8958246.06746  22834702.5324   22834708.5444
     -3789.4534
   5016066.49148   3908873.85547  22372665.0634   22372670.0674
     -2148.4224
  19019777.85645  14809987.58745  25548251.3294   25548258.9274
     -5701.0474
  -1316960.14345   -978886.52545  25321378.2434   25321385.8644
       210.1414
 01 10  2  1 28  0.0050000  0  9G 7G 2G11G 8G13G27G28G31G26
  -2678103.99246  -2634699.35446  24507246.9624   24507256.8684
       814.9534
   3255669.25448   2540110.49647  23176319.6734   23176325.6494
     -1483.9694
    579970.97345    457815.49545  25857901.0874   25857910.4314
      -630.1564
   6312737.46248   4914642.34847  21767871.2984   21767877.2634
     -2527.4224
  23152884.83145  17797947.00345  26229398.0874   26229411.7674
     -6128.4224
  11554658.38247   9002576.78946  22845528.5404   22845534.5404
     -3795.8594
   5048331.48048   3934015.42647  22378804.7744   22378809.6494
     -2153.3914
  19105329.38145  14876651.00445  25564531.1884   25564538.6104
     -5705.6254
  -1320061.04145   -981302.73445  25320788.0564   25320796.9544
       203.5004
 01 10  2  1 28 15.0050000  0  9G 7G 2G11G 8G13G27G28G31G26
  -2690296.37746  -2644199.77046  24504927.1264   24504937.6884
       810.8134
   3277955.66548   2557476.56747  23180560.5014   23180566.4784
     -1487.4534
    589463.88545    465212.71345  25859707.8064   25859713.1854
      -635.4844
   6350699.96948   4944223.54247  21775095.1884   21775101.2244
     -2534.1724
  23244818.14644  17869583.35945  26246892.2204   26246907.7984
     -6129.2504
  11611645.06547   9046982.00446  22856372.9544   22856379.1064
     -3802.2814
   5080670.53848   3959214.71347  22384958.7204   22384963.7244
     -2158.3914
  19190949.32945  14943367.85645  25580823.9934   25580831.4974
     -5710.2504
  -1323062.72445   -983641.63645  25320216.5174   25320224.6654
       196.8284
 01 10  2  1 28 30.0050000  0  9G 7G 2G11G 8G13G27G28G31G26
  -2702425.80346  -2653651.15546  24502618.3924   24502628.1814
       806.5634
   3300295.08848   2574883.94947  23184811.7514   23184817.8334
     -1491.0314
    599037.98945    472673.12945  25861529.2354   25861536.6104
      -640.9694
   6388764.71348   4973884.39147  21782338.5564   21782344.3684
     -2541.0314
  23336765.02143  17941230.02645  26264389.1264   26264403.7434
     -6130.1874
  11668729.15847   9091463.12146  22867235.6034   22867241.8254
     -3808.8284
   5113085.37348   3984473.05147  22391126.9314   22391132.0174
     -2163.4694
  19276639.12745  15010139.11645  25597130.7984   25597139.2394
     -5714.9534
  -1325963.07045   -985901.58545  25319664.6884   25319672.4854
       190.0004
 01 10  2  1 28 45.0050000  0  9G 7G 2G11G 8G13G27G28G31G26
  -2714494.37646  -2663055.10846  24500321.6344   24500331.2474
       802.6094
   3322684.98948   2592330.66247  23189072.3214   23189078.3564
     -1494.2504
    608691.17645    480195.22745  25863367.3214   25863374.2164
      -646.0944
   6426929.26048   5003623.01747  21789601.0634   21789607.0054
     -2547.5474
  23428722.48145  18012885.06045  26281889.5794   26281899.3804
     -6130.7344
  11725908.18247   9136018.21146  22878116.3454   22878122.5794
     -3815.0164
   5145573.36848   4009788.39547  22397309.2674   22397314.2704
     -2168.2194
  19362395.88745  15076962.55945  25613450.1034   25613456.6884
     -5719.2504
  -1328764.24445   -988084.26245  25319131.2824   25319139.9464
       183.5004
 01 10  2  1 29  0.0050000  0  9G 7G 2G11G 8G13G27G28G31G26
  -2726502.01946  -2672411.58546  24498036.8214   24498046.1534
       798.3754
   3345125.25348   2609816.61647  23193342.4314   23193348.5244
     -1497.7974
    618423.75045    487779.12945  25865218.5874   25865226.8414
      -651.5944
   6465193.53348   5033439.35047  21796882.6734   21796888.6384
     -2554.3754
  23520690.12544  18084548.12945  26299389.1734   26299401.1184
     -6131.6094
  11783182.11347   9180647.25946  22889015.0874   22889020.9934
     -3821.5164
   5178134.35948   4035160.62047  22403505.3214   22403510.3494
     -2173.2664
  19448219.16345  15143837.85845  25629781.0094   25629789.1344
     -5723.8444
  -1331466.17245   -990189.60145  25318617.6494   25318624.8494
       176.7344
 01 10  2  1 29 15.0060000  0  9G 7G 2G11G 8G13G27G28G31G26
  -2738448.05046  -2681720.03946  24495763.5844   24495773.4784
       794.4224
   3367618.48848   2627343.85047  23197622.9044   23197628.9394
     -1501.0004
    628237.66145    495426.44445  25867086.6624   25867095.1154
      -656.7664
   6503561.55548   5063336.52847  21804183.7324   21804189.6744
     -2560.9064
  23612675.08944  18156224.54245  26316893.8814   26316908.2994
     -6132.1564
  11840555.96247   9225354.16646  22899932.9984   22899939.0684
     -3827.7194
   5210771.56548   4060592.23547  22409715.9984   22409721.1314
     -2177.9844
  19534115.47245  15210770.01645  25646126.7174   25646136.0614
     -5728.1254
  -1334067.44845   -992216.50445  25318122.4824   25318129.2914
       170.1724
 01 10  2  1 29 30.0060000  0  9G 7G 2G11G 8G13G27G28G31G26
  -2750331.16846  -2690979.46846  24493501.9674   24493511.7214
       789.9694
   3390161.04448   2644909.50947  23201912.4594   23201918.6464
     -1504.6874
    638131.47745    503136.02545  25868967.9824   25868975.4514
      -662.4534
   6542027.59348   5093310.08347  21811503.7094   21811509.7684
     -2567.9224
  23704664.11845  18227904.14745  26334399.1314   26334411.6394
     -6133.0944
  11898021.53647   9270132.54346  22910868.2644   22910874.3114
     -3834.3754
   5243480.01648   4086079.35647  22415940.3184   22415945.1704
     -2183.1724
  19620072.50045  15277749.50945  25662483.7564   25662492.2214
     -5732.8284
  -1336568.04945   -994164.96245  25317646.7324   25317654.7284
       163.1884
 01 10  2  1 29 45.0060000  0  9G 7G 2G11G 8G13G27G28G31G26
  -2762150.23246  -2700189.00946  24491252.8114   24491262.3304
       785.8914
   3412756.06748   2662516.05447  23206212.1314   23206218.1784
     -1507.9694
    648107.86045    510909.96845  25870868.3184   25870875.4594
      -667.7504
   6580596.01748   5123363.42047  21818842.9284   21818849.0214
     -2574.5314
  23796664.88143  18299592.93245  26351905.9984   26351917.3114
     -6133.6414
  11955584.34347   9314986.68546  22921822.2014   22921828.2364
     -3840.6564
   5276263.42948   4111624.88947  22422178.6234   22422183.4984
     -2187.9534
  19706097.22344  15344781.76445  25678852.5374   25678862.2444
     -5737.1254
  -1338966.12545   -996033.53945  25317190.3424   25317197.8114
       156.5784
 01 10  2  1 30  0.0060000  0  9G 7G 2G11G 8G13G27G28G31G26
  -2773906.57346  -2709349.64846  24489015.4434   24489025.2914
       781.5164
   3435401.90848   2680162.19847  23210521.5064   23210527.5534
     -1511.5624
    658165.52745    518747.17345  25872781.3114   25872789.0374
      -673.3754
   6619265.44448   5153495.45747  21826201.4434   21826207.5024
     -2581.4694
  23888675.36344  18371289.25445  26369414.2564   26369430.9714
     -6134.5314
  12013242.86447   9359915.41146  22932794.2954   22932800.4824
     -3847.2344
   5309120.22148   4137227.60947  22428431.0844   22428436.0294
     -2193.0474
  19792187.79445  15411865.31345  25695235.7404   25695245.2954
     -5741.6874
  -1341262.90945   -997823.19145  25316753.0214   25316760.8184
       149.5634
 01 10  2  1 30 15.0060000  0  9G 7G 2G11G 8G13G27G28G31G26
  -2785600.20346  -2718461.42946  24486790.3574   24486800.0414
       777.5004
   3458098.22448   2697847.67147  23214840.6624   23214846.6274
     -1514.7504
    668304.44445    526647.73445  25874710.2714   25874718.0684
      -678.6254
   6658035.63048   5183706.01147  21833579.2174   21833585.1584
     -2588.0004
  23980694.90145  18442992.66645  26386926.5764   26386942.9284
     -6134.9064
  12070996.78847   9404918.47646  22943784.5684   22943790.5334
     -3853.4224
   5342049.96248   4162887.17947  22434697.2954   22434702.2994
     -2197.7194
  19878343.53245  15478999.66945  25711631.0064   25711638.6744
     -5745.8444
  -1343458.44345   -999533.95645  25316335.4204   25316343.3694
       143.0004
 01 10  2  1 30 30.0060000  0  9G 7G 2G11G 8G13G27G28G31G26
  -2797232.83846  -2727525.69646  24484576.6934   24484586.5064
       773.5314
   3480842.85448   2715570.79147  23219168.7644   23219174.8114
     -1517.8594
    678522.92545    534610.29145  25876654.8034   25876661.4714
      -683.8124
   6696904.66448   5213993.59147  21840975.6624   21840981.5924
     -2594.5004
  24072721.22744  18514701.38745  26404437.8814   26404449.8854
     -6135.2504
  12128844.04247   9449994.26946  22954792.4674   22954798.6074
     -3859.5474
   5375050.49348   4188601.90347  22440977.2094   22440982.2604
     -2202.3284
  19964561.97145  15546182.84945  25728038.0614   25728047.0414
     -5749.9064
  -1345554.57845  -1001167.24145  25315936.0454   25315944.0184
       136.4844
 01 10  2  1 30 45.0060000  0  9G 7G 2G11G 8G13G27G28G31G26
  -2808805.00046  -2736542.82646  24482374.0684   24482383.5534
       769.4694
   3503635.10548   2733331.01847  23223505.7714   23223511.7714
     -1521.0474
    688820.52845    542634.49745  25878613.0614   25878620.7994
      -689.1414
   6735871.88848   5244357.68147  21848390.9514   21848396.9864
     -2601.0624
  24164753.32043  18586414.58845  26421951.0144   26421962.5844
     -6135.6254
  12186784.01047   9495142.31246  22965818.0924   22965824.1864
     -3865.7344
   5408120.98248   4214371.13647  22447270.2324   22447275.2484
     -2207.0164
  20050842.22345  15613414.27345  25744456.7954   25744464.4864
     -5754.0314
  -1347551.67745  -1002723.35745  25315556.2094   25315563.8424
       129.8594
 01 10  2  1 31  0.0060000  0  9G 7G 2G11G 8G13G27G28G31G26
  -2820313.27346  -2745510.17746  24480184.2254   24480193.2874
       765.0784
   3526478.08148   2751130.77147  23227852.5924   23227858.5924
     -1524.5624
    699200.90945    550723.17645  25880589.0764   25880596.4164
      -694.7974
   6774940.47148   5274800.75247  21855825.3894   21855831.2714
     -2607.9694
  24256793.94644  18658134.33245  26439467.2794   26439483.5374
     -6136.3124
  12244819.83847   9540365.04446  22976861.9044   22976867.9394
     -3872.2664
   5441264.55548   4240197.32447  22453577.3114   22453582.0334
     -2212.0164
  20137186.89545  15680695.91145  25760886.8814   25760895.2994
     -5758.4534
  -1349446.25945  -1004199.62045  25315195.6234   25315204.0644
       122.8754
 01 10  2  1 31 15.0060000  0  9G 7G 2G11G 8G13G27G28G31G26
  -2831757.01246  -2754427.24646  24478006.4824   24478015.6274
       760.8134
   3549372.02548   2768970.23947  23232209.1864   23232215.1624
     -1527.9064
    709664.54245    558876.75745  25882580.0764   25882587.2524
      -700.3124
   6814111.03948   5305323.29347  21863279.1234   21863285.0184
     -2614.7194
  24348842.98445  18729860.88345  26456983.7564   26456996.0764
     -6136.8284
  12302951.92747   9585662.78646  22987923.9434   22987930.0614
     -3878.6254
   5474481.42248   4266080.61947  22459898.1074   22459903.0184
     -2216.8444
  20223596.04744  15748027.69845  25777329.3424   25777336.9164
     -5762.7194
  -1351237.70045  -1005595.49345  25314854.3964   25314862.0884
       116.0474
 01 10  2  1 31 30.0060000  0  9G 7G 2G11G 8G13G27G28G31G26
  -2843138.95646  -2763296.16246  24475840.7794   24475850.0764
       756.7194
   3572313.97248   2786847.11547  23236574.8814   23236580.8224
     -1531.0784
    720208.86745    567093.23645  25884587.4044   25884593.8034
      -705.6874
   6853380.73648   5335923.07747  21870752.0614   21870758.0614
     -2621.3124
  24440897.43243  18801591.47045  26474497.9824   26474514.1114
     -6137.1564
  12361177.30247   9631033.21746  22999004.1004   22999010.1234
     -3884.8284
   5507768.56648   4292018.67847  22466232.4364   22466237.4514
     -2221.5004
  20310066.41345  15815407.30045  25793785.2404   25793792.6394
     -5766.7344
  -1352928.67445  -1006913.07245  25314532.5764   25314540.2324
       109.3594
 01 10  2  1 31 45.0060000  0  9G 7G 2G11G 8G13G27G28G31G26
  -2854458.44546  -2772116.41046  24473686.5844   24473695.9634
       752.4064
   3595304.21648   2804761.61847  23240949.8184   23240955.7254
     -1534.4374
    730834.51545    575373.00145  25886608.7564   25886617.1154
      -711.2504
   6892749.97148   5366600.42247  21878243.6544   21878249.5844
     -2628.0784
  24532957.48143  18873326.23945  26492018.9754   26492037.4244
     -6137.6564
  12419496.34547   9676476.63646  23010101.6394   23010107.7214
     -3891.2034
   5541126.25548   4318011.71047  22472580.1004   22472585.0214
     -2226.3444
  20396597.98844  15882834.61045  25810251.7644   25810259.2444
     -5770.9534
  -1354518.56145  -1008151.92645  25314230.4514   25314238.0254
       102.4694
 01 10  2  1 32  0.0060000  0  9G 7G 2G11G 8G13G27G28G31G26
  -2865716.19846  -2780888.56346  24471544.1314   24471553.5574
       748.4224
   3618341.66348   2822712.91247  23245333.6004   23245339.5064
     -1537.4374
    741540.88645    583715.73345  25888645.8034   25888653.9634
      -716.4844
   6932217.86848   5397354.65147  21885754.2794   21885760.3264
     -2634.5164
  24625021.42745  18945064.26845  26509538.7484   26509550.4124
     -6137.7504
  12477908.07847   9721992.28546  23021217.0614   23021223.1434
     -3897.2344
   5574553.43148   4344058.88747  22478941.2404   22478946.2794
     -2230.8284
  20483189.43444  15950308.55645  25826728.8894   25826737.1434
     -5774.7814
  -1356008.05545  -1009312.50245  25313946.9124   25313954.0184
        95.9064
 01 10  2  1 32 15.0060000  0  9G 7G 2G11G 8G13G27G28G31G26
  -2876911.95046  -2789612.39146  24469413.8114   24469422.7214
       744.4534
   3641426.39548   2840701.04747  23249726.4984   23249732.5684
     -1540.4224
    752328.24745    592121.54845  25890700.0374   25890706.4244
      -721.7344
   6971784.54048   5428185.84647  21893283.5064   21893289.5414
     -2640.9534
  24717089.31343  19016805.55744  26527057.7094   26527067.5104
     -6137.8444
  12536412.58747   9767580.22446  23032350.1394   23032356.2914
     -3903.2504
   5608049.99348   4370160.13347  22485315.3424   22485320.2754
     -2235.2814
  20569840.38344  16017828.82645  25843217.1784   25843226.8504
     -5778.5784
  -1357396.68545  -1010394.49845  25313682.6464   25313690.4434
        89.3284
 01 10  2  1 32 30.0060000  0  9G 7G 2G11G 8G13G27G28G31G26
  -2888047.25846  -2798289.13046  24467294.2954   24467303.1354
       740.1884
   3664556.32748   2858724.40647  23254128.0534   23254134.0534
     -1543.6564
    763195.01745    600589.24745  25892766.1004   25892773.9204
      -727.2504
   7011448.15448   5459092.57747  21900831.2324   21900837.1034
     -2647.6094
  24809158.83943  19088547.83044  26544577.8654   26544589.7524
     -6138.1874
  12595007.88247   9813238.91046  23043500.3654   23043506.4124
     -3909.5314
   5641613.83648   4396313.80247  22491702.2954   22491707.2874
     -2239.9844
  20656548.48044  16085393.70945  25859718.5684   25859726.3654
     -5782.5944
  -1358686.25845  -1011399.32245  25313436.9204   25313445.1034
        82.5004
 01 10  2  1 32 45.0060000  0  9G 7G 2G11G 8G13G27G28G31G26
  -2899120.23146  -2806917.30146  24465187.4904   24465196.0724
       736.0164
   3687733.10848   2876784.26647  23258538.3574   23258544.4164
     -1546.7504
    774143.21145    609120.38645  25894850.3264   25894857.8894
      -732.6874
   7051210.44448   5490076.20047  21908397.8344   21908403.7754
     -2654.1874
  24901231.32443  19160292.44544  26562098.8574   26562110.4164
     -6138.3444
  12653695.75047   9858969.72446  23054668.1624   23054674.1154
     -3915.6874
   5675246.69448   4422521.24947  22498102.3654   22498107.1464
     -2244.5624
  20743315.20943  16153004.16145  25876228.8654   25876236.2994
     -5786.4534
  -1359874.62545  -1012325.29345  25313210.7644   25313218.4784
        75.7664
 01 10  2  1 33  0.0060000  0  9G 7G 2G11G 8G13G27G28G31G26
  -2910129.76646  -2815496.02046  24463092.2404   24463100.9164
       731.7974
   3710957.50548   2894881.23047  23262957.8264   23262963.7794
     -1549.9064
    785173.96145    617715.91645  25896949.1314   25896955.5184
      -738.1724
   7091072.44548   5521137.52247  21915983.1934   21915989.1354
     -2660.8284
  24993307.36743  19232039.84245  26579621.0764   26579637.4164
     -6138.5314
  12712477.00547   9904773.30946  23065854.0064   23065860.1354
     -3921.8914
   5708949.23948   4448782.99447  22504515.8734   22504520.7254
     -2249.1874
  20830140.95644  16220660.63145  25892751.8654   25892758.8894
     -5790.3754
  -1360960.89545  -1013171.69145  25313004.1004   25313011.4634
        68.9694
 01 10  2  1 33 15.0060000  0  9G 7G 2G11G 8G13G27G28G31G26
  -2921076.69246  -2824025.97046  24461008.9204   24461017.6434
       727.7034
   3734228.41948   2913014.44347  23267386.1314   23267392.2014
     -1552.9534
    796286.45945    626375.05445  25899063.7254   25899072.2954
      -743.5944
   7131033.22548   5552275.81047  21923587.5064   21923593.3424
     -2667.3594
  25085385.42543  19303788.90145  26597143.1934   26597163.0844
     -6138.6414
  12771350.58647   9950648.84046  23077057.1464   23077063.0534
     -3928.0004
   5742720.39348   4475098.20047  22510942.2014   22510947.1114
     -2253.7034
  20917024.39844  16288362.15545  25909285.2174   25909293.8694
     -5794.1724
  -1361945.71445  -1013939.05445  25312817.0924   25312823.9004
        62.2504
 01 10  2  1 33 30.0060000  0  9G 7G 2G11G 8G13G27G28G31G26
  -2931960.58646  -2832506.81246  24458937.8184   24458946.7524
       723.4224
   3757545.95248   2931183.98447  23271823.0684   23271829.1274
     -1556.1094
    807481.27245    635098.35845  25901193.2094   25901199.7254
      -749.1254
   7171092.99648   5583491.23447  21931210.6544   21931216.5024
     -2674.0164
  25177465.59641  19375539.55944  26614662.9204   26614676.1194
     -6138.7974
  12830316.69247   9996596.46646  23088278.0294   23088284.2054
     -3934.2194
   5776560.23148   4501466.93147  22517381.7644   22517386.6864
     -2258.3284
  21003965.35043  16356108.50745  25925828.3264   25925836.1234
     -5798.0314
  -1362828.64545  -1014627.00745  25312648.1544   25312655.4124
        55.3914
 01 10  2  1 33 45.0060000  0  9G 7G 2G11G 8G13G27G28G31G26
  -2942780.74846  -2840937.97246  24456878.4434   24456887.0844
       719.1724
   3780910.44048   2949390.11247  23276269.1934   23276275.2054
     -1559.2194
    818759.20345    643886.41945  25903340.2874   25903347.3814
      -754.6724
   7211252.33348   5614784.24247  21938852.7014   21938858.5614
     -2680.6254
  25269547.87443                  26632187.9434
     -6138.9064
  12889375.80547  10042616.56346  23099516.7644   23099522.8814
     -3940.3914
   5810469.01648   4527889.38247  22523834.3654   22523839.2284
     -2262.8914
  21090963.76244  16423899.57145  25942384.3574   25942391.1784
     -5801.8124
  -1363608.83545  -1015234.90045  25312500.5454   25312507.7214
        48.5784
 01 10  2  1 34  0.0060000  0  9G 7G 2G11G 8G13G27G28G31G26
  -2953537.53946  -2849319.77346  24454831.3114   24454840.1504
       715.0314
   3804321.12548   2967632.23647  23280724.0614   23280730.1544
     -1562.2194
    830119.77945    652738.92745  25905501.9434   25905509.2364
      -760.0944
   7251510.57648   5646154.32047  21946513.5844   21946519.5024
     -2687.1564
  25361631.18043                  26649711.3344
     -6138.8914
  12948527.18747  10088708.56246  23110772.9514   23110778.9754
     -3946.4844
   5844446.09648   4554365.05047  22530299.9904   22530304.7834
     -2267.3914
  21178018.60744  16491734.56445  25958950.4514   25958957.2834
     -5805.5164
  -1364286.82745  -1015763.17145  25312370.9674   25312377.5884
        41.7974
 01 10  2  1 34 15.0060000  0  9G 7G 2G11G 8G13G27G28G31G26
  -2964231.68046  -2857652.74646  24452796.5294   24452805.7214
       710.8914
   3827777.11948   2985909.66647  23285187.5374   23285193.6314
     -1565.1874
    841562.47445    661655.36845  25907679.9434   25907684.9594
      -765.5474
   7291866.94048   5677600.85847  21954192.9594   21954198.9244
     -2693.6564
  25453714.35843                  26667233.7174
     -6138.8124
  13007769.96347  10134871.78146  23122046.4434   23122052.4784
     -3952.5004
   5878490.42548   4580893.11647  22536778.2644   22536782.9284
     -2271.8124
  21265128.75443  16559612.68445  25975526.2564   25975533.8774
     -5809.1414
  -1364863.21845  -1016212.27245  25312260.9904   25312267.8614
        35.0944
 01 10  2  1 34 30.0060000  0  9G 7G 2G11G 8G13G27G28G31G26
  -2974863.66146  -2865937.28346  24450773.0844   24450782.2994
       706.6254
   3851277.56648   3004221.73447  23289659.5214   23289665.6274
     -1568.2664
    853086.74245    670635.35045  25909872.1074   25909879.9394
      -771.0944
   7332320.94748   5709123.47747  21961891.2714   21961897.1664
     -2700.2664
  25545796.51342                  26684756.7714
     -6138.8284
  13067103.34947  10181105.59546  23133337.1784   23133343.2254
     -3958.6564
   5912601.06848   4607472.86147  22543269.4434   22543274.1194
     -2276.3284
  21352293.02844  16627532.97045  25992113.4824   25992119.4474
     -5812.8284
  -1365338.44345  -1016582.53445  25312170.6784   25312177.2754
        28.2344
 01 10  2  1 34 45.0060000  0  9G 7G 2G11G 8G13G27G28G31G26
  -2985431.48646  -2874171.81946  24448762.3114   24448770.8694
       702.4844
   3874824.10448   3022569.71447  23294140.2564   23294146.2794
     -1571.2034
    864694.62945    679680.56145  25912081.4904   25912088.7014
      -776.5624
   7372873.92648   5740723.21947  21969608.1234   21969614.0764
     -2706.7504
  25637878.76942                  26702278.8574
     -6138.7504
  13126529.04747  10227411.34546  23144645.4754   23144651.6154
     -3964.6874
   5946779.62348   4634105.51747  22549773.3264   22549778.1194
     -2280.7344
  21439512.79243  16695496.57845  26008711.2484   26008716.5684
     -5816.3594
  -1365710.58445  -1016872.49845  25312099.9594   25312108.6704
        21.4534
 01 10  2  1 35  0.0060000  0  9G 7G 2G11G 8G13G27G28G31G26
  -2995935.55746  -2882356.68946  24446763.1394   24446771.3114
       698.1724
   3898416.13548   3040953.14547  23298629.6704   23298635.6114
     -1574.2974
    876385.83645    688790.64745  25914306.6704   25914313.0214
      -782.1874
   7413525.75148   5772399.98347  21977344.0294   21977350.0064
     -2713.3914
  25729960.46243                  26719801.6074
     -6138.7344
  13186046.57947  10273788.64746  23155971.3814   23155977.4634
     -3970.8754
   5981025.54448   4660790.66947  22556290.0684   22556294.8264
     -2285.2814
  21526787.00743  16763502.56045  26025317.8184   26025325.0644
     -5820.0944
  -1365979.96245  -1017082.34045  25312048.1464   25312056.4124
        14.5474
 01 10  2  1 35 15.0060000  0  9G 7G 2G11G 8G13G27G28G31G26
  -3006377.07746  -2890492.81746  24444776.1314   24444784.7134
       694.1564
   3922052.09248   3059370.80747  23303127.5534   23303133.6114
     -1577.0474
    888159.20445    697964.75345  25916545.6394   25916552.5454
      -787.4844
   7454274.94148   5804152.61547  21985098.2014   21985104.1894
     -2719.7344
  25822039.66343                  26737324.5064
     -6138.3754
  13245654.38047  10320236.29946  23167314.1704   23167320.2874
     -3976.7194
   6015337.10948   4687526.97047  22562819.4904   22562824.2254
     -2289.4844
  21614113.95343  16831549.51845  26041935.4904   26041943.5214
     -5823.3914
  -1366147.70945  -1017213.01645  25312016.4284   25312024.8114
         7.9534
 01 10  2  1 35 30.0060000  0  9G 7G 2G11G 8G13G27G28G31G26
  -3016753.90746  -2898578.53846  24442801.2254   24442809.7834
       689.6414
   3945733.80448   3077824.12047  23307634.0064   23307639.9944
     -1580.2974
    900017.01445    707204.68245  25918802.0924   25918809.7714
      -793.3444
   7495123.52848   5835982.69947  21992871.3264   21992877.3614
     -2726.5474
  25914117.96542                  26754845.6864
     -6138.5164
  13305354.42747  10366755.82546  23178674.7794   23178680.5924
     -3983.0784
   6049716.27348   4714315.94347  22569361.4434   22569366.2834
     -2294.1874
  21701495.14043  16899638.74645  26058564.2094   26058573.5644
     -5827.2194
  -1366211.65945  -1017262.80745  25312004.6704   25312012.3144
         0.7974
 01 10  2  1 35 45.0060000  0  9G 7G 2G11G 8G13G27G28G31G26
  -3027066.62246  -2906614.30746  24440838.8894   24440847.4474
       685.3754
   3969460.27648   3096312.30947  23312148.9594   23312155.1004
     -1583.2504
    911958.54345    716509.80345  25921074.0214   25921082.5574
      -798.9064
   7536070.70548   5867889.60647  22000663.3964   22000669.3614
     -2733.0944
  26006194.30442                  26772367.1544
     -6138.3594
  13365145.73947  10413346.46646  23190052.5294   23190058.6584
     -3989.1254
   6084161.82348   4741156.64747  22575916.1934   22575921.0214
     -2298.5784
  21788929.27143  16967769.28345  26075202.2404   26075210.3534
     -5830.7034
  -1366172.45345  -1017232.22145  25312011.7404   25312019.0104
        -6.0624
 01 10  2  1 36  0.0060000  0  9G 7G 2G11G 8G13G27G28G31G26
  -3037314.79746  -2914599.76946  24438888.5214   24438897.4904
       681.1094
   3993231.72248   3114835.54547  23316672.3574   23316678.4164
     -1586.2194
    923984.43445    725880.72645  25923361.2324   25923368.5724
      -804.5004
   7577116.69148   5899873.50447  22008474.0924   22008479.9514
     -2739.6564
  26098268.32743                  26789889.2404
     -6138.1254
  13425028.61647  10460008.45346  23201448.1234   23201454.2174
     -3995.2034
   6118674.02048   4768049.28847  22582483.6624   22582488.4674
     -2302.9844
  21876416.36243  17035941.09145  26091849.7644   26091856.5494
     -5834.1564
  -1366029.58545  -1017120.87445  25312038.9044   25312045.8344
       -12.9374
 01 10  2  1 36 15.0060000  0  9G 7G 2G11G 8G13G27G28G31G26
  -3047499.95646  -2922536.13846  24436950.0064   24436958.3304
       676.7974
   4017046.22148   3133392.33147  23321204.1784   23321210.2954
     -1589.1724
    936093.02245    735316.03045  25925667.8034   25925676.1974
      -810.1094
   7618259.78948   5931933.07747  22016303.2874   22016309.1234
     -2746.2194
  26190337.97143                  26807409.4204
     -6137.9224
  13485001.19147  10506740.34146  23212860.1464   23212866.1704
     -4001.2664
   6153251.01648   4794992.41647  22589063.3424   22589068.0764
     -2307.3914
  21963954.19543  17104152.40045  26108508.8894   26108517.4364
     -5837.6254
  -1365784.67845  -1016929.97645  25312085.7324   25312093.0024
       -19.8594
 01 10  2  1 36 30.0060000  0  9G 7G 2G11G 8G13G27G28G31G26
  -3057622.37746  -2930423.61546  24435024.2564   24435032.6274
       672.7344
   4040903.21848   3151982.22647  23325744.0144   23325750.0254
     -1591.8754
    948284.23745    744815.75545  25927986.5924   25927993.6154
      -815.5004
   7659499.76448   5964068.14047  22024151.2174   22024157.2054
     -2752.5474
  26282402.58841                  26824928.6624
     -6137.4534
  13545063.02647  10553541.77446  23224289.6704   23224295.6234
     -4007.0944
   6187892.14648   4821985.51947  22595655.5064   22595660.2524
     -2311.5314
  22051541.84643  17172402.69545  26125175.2794   26125183.9084
     -5840.8444
  -1365437.85745  -1016659.69845  25312151.4434   25312158.9824
       -26.5164
 01 10  2  1 36 45.0060000  0  9G 7G 2G11G 8G13G27G28G31G26
  -3067679.70746  -2938260.38646  24433109.8734   24433118.5844
       668.3134
   4064804.79248   3170606.85647  23330292.2714   23330298.2954
     -1594.9064
    960560.43545    754381.68845  25930323.6464   25930329.3534
      -821.2344
   7700838.63748   5996280.26847  22032017.8264   22032023.6504
     -2759.2194
  26374463.99642     47818.50054  26842448.4434   26842466.6464
     -6137.2974
  13605216.28047  10600414.44746  23235736.7014   23235742.7834
     -4013.2504
   6222599.39948   4849030.14547  22602259.9904   22602264.6894
     -2316.0004
  22139181.29843  17240693.31845  26141851.8504   26141861.2994
     -5844.3124
  -1364986.61745  -1016308.05245  25312237.4124   25312245.0574
       -33.5314
 01 10  2  1 37  0.0060000  0  9G 7G 2G11G 8G13G27G28G31G26
  -3077670.61446  -2946045.37646  24431208.7484   24431216.9784
       664.0944
   4088751.87548   3189266.95047  23334849.2564   23334855.1864
     -1597.7194
    972922.94545    764014.86945  25932676.5064   25932682.8464
      -826.7974
   7742277.61648   6028570.39247  22039903.2174   22039909.1114
     -2765.6724
  26466522.76943    119552.52245  26859966.1784   26859977.4674
     -6136.8914
  13665461.85347  10647359.05746  23247200.8184   23247206.8774
     -4019.1724
   6257373.74348   4876127.05447  22608877.2874   22608882.1154
     -2320.2504
  22226872.97544  17309024.52645  26158541.2254   26158549.3264
     -5847.5784
  -1364429.89045  -1015874.18845  25312343.5454   25312350.6034
       -40.3754
 01 10  2  1 37 15.0060000  0  9G 7G 2G11G 8G13G27G28G31G26
  -3087598.08846  -2953780.95446  24429319.2484   24429328.1824
       659.6414
   4112741.20448   3207959.96247  23339414.2954   23339420.2364
     -1600.7664
    985368.81445    773713.05745  25935043.8424   25935051.7914
      -832.5784
   7783813.60048   6060936.10947  22047807.1864   22047813.1394
     -2772.3594
  26558575.37042    191281.77145  26877483.0534   26877493.3114
     -6136.6874
  13725796.51647  10694373.08446  23258682.1784   23258688.2484
     -4025.3444
   6292211.89148   4903273.67847  22615506.8114   22615511.6974
     -2324.7344
  22314613.38843  17377393.76745  26175235.1314   26175241.5064
     -5851.0474
  -1363770.47345  -1015360.30945  25312468.7564   25312476.3654
       -47.4694
 01 10  2  1 37 30.0060000  0  9G 7G 2G11G 8G13G27G28G31G26
  -3097458.89246  -2961464.56346  24427442.6154   24427451.3854
       655.0634
   4136775.63348   3226688.11747  23343987.7794   23343993.7324
     -1603.8914
    997901.34745    783478.74745  25937428.5374   25937434.7254
      -838.4844
   7825449.45848   6093379.65747  22055730.4124   22055736.2484
     -2779.1564
  26650624.53542    263008.18644  26894999.9514   26895014.6274
     -6136.5624
  13786223.27947  10741458.88746  23270181.2564   23270187.2794
     -4031.6094
   6327116.66548   4930472.21747  22622148.7254   22622153.5884
     -2329.2974
  22402405.12143  17445802.98445  26191942.3814   26191950.0964
     -5854.5784
  -1363005.24145  -1014763.96245  25312614.6864   25312621.5924
       -54.6414
 01 10  2  1 37 45.0060000  0  9G 7G 2G11G 8G13G27G28G31G26
  -3107250.86546  -2969094.55546  24425579.1864   24425588.0494
       650.5944
   4160857.24448   3245453.03447  23348570.3034   23348576.3854
     -1606.9064
   1010523.00945    793313.85045  25939830.9984   25939838.7954
      -844.3124
   7867187.41348   6125902.75147  22063672.7484   22063678.6894
     -2785.8284
  26742672.00242    334733.24243  26912515.2714   26912522.9864
     -6136.3284
  13846744.14147  10788618.00346  23281697.7564   23281703.7324
     -4037.7504
   6362090.01848   4957724.19447  22628804.0614   22628808.8074
     -2333.7344
  22490249.85544  17514253.52645  26208659.4674   26208667.1114
     -5857.9694
  -1362131.67245  -1014083.23145  25312780.6784   25312787.2644
       -61.7504
 01 10  2  1 38  0.0060000  0  9G 7G 2G11G 8G13G27G28G31G26
  -3116977.84146  -2976673.88846  24423728.3734   24423736.7914
       646.3444
   4184981.75548   3264251.38247  23353161.1784   23353167.1784
     -1609.6724
   1023229.80245    803215.34645  25942249.2954   25942256.6934
      -849.9224
   7909023.47248   6158502.29147  22071633.9904   22071639.8734
     -2792.2814
  26834713.12142    406453.53843  26930030.1154   26930042.1894
     -6135.8124
  13907354.98247  10835847.23846  23293231.6464   23293237.7284
     -4043.6564
   6397127.69148   4985026.29147  22635471.4904   22635476.1544
     -2337.9374
  22578143.09443  17582741.88545  26225383.8654   26225389.0454
     -5861.0944
  -1361153.86045  -1013321.25645  25312966.8504   25312974.3774
       -68.6094
 01 10  2  1 38 15.0060000  0  9G 7G 2G11G 8G13G27G28G31G26
  -3126639.61946  -2984202.42346  24421889.7014   24421897.9784
       641.9844
   4209149.05748   3283083.07347  23357759.9204   23357765.8384
     -1612.5624
   1036021.95245    813183.29645  25944682.4674   25944689.2054
      -855.6414
   7950957.45648   6191178.13747  22079613.7094   22079619.6744
     -2798.8444
  26926747.56042    478168.50644  26947543.7874   26947559.8114
     -6135.3914
  13968055.69147  10883146.49446  23304782.4204   23304788.4204
     -4049.6874
   6432229.56848   5012378.41447  22642151.2564   22642155.9674
     -2342.2504
  22666084.29544  17651267.55745  26242119.6624   26242125.3344
     -5864.3124
  -1360071.58745  -1012477.88445  25313172.8424   25313180.1234
       -75.6254
 01 10  2  1 38 30.0060000  0  9G 7G 2G11G 8G13G27G28G31G26
  -3136235.89346  -2991679.92846  24420063.3574   24420071.5064
       637.5634
   4233359.20248   3301948.14447  23362366.9674   23362372.9674
     -1615.4374
   1048899.71945    823217.99145  25947132.8734   25947140.4364
      -861.3754
   7992989.73448   6223930.57847  22087612.1314   22087618.1544
     -2805.4374
  27018775.36042    549878.22844  26965057.7564   26965073.6864
     -6134.9374
  14028846.34747  10930515.84546  23316350.5684   23316356.5574
     -4055.7194
   6467395.52448   5039780.47447  22648843.0534   22648847.6934
     -2346.5314
  22754073.31744  17719830.48445  26258862.9674   26258870.9394
     -5867.5164
  -1358884.45246  -1011552.80145  25313398.7254   25313405.2404
       -82.6564
 01 10  2  1 38 45.0060000  0  9G 7G 2G11G 8G13G27G28G31G26
  -3145767.17046  -2999106.76946  24418249.8654   24418258.0144
       633.2194
   4257611.27748   3320845.88947  23366981.8184   23366987.6894
     -1618.2344
   1061862.79045    833319.18945  25949600.6704   25949607.7754
      -867.0784
   8035119.57148   6256759.03647  22095629.0534   22095634.9944
     -2811.9374
  27110795.31942    621582.07144  26982567.7564   26982580.8504
     -6134.3914
  14089726.17347  10977954.66646  23327935.7484   23327941.6664
     -4061.6564
   6502624.73748   5067231.82647  22655546.9594   22655551.7054
     -2350.7504
  22842109.04444  17788429.79345  26275615.1154   26275624.3074
     -5870.6094
  -1357592.91945  -1010546.38345  25313644.5684   25313651.1434
       -89.6094
 01 10  2  1 39  0.0060000  0  9G 7G 2G11G 8G13G27G28G31G26
  -3155232.36146  -3006482.13546  24416448.2644   24416456.2364
       628.7194
   4281906.14148   3339776.97847  23371605.0844   23371611.0254
     -1621.1564
   1074912.22345    843487.65945  25952083.5614   25952090.4204
      -872.9374
   8077347.85648   6289664.20747  22103664.7484   22103670.6664
     -2818.5784
  27202807.91442    693279.99145  27000077.7404   27000089.5684
     -6134.0164
  14150696.03247  11025463.64146  23339537.9124   23339544.0184
     -4067.7344
   6537918.04148   5094733.11247  22662263.0064   22662267.7284
     -2355.0944
  22930192.02343  17857065.97945  26292375.8034   26292382.9434
     -5873.8284
  -1356196.02445  -1009457.84945  25313910.0144   25313917.3894
       -96.7344
 01 10  2  1 39 15.0060000  0  9G 7G 2G11G 8G13G27G28G31G26
  -3164631.50046  -3013806.01246  24414659.7954   24414668.0254
       624.5004
   4306243.42648   3358741.11647  23376236.4204   23376242.4324
     -1623.7974
   1088048.16845    853723.52045  25954582.5764   25954589.9634
      -878.5164
   8119674.23548   6322645.81247  22111719.4044   22111725.2284
     -2824.9534
  27294812.66742    764971.86143  27017585.8344   27017599.4554
     -6133.2974
  14211755.65947  11073042.57546  23351156.9984   23351163.0804
     -4073.5314
   6573274.96048   5122283.97147  22668991.0764   22668995.9284
     -2359.1564
  23018321.65743  17925738.50045  26309146.4284   26309152.2644
     -5876.7504
  -1354693.51145  -1008287.01645  25314196.2404   25314203.1584
      -103.5944
 01 10  2  1 39 30.0060000  0  9G 7G 2G11G 8G13G27G28G31G26
  -3173966.34346  -3021079.79146  24412883.1464   24412891.6234
       620.0784
   4330620.96948   3377736.62747  23380875.2174   23380881.3344
     -1626.6094
   1101268.69645    864025.30045  25957098.1464   25957104.6274
      -884.2814
   8162096.99548   6355702.52047  22119792.0614   22119797.9324
     -2831.4694
  27386807.08542    836655.76744  27035090.8814   27035102.5214
     -6132.7034
  14272902.91647  11120689.78546  23362792.9364   23362798.9714
     -4079.5004
   6608693.26548   5149882.65847  22675731.0294   22675735.8464
     -2363.3594
  23106495.27744  17994445.27145  26325926.0684   26325934.0534
     -5879.8124
  -1353087.51845  -1007035.55945  25314501.5764   25314508.2094
      -110.6414
 01 10  2  1 39 45.0060000  0  9G 7G 2G11G 8G13G27G28G31G26
  -3183234.50646  -3028301.62646  24411119.3574   24411127.5884
       615.6414
   4355040.90048   3396765.16647  23385522.2014   23385528.0964
     -1629.4374
   1114576.27045    874394.90545  25959630.9434   25959637.9084
      -890.1254
   8204618.27648   6388835.99747  22127883.6234   22127889.6004
     -2838.0624
  27478793.00342    908332.80443  27052596.4364   27052615.8344
     -6132.1254
  14334139.98447  11168406.98146  23374445.8114   23374452.0214
     -4085.5004
   6644175.11348   5177530.86547  22682483.0214   22682487.8614
     -2367.6094
  23194714.85844  18063187.84245  26342713.4434   26342718.7404
     -5882.8754
  -1351375.37245  -1005701.36545  25314827.3574   25314834.4984
      -117.7194
 01 10  2  1 40  0.0060000  0  9G 7G 2G11G 8G13G27G28G31G26
  -3192435.09646  -3035470.80246  24409368.4984   24409376.7644
       611.3754
   4379503.98448   3415827.33647  23390177.2564   23390183.2444
     -1632.0474
   1127971.97145    884833.20645  25962180.1154   25962188.1584
      -895.7344
   8247238.81248   6422046.81747  22135993.9754   22135999.9514
     -2844.4224
  27570770.88543    980003.79544  27070099.3114   27070118.1464
     -6131.3124
  14395467.59247  11216194.72746  23386116.4124   23386122.2484
     -4091.2664
   6679721.17648   5205229.10447  22689247.1864   22689251.9784
     -2371.6094
  23282980.93544  18131966.67045  26359509.8894   26359516.5454
     -5885.6724
  -1349556.07245  -1004283.68845  25315173.4364   25315180.8934
      -124.6094
 01 10  2  1 40 15.0060000  0  9G 7G 2G11G 8G13G27G28G31G26
  -3201568.57946  -3042587.68446  24407630.4204   24407638.5104
       606.5944
   4404009.31948   3434922.42347  23394840.3814   23394846.4864
     -1635.1724
   1141455.21945    895339.73645  25964745.2644   25964751.6154
      -901.8914
   8289957.95448   6455334.47147  22144123.1624   22144129.1394
     -2851.3124
  27662739.62642   1051667.65244  27087598.4364   27087611.0964
     -6131.0624
  14456884.93247  11264052.38846  23397803.6154   23397809.5924
     -4097.5624
   6715330.52248   5232976.65847  22696023.4674   22696028.2254
     -2376.1414
  23371292.22444  18200780.71645  26376315.4904   26376322.7364
     -5889.0004
  -1347630.24545  -1002782.99845  25315540.0214   25315546.6784
      -132.0314
 01 10  2  1 40 30.0070000  0  9G 7G 2G11G 8G13G27G28G31G26
  -3210634.92846  -3049652.25046  24405905.0034   24405913.0814
       602.1884
   4428558.94248   3454052.01847  23399512.0504   23399517.9794
     -1637.8914
   1155027.85245    905915.90945  25967328.3864   25967335.7844
      -907.6564
   8332779.19748   6488701.68347  22152271.8084   22152277.7494
     -2857.7974
  27754705.54141   1123329.20745  27105099.2454   27105113.0544
     -6130.2814
  14518396.54847  11311983.51446  23409508.9484   23409515.0654
     -4103.4374
   6751006.00348   5260775.74447  22702812.2294   22702816.9054
     -2380.2504
  23459654.70644  18269634.62045  26393129.4954   26393137.0344
     -5891.8914
  -1345596.97745  -1001198.58745  25315926.7614   25315933.5114
      -139.0624
 01 10  2  1 40 45.0070000  0  9G 7G 2G11G 8G13G27G28G31G26
  -3219633.63646  -3056664.11346  24404192.6364   24404201.3234
       597.6414
   4453148.44448   3473212.69247  23404191.3154   23404197.3274
     -1640.7034
   1168687.16145    916559.58945  25969927.4794   25969933.5034
      -913.5784
   8375695.78948   6522143.19247  22160438.4564   22160444.4564
     -2864.4064
  27846654.99542   1194977.96943  27122599.0894   27122610.3434
     -6129.6414
  14579993.17247  11359980.87346  23421230.2694   23421236.3394
     -4109.4374
   6786741.57748   5288621.65547  22709612.5814   22709617.2694
     -2384.4694
  23548055.39844  18338518.37245  26409951.9174   26409958.2804
     -5894.8444
  -1343457.33745   -999531.27945  25316333.9564   25316341.0384
      -146.2194
 01 10  2  1 41  0.0070000  0  9G 7G 2G11G 8G13G27G28G31G26
  -3228566.78446  -3063624.89546  24402492.6204   24402500.8394
       593.2504
   4477777.77848   3492404.40247  23408878.1594   23408884.2764
     -1643.3754
   1182432.76545    927270.53045  25972543.4644   25972549.6864
      -919.3444
   8418709.07848   6555660.05247  22168623.7144   22168629.5734
     -2870.8754
  27938592.08042   1266617.16844  27140092.9404   27140104.8154
     -6128.8284
  14641677.32147  11408046.43946  23432968.5814   23432974.6514
     -4115.2814
   6822537.97748   5316514.96447  22716424.3084   22716429.0074
     -2388.5474
  23636498.14144  18407434.93445  26426782.7614   26426790.1714
     -5897.6564
  -1341212.48145   -997782.01045  25316761.4014   25316769.9724
      -153.2504
 01 10  2  1 41 15.0070000  0  9G 7G 2G11G 8G13G27G28G31G26
  -3237432.66246  -3070533.25246  24400805.3544   24400813.7964
       589.0474
   4502448.25748   3511628.16647  23413572.7224   23413578.7454
     -1645.8284
   1196266.25145    938049.95845  25975176.0264   25975183.6014
      -924.9374
   8461820.45448   6589253.34247  22176827.5194   22176833.4834
     -2877.1254
  28030518.03942   1338247.63943  27157585.7534   27157602.3514
     -6127.7974
  14703450.30847  11456181.23146  23444723.3234   23444729.4174
     -4120.9224
   6858396.46848   5344456.65647  22723247.8624   22723252.5264
     -2392.3914
  23724983.84644  18476384.97445  26443619.9954   26443626.3474
     -5900.2344
  -1338860.87845   -995949.53545  25317208.5734   25317216.6164
      -160.1094
 01 10  2  1 41 30.0070000  0  9G 7G 2G11G 8G13G27G28G31G26
  -3246233.24646  -3077390.73546  24399130.7144   24399139.2264
       584.3284
   4527157.73748   3530882.32847  23418274.8784   23418280.9134
     -1648.7814
   1210185.92945    948896.54545  25977824.1284   25977831.5854
      -931.0314
   8505027.87548   6622921.46947  22185049.5894   22185055.3904
     -2883.8754
  28122430.37842   1409867.53245  27175076.1204   27175097.1984
     -6127.2034
  14765309.98047  11504383.56846  23456494.9254   23456500.8904
     -4127.0474
   6894314.86148   5372445.02147  22730082.9484   22730087.6014
     -2396.7344
  23813510.20143  18545366.55345  26460466.0424   26460473.4294
     -5903.2814
  -1336404.29545   -994035.29245  25317676.0034   25317683.2024
      -167.4694
 01 10  2  1 41 45.0070000  0  9G 7G 2G11G 8G13G27G28G31G26
  -3254964.01246  -3084193.82146  24397469.2374   24397477.3154
       579.7504
   4551910.41448   3550170.15147  23422985.0974   23422991.0504
     -1651.5784
   1224196.20745    959813.72445  25980490.1674   25980497.9404
      -937.0164
   8548335.61448   6656667.76947  22193290.8084   22193296.7264
     -2890.5004
  28214332.98542   1481479.72043  27192564.8004   27192583.6834
     -6126.4844
  14827260.56447  11552656.74946  23468283.8784   23468289.7724
     -4133.0474
   6930297.20948   5400483.22547  22736930.2294   22736934.9054
     -2400.9224
  23902080.89245  18614382.80245  26477320.4874   26477328.4134
     -5906.1724
  -1333838.34945   -992035.79745  25318164.0584   25318171.1754
      -174.7034
 01 10  2  1 42  0.0070000  0  8G 7G 2G11G 8G27G28G31G26
  -3263627.05246  -3090944.12146  24395820.6514   24395828.9174
       575.2974
   4576703.84048   3569489.72547  23427703.0654   23427708.9724
     -1654.2344
   1238295.02245    970799.91145  25983173.1124   25983179.5344
      -942.8594
   8591741.52248   6690490.56347  22201550.5814   22201556.5224
     -2897.0004
  14889299.76747  11600998.97946  23480089.3004   23480095.4404
     -4138.8914
   6966341.14648   5428569.41447  22743789.1284   22743793.7574
     -2404.9694
  23990693.33644  18683431.67945  26494182.1044   26494187.8114
     -5908.8754
  -1331165.08745   -989952.68645  25318672.6984   25318680.6474
      -181.7814
 01 10  2  1 42 15.0070000  0  8G 7G 2G11G 8G27G28G31G26
  -3272220.94746  -3097640.55046  24394184.9014   24394193.0974
       570.6884
   4601539.14248   3588841.92447  23432429.0034   23432434.9684
     -1657.0474
   1252483.84245    981856.24345  25985873.6754   25985880.2724
      -948.8914
   8635246.84248   6724390.81947  22209829.4644   22209835.4524
     -2903.6254
  14951428.70547  11649411.13346  23491912.1444   23491918.1554
     -4144.8754
   7002447.71348   5456704.41047  22750660.0734   22750664.5974
     -2409.1564
  24079348.32243  18752513.57945  26511052.2844   26511058.1674
     -5911.6724
  -1328383.06545   -987784.82145  25319202.3704   25319210.4254
      -189.0624
 01 10  2  1 42 30.0070000  0  8G 7G 2G11G 8G27G28G31G26
  -3280745.97046  -3104283.31346  24392562.8944   24392570.8194
       566.1094
   4626415.80548   3608226.35447  23437162.9644   23437168.9994
     -1659.7504
   1266762.50645    992982.54245  25988590.6594   25988597.3514
      -954.8444
   8678851.01348   6758368.10447  22218126.9794   22218132.8974
     -2910.1874
  15013646.88447  11697892.82046  23503752.2614   23503758.1324
     -4150.7814
   7038616.38148   5484887.79847  22757542.6364   22757547.2534
     -2413.2344
  24168044.98945  18821627.94145  26527931.4794   26527939.1834
     -5914.4064
  -1325492.40345   -985532.32845  25319752.1984   25319759.3514
      -196.2664
 01 10  2  1 42 45.0070000  0  8G 7G 2G11G 8G27G28G31G26
  -3289202.30146  -3110872.56046  24390953.2294   24390960.9214
       561.3134
   4651333.28648   3627642.58947  23441904.5894   23441910.5774
     -1662.6564
   1281130.82845   1004178.74345  25991324.8234   25991330.6124
      -961.0314
   8722553.76148   6792422.20147  22226443.2844   22226449.1794
     -2916.9374
  15075953.81847  11746443.66846  23515608.5114   23515614.6164
     -4156.8914
   7074846.53748   5513119.09247  22764437.0114   22764441.6754
     -2417.5314
  24256782.62443  18890774.25645  26544817.3474   26544825.8944
     -5917.3124
  -1322493.40645   -983195.39745  25320322.8314   25320330.5114
      -203.6724
 01 10  2  1 43  0.0070000  0  8G 7G 2G11G 8G27G28G31G26
  -3297587.35146  -3117406.25946  24389357.6514   24389365.5654
       556.7664
   4676293.84948   3647092.38947  23446654.1514   23446660.1754
     -1665.3284
   1295591.50745   1015446.88445  25994075.5194   25994082.1404
      -966.9844
   8766357.62948   6826555.09247  22234778.9484   22234784.9604
     -2923.4844
  15138351.89447  11795065.53746  23527482.7844   23527488.7614
     -4162.7664
   7111140.55048   5541400.15147  22771343.4794   22771348.1904
     -2421.5784
  24345563.22543  18959953.97545  26561711.4174   26561717.6044
     -5919.9844
  -1319383.39645   -980771.97145  25320914.1514   25320921.9834
      -210.8754
 01 10  2  1 43 15.0070000  0  8G 7G 2G11G 8G27G28G31G26
  -3305905.85646  -3123888.10746  24387774.8624   24387782.8234
       552.2814
   4701292.42748   3666571.81547  23451411.3544   23451417.2374
     -1667.9064
   1310139.75545   1026783.26145  25996844.0114   25996851.3864
      -972.8754
   8810257.55848   6860762.83447  22243132.8084   22243138.6554
     -2929.9224
  15200836.04147  11843754.46946  23539372.9794   23539378.9564
     -4168.5474
   7147493.26348   5569726.94647  22778261.2224   22778265.8154
     -2425.5314
  24434381.44944  19029163.14145  26578613.1284   26578618.7764
     -5922.5314
  -1316167.18045   -978265.78945  25321526.6284   25321533.7694
      -218.0314
 01 10  2  1 43 30.0070000  0  8G 7G 2G11G 8G27G28G31G26
  -3314152.29146  -3130313.79946  24386205.2614   24386213.1634
       547.3444
   4726334.31548   3686084.98747  23456176.6754   23456182.6164
     -1670.9064
   1324781.10145   1038192.21745  25999630.2294   25999638.0384
      -979.2034
   8854259.03048   6895049.70347  22251506.0894   22251511.9954
     -2936.8284
  15263411.58247  11892514.62346  23551280.6444   23551286.6324
     -4174.7664
   7183909.93048   5598103.58147  22785191.0654   22785195.6834
     -2429.9064
  24523242.24743  19098405.39445  26595521.9094   26595527.4994
     -5925.4694
  -1312839.10446   -975672.43545  25322160.2534   25322167.6044
      -225.6094
 01 10  2  1 43 45.0070000  0  8G 7G 2G11G 8G27G28G31G26
  -3322328.47646  -3136684.74946  24384649.4014   24384656.9644
       542.9534
   4751417.45248   3705630.30147  23460949.9404   23460955.9054
     -1673.3594
   1339513.87545   1049672.33845  26002434.4404   26002439.2574
      -985.0164
   8898359.86948   6929414.00347  22259898.1444   22259904.1324
     -2943.1414
  15326076.43747  11941344.37146  23563205.2144   23563211.3784
     -4180.4064
   7220388.35048   5626528.33247  22792132.7374   22792137.3084
     -2433.7194
  24612143.18343  19167678.94445  26612438.8544   26612446.8154
     -5927.8284
  -1309401.08845   -972993.42245  25322813.7454   25322821.0974
      -232.6414
 01 10  2  1 44  0.0070000  0  8G 7G 2G11G 8G27G28G31G26
  -3330436.66546  -3143002.71946  24383106.3394   24383114.3114
       538.1724
   4776539.25348   3725205.74647  23465730.3864   23465736.2924
     -1676.1724
   1354335.74745   1061221.98245  26005254.5114   26005261.4644
      -991.2034
   8942557.86748   6963854.00947  22268308.7374   22268314.6904
     -2949.8754
  15388828.04847  11990241.72246  23575146.6044   23575152.6984
     -4186.4374
   7256925.90648   5654999.16447  22799085.3394   22799090.1324
     -2437.9224
  24701081.38245  19236981.52245  26629366.1514   26629373.4564
     -5930.5624
  -1305855.23845   -970230.35845  25323488.4954   25323495.0584
      -240.0944
 01 10  2  1 44 15.0070000  0  8G 7G 2G11G 8G27G28G31G26
  -3338475.73446  -3149266.82446  24381576.7454   24381584.4724
       533.2974
   4801700.62148   3744812.02147  23470518.4794   23470524.5034
     -1679.0784
   1369247.96945   1072841.94245  26008092.3004   26008098.2654
      -997.5004
   8986853.88848   6998370.39547  22276737.9644   22276743.9404
     -2956.6874
  15451667.36547  12039207.41546  23587104.3544   23587110.5304
     -4192.5474
   7293523.43748   5683516.73347  22806049.8314   22806054.5194
     -2442.1724
  24790057.56043  19306313.70145  26646294.9334   26646300.6864
     -5933.3444
  -1302200.47445   -967382.45945  25324184.1674   25324191.1324
      -247.6254
 01 10  2  1 44 30.0070000  0  8G 7G 2G11G 8G27G28G31G26
  -3346439.58546  -3155472.32046  24380060.9644   24380068.9014
       528.5784
   4826907.31848   3764453.62047  23475315.0814   23475320.9764
     -1681.7814
   1384256.71445   1084537.17345  26010948.4174   26010955.5114
     -1003.6414
   9031253.89248   7032967.81347  22285187.0504   22285192.9794
     -2963.2974
  15514600.16647  12088245.95046  23599080.4014   23599086.3084
     -4198.4694
   7330186.74848   5712085.55447  22813026.4724   22813031.1834
     -2446.2344
  24879077.13743  19375679.72945  26663234.4954   26663241.1754
     -5935.9224
  -1298430.67945   -964444.91345  25324901.3944   25324909.3784
      -255.0004
 01 10  2  1 44 45.0070000  0  8G 7G 2G11G 8G27G28G31G26
  -3354333.95746  -3161623.67446  24378558.5654   24378566.4444
       524.1254
   4852153.29748   3784125.82447  23480119.1284   23480125.2224
     -1684.2344
   1399356.23045   1096303.11145  26013821.5894   26013827.6834
     -1009.5164
   9075751.96748   7067641.64747  22293654.6284   22293660.5584
     -2969.6724
  15577620.45647  12137352.66546  23611072.4404   23611078.4524
     -4204.1254
   7366909.68248   5740700.83947  22820014.7764   22820019.6284
     -2450.0474
  24968133.69945  19445074.46945  26680183.3314   26680190.6594
     -5938.1874
  -1294551.58146   -961422.18745  25325640.1204   25325647.6944
      -262.1094
 01 10  2  1 45  0.0070000  0  8G 7G 2G11G 8G27G28G31G26
  -3362159.12446  -3167721.10546  24377069.5814   24377077.3904
       519.3594
   4877437.96648   3803828.17647  23484930.6364   23484936.5544
     -1686.9534
   1414546.26045   1108139.53145  26016711.8784   26016717.5504
     -1015.7034
   9120347.61648   7102391.51347  22302140.9644   22302146.9404
     -2976.3124
  15640727.67347  12186527.11046  23623081.7844   23623088.0194
     -4210.0624
   7403691.74648   5769362.19547  22827014.0194   22827018.7654
     -2454.1094
  25057226.38443  19514497.43745  26697135.9174   26697140.1474
     -5940.7504
  -1290563.44746   -958314.50545  25326398.5344   25326405.0154
      -269.5314
 01 10  2  1 45 15.0070000  0  8G 7G 2G11G 8G27G28G31G26
  -3369914.89546  -3173764.46546  24375593.2844   24375600.6944
       514.6414
   4902761.25448   3823560.62347  23489749.6044   23489755.5934
     -1689.6094
   1429826.96345   1120046.67445  26019619.2374   26019625.6014
     -1021.8444
   9165040.84848   7137217.42047  22310645.7844   22310651.6904
     -2982.9064
  15703921.75347  12235769.24246  23635107.1754   23635113.1984
     -4215.9374
   7440532.75148   5798069.48747  22834024.7294   22834029.4404
     -2458.1254
  25146354.89943  19583948.26145  26714095.7144   26714106.3704
     -5943.1724
  -1286466.11146   -955121.71245  25327178.1284   25327185.7844
      -276.9224
 01 10  2  1 45 30.0070000  0  8G 7G 2G11G 8G27G28G31G26
  -3377601.66446  -3179754.04946  24374130.3084   24374137.6944
       510.1414
   4928122.47448   3843322.62547  23494575.6904   23494581.6324
     -1692.0164
   1445198.14645   1132024.27145  26022544.7764   26022551.1864
     -1027.7504
   9209831.25848   7172119.04747  22319169.0734   22319174.9684
     -2989.2664
  15767202.10947  12285078.59346  23647149.1904   23647155.0614
     -4221.5784
   7477431.90948   5826822.08947  22841046.4484   22841051.2294
     -2461.8914
  25235518.28643  19653426.18545  26731063.9564   26731071.0154
     -5945.4064
  -1282259.89946   -951844.10145  25327978.6904   25327986.1834
      -284.0474
 01 10  2  1 45 45.0070000  0  8G 7G 2G11G 8G27G28G31G26
  -3385217.41846  -3185688.31146  24372681.6124   24372689.5614
       505.3914
   4953523.36448   3863115.54047  23499409.2224   23499415.1514
     -1694.6564
   1460661.92245   1144074.02445  26025487.3864   26025494.5504
     -1033.9694
   9254720.72148   7207097.86147  22327711.2614   22327717.1794
     -2995.8914
  15830570.52247  12334456.55946  23659207.5584   23659213.5584
     -4227.4374
   7514390.96948   5855621.36947  22848079.3544   22848084.1474
     -2465.8754
  25324718.06544  19722932.58745  26748037.6364   26748043.9524
     -5947.8124
  -1277942.62046   -948479.96045  25328800.0194   25328806.7454
      -291.4694
 01 10  2  1 46  0.0070000  0  8G 7G 2G11G 8G27G28G31G26
  -3392762.23646  -3191567.29446  24371245.7374   24371253.0424
       500.7344
   4978963.44848   3882938.99747  23504250.3784   23504256.4954
     -1697.2034
   1476217.98945   1156195.72945  26028447.0894   26028455.0384
     -1040.0474
   9299708.71648   7242153.45147  22336272.1444   22336278.1324
     -3002.3914
  15894026.51047  12383902.77546  23671282.6984   23671288.8394
     -4233.2194
   7551409.46748   5884466.96447  22855123.8154   22855128.5034
     -2469.7664
  25413953.52343  19792466.74745  26765018.5894   26765025.1864
     -5950.0944
  -1273514.66446   -945029.55645  25329642.9254   25329649.5114
      -298.7814
 01 10  2  1 46 15.0070000  0  8G 7G 2G11G 8G27G28G31G26
  -3400237.93946  -3197392.41946  24369823.2454   24369830.6904
       495.9064
   5004440.77148   3902791.47347  23509098.5894   23509104.5654
     -1699.8914
   1491864.71945   1168388.03745  26031424.8234   26031431.5854
     -1046.3284
   9344793.57948   7277284.52447  22344851.5114   22344857.4524
     -3009.0474
  15957568.12347  12433415.70546  23683374.2694   23683380.3394
     -4239.1414
   7588485.28748   5913357.22947  22862179.2224   22862183.9914
     -2473.7974
  25503222.32043  19862026.86345  26782006.3704   26782010.8234
     -5952.5474
  -1268977.65146   -941494.17245  25330505.8084   25330512.8194
      -306.2814
 01 10  2  1 46 30.0070000  0  8G 7G 2G11G 8G27G28G31G26
  -3407639.73146  -3203159.96246  24368414.5814   24368422.1324
       491.2664
   5029959.74848   3922676.40247  23513954.4954   23513960.4954
     -1702.3594
   1507606.91445   1180654.73045  26034420.5584   26034426.7804
     -1052.3754
   9389979.65348   7312494.46247  22353450.1754   22353455.9874
     -3015.4844
  16021199.83747  12482998.84646  23695482.9254   23695488.9954
     -4244.8284
   7625622.88548   5942295.62747  22869246.1124   22869250.8824
     -2477.6094
  25592528.69843  19931616.29645  26798999.9564   26799005.3354
     -5954.7344
  -1264326.73446   -937870.03545  25331391.5424   25331397.7764
      -313.5784
 01 10  2  1 46 45.0070000  0  8G 7G 2G11G 8G27G28G31G26
  -3414972.46046  -3208873.68146  24367019.0734   24367026.4604
       486.3444
   5055515.29648   3942589.83447  23518817.7294   23518823.6124
     -1705.1254
   1523439.76545   1192992.11745  26037433.2694   26037439.7614
     -1058.7664
   9435262.03548   7347779.44447  22362067.2764   22362073.2534
     -3022.2504
  16084916.51747  12532648.19646  23707608.0194   23707614.1124
     -4250.8124
   7662817.07248   5971278.12847  22876324.0034   22876328.7724
     -2481.7034
  25681867.05644  20001230.66645  26816001.4174   26816008.1674
     -5957.1564
  -1259566.89446   -934161.02046  25332296.8624   25332303.4834
      -321.1564
 01 10  2  1 47  0.0070000  0  8G 7G 2G11G 8G27G28G31G26
  -3422233.40446  -3214531.46246  24365637.3544   24365644.7884
       481.7344
   5081109.83948   3962533.64447  23523688.0264   23523694.0974
     -1707.5314
   1539366.08845   1205402.26645  26040464.0654   26040471.1944
     -1064.8124
   9480643.24748   7383141.43747  22370702.9094   22370708.7694
     -3028.6564
  16148720.70047  12582365.72446  23719749.6594   23719755.7534
     -4256.4694
   7700070.28348   6000306.61447  22883413.0264   22883417.8664
     -2485.4534
  25771239.65644  20070871.65145  26833008.2844   26833016.2224
     -5959.2344
  -1254695.31146   -930364.93945  25333223.8944   25333230.9174
      -328.4374
 01 10  2  1 47 15.0070000  0  8G 7G 2G11G 8G27G28G31G26
  -3429424.66046  -3220134.94446  24364268.6514   24364275.8974
       477.0164
   5106741.00848   3982506.00747  23528565.4484   23528571.4364
     -1710.0314
   1555383.81045   1217883.67045  26043510.8474   26043517.5734
     -1070.9534
   9526121.13348   7418578.76347  22379357.0734   22379363.0734
     -3035.1564
  16212610.00947  12632149.59246  23731907.3624   23731913.5264
     -4262.1874
   7737380.13948   6029379.24947  22890512.6594   22890517.4874
     -2489.2814
  25860643.89143  20140537.37045  26850020.8944   26850025.7924
     -5961.4064
  -1249714.06346   -926483.39545  25334171.6514   25334177.6634
      -335.8124
 01 10  2  1 47 30.0070000  0  8G 7G 2G11G 8G27G28G31G26
  -3436544.03346  -3225682.42446  24362913.8394   24362921.2144
       472.1564
   5132410.68048   4002508.36347  23533450.3864   23533456.1864
     -1712.6414
   1571495.09545   1230437.99645  26046577.6044   26046585.1204
     -1077.2664
   9571697.69948   7454092.98147  22388029.8314   22388035.8544
     -3041.7814
  16276586.35947  12682001.28346  23744081.7924   23744087.8624
     -4268.0474
   7774748.44648   6058497.42647  22897623.6754   22897628.4214
     -2493.2344
  25950081.33443  20210228.90945  26867040.5584   26867046.9564
     -5963.6414
  -1244620.97046   -922514.69645  25335140.7844   25335147.4404
      -343.3284
 01 10  2  1 47 45.0070000  0  8G 7G 2G11G 8G27G28G31G26
  -3443593.15746  -3231175.15146  24361572.0974   24361579.7064
       467.5474
   5158116.88048   4022539.18547  23538342.0584   23538348.0584
     -1715.0164
   1587698.41945   1243063.98445  26049660.7374   26049667.2534
     -1083.3444
   9617371.07848   7489682.63547  22396721.1514   22396727.1164
     -3048.1724
  16340647.84847  12731919.31846  23756272.1044   23756278.1514
     -4273.6414
   7812173.30948   6087659.67147  22904745.4954   22904750.1474
     -2496.9064
  26039549.82544  20279944.65845  26884065.4564   26884072.7024
     -5965.6414
  -1239417.56646   -918460.07745  25336131.0814   25336138.3514
      -350.6254
 01 10  2  1 48  0.0070000  0  8G 7G 2G11G 8G27G28G31G26
  -3450570.35946  -3236611.84346  24360244.3154   24360251.9484
       462.7194
   5183860.99848   4042599.55347  23543240.8234   23543246.8704
     -1717.5784
   1603995.42745   1255763.00645  26052761.9484   26052769.5114
     -1089.6254
   9663142.86448   7525348.97547  22405431.4334   22405437.3274
     -3054.7664
  16404795.84247  12781904.76046  23768479.2454   23768485.1984
     -4279.4534
   7849655.95948   6116866.94847  22911878.0814   22911882.8154
     -2500.7974
  26129050.44543  20349685.45245  26901096.8624   26901101.9014
     -5967.7814
  -1234102.37346   -914318.29245  25337142.4874   25337150.4604
      -358.1254
 01 10  2  1 48 15.0070000  0  8G 7G 2G11G 8G27G28G31G26
  -3457477.04546  -3241993.58746  24358930.0584   24358937.9254
       458.0314
   5209641.52348   4062688.29647  23548146.7224   23548152.6514
     -1719.9694
   1620384.80545   1268534.02945  26055880.3624   26055887.8084
     -1095.7664
   9709011.35948   7561090.67047  22414159.9094   22414165.8044
     -3061.1874
  16469028.84147  12831956.43246  23780702.0894   23780708.3704
     -4285.0944
   7887194.87848   6146118.06947  22919021.5814   22919026.3044
     -2504.5314
  26218581.36643  20419449.85645  26918134.1444   26918146.1474
     -5969.7664
  -1228676.50846   -910090.30545  25338174.8154   25338181.7224
      -365.4844
 01 10  2  1 48 30.0070000  0  8G 7G 2G11G 8G27G28G31G26
  -3464310.79146  -3247318.49246  24357629.5194   24357637.0584
       453.1094
   5235460.47648   4082806.97947  23553060.0194   23553066.0424
     -1722.5624
   1636868.95645   1281378.86545  26059017.8864   26059022.5504
     -1102.1414
   9754978.86248   7596909.51447  22422907.1204   22422913.0264
     -3067.8284
  16533348.82247  12882075.89046  23792941.7454   23792947.8154
     -4290.9224
   7924792.00148   6175414.54347  22926175.9954   22926180.6364
     -2508.4374
  26308144.14444  20489239.19045  26935177.5194   26935183.9994
     -5971.9224
  -1223137.73946   -905774.33545  25339228.9404   25339235.9404
      -373.0474
 01 10  2  1 48 45.0070000  0  8G 7G 2G11G 8G27G28G31G26
  -3471072.03947  -3252586.91946  24356343.1674   24356350.1904
       448.3134
   5261317.16748   4102955.06747  23557980.3474   23557986.3824
     -1725.0314
   1653447.49245   1294297.26045  26062172.6364   26062177.7454
     -1108.3914
   9801044.75848   7632805.02747  22431673.1674   22431678.9684
     -3074.3444
  16597755.13347  12932262.62246  23805197.6594   23805203.5304
     -4296.6254
   7962446.55648   6204755.77247  22933341.3624   22933345.8864
     -2512.2194
  26397737.96744  20559052.72345  26952226.6834   26952234.5264
     -5973.9694
  -1217486.38446   -901370.65245  25340304.2694   25340311.5734
      -380.5164
 01 10  2  1 49  0.0070000  0  8G 7G 2G11G 8G27G28G31G26
  -3477763.69347  -3257801.11246  24355069.6364   24355076.6944
       443.6414
   5287208.31048   4123130.00547  23562907.3704   23562913.3474
     -1727.3754
   1670117.52545   1307286.93445  26065344.8704   26065349.9094
     -1114.5474
   9847206.03648   7668774.87047  22440457.3314   22440463.3784
     -3080.7504
  16662244.55747  12982514.10146  23817469.7764   23817475.8114
     -4302.2194
   8000155.35548   6234139.26847  22940517.1834   22940521.7414
     -2515.8754
  26487359.29943  20628887.51245  26969280.6594   26969285.7694
     -5975.8594
  -1211725.45246   -896881.55345  25341400.6984   25341407.3544
      -387.8754
 01 10  2  1 49 15.0070000  0  8G 7G 2G11G 8G27G28G31G26
  -3484382.98147  -3262958.91446  24353810.0974   24353817.6014
       438.8444
   5313136.48648   4143333.80047  23567841.1284   23567846.9524
     -1729.8124
   1686882.06545   1320350.26145  26068534.5584   26068542.2264
     -1120.8124
   9893465.37248   7704821.11447  22449260.1984   22449266.0934
     -3087.2664
  16726819.68747  13032832.38246  23829758.1594   23829764.3474
     -4307.9064
   8037920.89048   6263566.97647  22947703.6444   22947708.1324
     -2519.6414
  26577010.49944  20698745.77345  26986341.8704   26986348.9294
     -5977.7664
  -1205852.05446   -892304.84145  25342518.0424   25342524.4874
      -395.3594
 01 10  2  1 49 30.0070000  0  8G 7G 2G11G 8G27G28G31G26
  -3490930.28347  -3268060.63046  24352563.9174   24352570.9404
       434.1724
   5339101.01848   4163565.92347  23572782.0194   23572787.9834
     -1732.1094
   1703740.61445   1333486.89045  26071742.4954   26071749.7184
     -1126.9534
   9939822.10648   7740943.25547  22458081.6674   22458087.6444
     -3093.6254
  16791479.85447  13083216.91646  23842062.3004   23842068.4054
     -4313.4374
   8075742.49548   6293038.37047  22954900.9874   22954905.5464
     -2523.2344
  26666690.41544  20768626.38445  27003406.3314   27003415.0074
     -5979.5474
  -1199866.51646   -887640.73845  25343657.3784   25343664.3544
      -402.7034
 01 10  2  1 49 45.0070000  0  8G 7G 2G11G 8G27G28G31G26
  -3497406.06647  -3273106.61846  24351331.3234   24351338.5694
       429.2194
   5365101.15348   4183825.79247  23577729.7144   23577735.6554
     -1734.6414
   1720692.53745   1346696.21045  26074968.3944   26074972.6944
     -1133.3754
   9986275.57848   7777140.77747  22466921.3864   22466927.3044
     -3100.2504
  16856224.26947  13133667.10346  23854382.5814   23854388.7804
     -4319.2344
   8113619.26648   6322552.75347  22962108.6444   22962113.2844
     -2527.0624
  26756398.06643  20838528.51645  27020477.7064   27020486.0424
     -5981.5474
  -1193769.49646   -882889.77745  25344817.3154   25344824.0194
      -410.3124
 01 10  2  1 50  0.0070000  0  8G 7G 2G11G 8G27G28G31G26
  -3503808.10947  -3278095.14246  24350113.3314   24350120.9524
       424.3754
   5391138.94848   4204114.99847  23582684.5264   23582690.5734
     -1737.0474
   1737740.42045   1359980.36445  26078212.7924   26078218.5694
     -1139.6724
  10032827.87248   7813415.30747  22475780.2144   22475786.0504
     -3106.7344
  16921055.00347  13184184.54846  23866719.8864   23866725.9094
     -4324.8754
   8151553.20148   6352111.67947  22969327.0894   22969331.6474
     -2530.7814
  26846135.25743  20908453.77945  27037552.2224   27037557.0614
     -5983.4064
  -1187558.52046   -878050.00845  25345999.4874   25346005.8514
      -417.7974
 01 10  2  1 50 15.0070000  0  8G 7G 2G11G 8G27G28G31G26
  -3510139.01047  -3283028.23046  24348908.4874   24348915.6864
       419.5164
   5417211.43448   4224431.23947  23587645.9174   23587651.8114
     -1739.4844
   1754881.52245   1373337.10445  26081473.6514   26081479.6284
     -1146.0164
  10079476.21748   7849764.67647  22484656.9404   22484662.8584
     -3113.2504
  16985969.05247  13234766.92346  23879072.6124   23879078.8234
     -4330.5474
   8189541.30748   6381712.81947  22976556.1594   22976560.7534
     -2534.5164
  26935898.71645  20978399.41045  27054635.0894   27054641.0304
     -5985.2664
  -1181236.41446   -873123.63846  25347202.0114   25347208.9994
      -425.3754
 01 10  2  1 50 30.0070000  0  8G 7G 2G11G 8G27G28G31G26
  -3516397.50647  -3287904.90046  24347717.3314   24347724.7064
       414.9534
   5443319.56348   4244775.25447  23592614.0894   23592620.0074
     -1741.5784
   1772117.12445   1386767.53845  26084754.4254   26084762.3274
     -1152.0474
  10126221.76248   7886189.78847  22493552.3154   22493558.2104
     -3119.4694
  17050967.48247  13285415.03646  23891441.6674   23891447.6904
     -4335.8914
   8227584.53648   6411356.91247  22983795.4484   22983800.0304
     -2537.8914
  27025689.12144  21048366.10545  27071721.4484   27071730.8624
     -5986.7814
  -1174801.65646   -868109.50545  25348426.7614   25348432.9834
      -432.5784
 01 10  2  1 50 45.0070000  0  8G 7G 2G11G 8G27G28G31G26
  -3522583.88947  -3292725.38046  24346540.0034   24346547.3904
       409.9384
   5469462.74148   4265146.58947  23597588.9484   23597594.9364
     -1744.1254
   1789447.01345   1400271.40445  26088051.1444   26088057.7184
     -1158.5474
  10173064.03248   7922690.27147  22502466.0974   22502472.0034
     -3126.1094
  17116049.72247  13336128.46346  23903826.3784   23903832.1674
     -4341.6724
   8265682.22848   6441043.44047  22991045.1754   22991049.8514
     -2541.7344
  27115505.76043  21118353.32945  27088811.7144   27088819.3474
     -5988.7194
  -1168254.76846   -863007.98645  25349672.4404   25349679.4644
      -440.2814
 01 10  2  1 51  0.0070000  0  8G 7G 2G11G 8G27G28G31G26
  -3528696.73247  -3297488.55846  24345376.8784   24345384.2884
       404.9844
   5495642.24348   4285546.22547  23602570.6594   23602576.6594
     -1746.5784
   1806872.70245   1413849.91445  26091368.2844   26091374.5304
     -1164.9844
  10220004.26348   7959267.08747  22511398.4254   22511404.3314
     -3132.7194
  17181216.97547  13386908.13546  23916227.3394   23916233.5734
     -4347.3914
   8303835.71748   6470773.44447  22998305.5814   22998310.2804
     -2545.5004
  27205349.56944  21188361.54045  27105909.6204   27105917.6284
     -5990.5624
  -1161594.13746   -857817.82945  25350939.6904   25350946.4764
      -447.9064
 01 10  2  1 51 15.0070000  0  8G 7G 2G11G 8G27G28G31G26
  -3534736.06947  -3302194.45046  24344227.7224   24344234.8974
       400.0314
   5521857.68748   4305973.86247  23607559.3544   23607565.2964
     -1749.0164
   1824394.08345   1427502.98445  26094702.2694   26094708.7264
     -1171.4064
  10267042.33248   7995920.13947  22520349.4254   22520355.3904
     -3139.2664
  17246468.92047  13437753.80246  23928644.1044   23928650.0344
     -4353.0784
   8342044.52548   6500546.56247  23005576.3394   23005580.8974
     -2549.2194
  27295219.63444  21258390.22145  27123011.7064   27123021.7184
     -5992.3284
  -1154819.84246   -852539.12445  25352228.8704   25352235.6904
      -455.5474
 01 10  2  1 51 30.0070000  0  8G 7G 2G11G 8G27G28G31G26
  -3540701.39047  -3306842.68146  24343092.3084   24343099.1514
       395.2974
   5548109.36248   4326429.72747  23612555.0264   23612560.9214
     -1751.2344
   1842011.82345   1441231.20145  26098054.7144   26098060.7614
     -1177.6254
  10314178.51548   8032649.64547  22529319.3784   22529325.2144
     -3145.6254
  17311805.91247  13488665.73146  23941077.1594   23941083.1014
     -4358.5474
   8380308.85548   6530362.93847  23012857.8314   23012862.4724
     -2552.7194
  27385116.28343  21328439.67343  27140116.4014   27140126.3314
     -5993.8914
  -1147931.39146   -847171.42446  25353540.0114   25353546.9644
      -462.9534
 01 10  2  1 51 45.0080000  0  8G 7G 2G11G 8G27G28G31G26
  -3546594.30747  -3311434.48446  24341970.8754   24341977.7464
       390.4384
   5574397.53148   4346914.04047  23617557.3364   23617563.3364
     -1753.5474
   1859725.82345   1455034.37945  26101425.1954   26101430.7624
     -1183.9844
  10361414.54848   8069456.95247  22538307.9304   22538313.8014
     -3152.0474
  17377230.78447  13539646.14946  23953526.9694   23953533.1914
     -4364.1094
   8418629.75748   6560223.39547  23020150.0944   23020154.6764
     -2556.3124
  27475043.67243  21398513.21844  27157230.1804   27157233.5904
     -5995.5314
  -1140929.52346   -841715.39646  25354871.9374   25354878.2664
      -470.5004
 01 10  2  1 52  0.0080000  0  8G 7G 2G11G 8G27G28G31G26
  -3552414.70247  -3315969.78946  24340863.1174   24340869.8324
       385.4384
   5600717.65948   4367423.25547  23622565.8984   23622571.7934
     -1755.9844
   1877533.07545   1468910.21645  26104813.2034   26104819.1564
     -1190.4844
  10408743.28648   8106336.50147  22547314.3444   22547320.2274
     -3158.6254
  17442733.72147  13590687.39246  23965991.7584   23965997.9574
     -4369.7974
   8457001.09648   6590123.15847  23027451.6874   23027456.2344
     -2560.0314
  27564988.47243  21468600.30545  27174344.7814   27174352.4844
     -5997.2814
  -1133815.87946   -836172.23845  25356225.6094   25356232.0194
      -478.1724
 01 10  2  1 52 15.0080000  0  8G 7G 2G11G 8G27G28G31G26
  -3558158.22647  -3320445.18246  24339770.1644   24339776.9264
       380.4224
   5627076.06648   4387962.29547  23627581.7734   23627587.7034
     -1758.4224
   1895439.52445   1482863.39945  26108221.2274   26108227.7774
     -1197.0004
  10456172.47548   8143294.32547  22556339.7584   22556345.7344
     -3165.2194
  17508323.74047  13641796.49046  23978473.2814   23978479.4454
     -4375.4844
   8495429.81048   6620067.62647  23034764.6334   23034769.0164
     -2563.7344
  27654960.82343  21538708.86045  27191466.1954   27191471.9614
     -5998.9844
  -1126585.19046   -830537.88645  25357602.0084   25357608.3244
      -485.8914
 01 10  2  1 52 30.0080000  0  8G 7G 2G11G 8G27G28G31G26
  -3563829.72747  -3324864.46146  24338690.9454   24338697.8984
       375.6254
   5653467.62848   4408527.17447  23632603.9144   23632609.9494
     -1760.6094
   1913440.42745   1496890.13545  26111647.1484   26111653.2774
     -1203.2974
  10503697.19948   8180326.59047  22565383.3984   22565389.4104
     -3171.5624
  17573995.68047  13692969.42646  23990970.5314   23990976.4844
     -4380.9374
   8533910.85348   6650052.87147  23042087.3204   23042091.8324
     -2567.2034
  27744955.37843  21608834.51845  27208591.3754   27208598.8444
     -6000.4534
  -1119242.29446   -824816.11146  25358998.7814   25359005.5784
      -493.3444
 01 10  2  1 52 45.0080000  0  8G 7G 2G11G 8G27G28G31G26
  -3569427.09847  -3329225.97546  24337625.7194   24337632.6724
       370.5944
   5679894.15248   4429119.29247  23637632.6414   23637638.5824
     -1763.0314
   1931537.95445   1510992.15745  26115090.3524   26115096.9494
     -1209.8124
  10551319.42848   8217434.83447  22574445.5004   22574451.4534
     -3178.1414
  17639751.42547  13744207.66446  24003483.2974   24003489.3554
     -4386.6094
   8572445.96648   6680080.25047  23049420.3054   23049424.8984
     -2570.9064
  27834973.79144  21678978.86445  27225723.3284   27225726.3284
     -6002.1094
  -1111785.08346   -819005.24545  25360418.0314   25360425.0084
      -501.0624
 01 10  2  1 53  0.0080000  0  8G 7G 2G11G 8G27G28G31G26
  -3574949.30447  -3333528.92146  24336574.8674   24336582.0554
       365.6724
   5706356.39148   4449739.24747  23642668.3914   23642674.3324
     -1765.3124
   1949733.09745   1525170.26145  26118553.2424   26118558.8324
     -1216.2344
  10599039.67748   8254619.45447  22583526.4304   22583532.3714
     -3184.5944
  17705591.65547  13795511.72546  24016012.1954   24016018.2074
     -4392.1254
   8611035.84248   6710150.30047  23056763.4774   23056768.0594
     -2574.4534
  27925016.35243  21749142.08245  27242856.9304   27242857.6684
     -6003.6094
  -1104212.44346   -813104.43345  25361858.7504   25361866.3484
      -508.6724
 01 10  2  1 53 15.0080000  0  8G 7G 2G11G 8G27G28G31G26
  -3580398.64847  -3337775.08846  24335537.6954   24335544.2234
       360.7664
   5732851.80148   4470385.04847  23647710.1484   23647716.2074
     -1767.5624
   1968023.49945   1539422.60645  26122033.1174   26122039.2694
     -1222.6414
  10646855.82648   8291878.80347  22592625.5624   22592631.5164
     -3191.0474
  17771513.81347  13846879.64146  24028556.6954   24028562.7664
     -4397.6414
   8649677.96048   6740261.05647  23064116.8054   23064121.3874
     -2577.9844
  28015080.53442  21819322.24543  27259993.1644   27259996.8094
     -6005.0944
  -1096526.78646   -807115.55745  25363321.1024   25363328.7584
      -516.2504
 01 10  2  1 53 30.0080000  0  8G 7G 2G11G 8G27G28G31G26
  -3585770.03547  -3341960.51046  24334515.6174   24334522.4774
       355.4844
   5759385.20148   4491060.43147  23652759.2814   23652765.1764
     -1770.1724
   1986414.46445   1553753.31645  26125533.1644   26125539.1764
     -1229.4374
  10694772.60748   8329216.56447  22601743.7894   22601749.7544
     -3197.8124
  17837522.75247  13898315.17346  24041118.0084   24041124.1954
     -4403.5004
   8688377.08548   6770416.23747  23071481.0784   23071485.7544
     -2581.8444
  28105170.72843  21889522.42644  27277137.7504   27277143.9734
     -6006.8754
  -1088722.95346   -801034.60846  25364806.3124   25364812.9694
      -524.2194
 01 10  2  1 53 45.0080000  0  8G 7G 2G11G 8G27G28G31G26
  -3591064.29747  -3346085.83746  24333507.9304   24333514.8944
       350.5944
   5785955.54548   4511764.61547  23657815.3834   23657821.4884
     -1772.3594
   2004905.15845   1568161.70745  26129051.7424   26129057.2974
     -1235.8284
  10742789.16848   8366632.07747  22610880.9694   22610886.8524
     -3204.2034
  17903617.38847  13949817.47646  24053695.1334   24053701.1684
     -4408.9374
   8727131.99548   6800614.87747  23078856.0704   23078860.5704
     -2585.2974
  28195285.58844  21959742.15845  27294287.4774   27294295.9304
     -6008.2344
  -1080801.81346   -794862.24846  25366313.6484   25366319.7774
      -531.7504
 01 10  2  1 54  0.0080000  0  8G 7G 2G11G 8G27G28G31G26
  -3596284.31147  -3350153.31346  24332514.5474   24332521.5004
       345.3914
   5812559.62048   4532495.08847  23662877.9224   23662883.9344
     -1774.8594
   2023492.63545   1582645.54645  26132588.1174   26132595.1874
     -1242.5164
  10790902.35148   8404122.88147  22620036.6094   22620042.4924
     -3210.8754
  17969794.50747  14001384.05046  24066288.4064   24066294.3244
     -4414.6874
   8765939.46048   6830854.47647  23086240.8364   23086245.4534
     -2589.0474
  28285421.48443  22029978.23245  27311438.7424   27311446.2344
     -6009.9064
  -1072766.32746   -788600.77946  25367842.5784   25367849.1994
      -539.6414
 01 10  2  1 54 15.0080000  0  8G 7G 2G11G 8G27G28G31G26
  -3601427.84547  -3354161.18346  24331536.0624   24331543.3444
       340.4384
   5839199.50148   4553253.46347  23667947.3204   23667953.3204
     -1777.1094
   2042179.19745   1597206.58145  26136144.7034   26136151.1374
     -1249.0164
  10839114.26848   8441690.62247  22629210.9304   22629216.8244
     -3217.3284
  18036056.21847  14053016.56046  24078897.9224   24078904.0984
     -4420.1874
   8804801.65548   6861136.71847  23093636.0474   23093640.7464
     -2592.5624
  28375580.36543  22100231.93945  27328595.4844   27328602.4264
     -6011.2344
  -1064614.01746   -782248.26946  25369394.2504   25369400.8944
      -547.3124
 01 10  2  1 54 30.0080000  0  8G 7G 2G11G 8G27G28G31G26
  -3606493.37347  -3358108.28146  24330571.6644   24330578.5594
       335.1564
   5865876.41548   4574040.68747  23673023.8284   23673029.8404
     -1779.6414
   2060966.43045   1611846.04145  26139720.1414   26139725.3094
     -1255.7814
  10887426.36848   8479336.42547  22638404.5944   22638410.5594
     -3224.0944
  18102403.75647  14104715.93246  24091523.3984   24091529.5744
     -4425.9694
   8843719.74948   6891462.51747  23101041.9304   23101046.3714
     -2596.3444
  28465763.05043  22170504.16945  27345756.0944   27345761.0984
     -6012.9224
  -1056343.38146   -775803.57246  25370967.7274   25370974.3244
      -555.2664
 01 10  2  1 54 45.0080000  0  8G 7G 2G11G 8G27G28G31G26
  -3611483.68147  -3361996.76646  24329622.2504   24329629.1334
       330.1564
   5892587.26348   4594854.34947  23678106.7034   23678112.6214
     -1781.8754
   2079851.49445   1626561.73645  26143313.5164   26143319.0004
     -1262.2974
  10935835.52448   8517057.85247  22647616.4614   22647622.3444
     -3230.5474
  18168833.97147  14156479.72346  24104164.5784   24104170.7424
     -4431.4694
   8882690.46648   6921829.31547  23108457.9534   23108462.5004
     -2599.8284
  28555966.12643  22240792.48545  27362920.0784   27362921.1564
     -6014.2504
  -1047957.40046   -769268.99846  25372563.7734   25372570.6914
      -562.9374
 01 10  2  1 55  0.0080000  0  8G 7G 2G11G 8G27G28G31G26
  -3616398.62947  -3365826.52946  24328687.1024   24328693.9844
       325.2664
   5919331.93848   4615694.37347  23683196.0164   23683201.9924
     -1783.9844
   2098834.61645   1641353.85845  26146924.7114   26146931.1564
     -1268.6724
  10984341.87448   8554855.01947  22656846.8984   22656852.8284
     -3236.8754
  18235346.75347  14208307.86846  24116821.7664   24116827.8834
     -4436.8284
   8921713.76448   6952237.09547  23115883.5624   23115888.1334
     -2603.1874
  28646189.52043  22311096.62544  27380089.2894   27380100.0274
     -6015.4694
  -1039455.81346   -762644.33546  25374181.6414   25374188.1214
      -570.5004
 01 10  2  1 55 15.0080000  0  8G 7G 2G11G 8G27G28G31G26
  -3621241.07847  -3369599.79946  24327765.3754   24327772.1954
       320.1884
   5946107.37348   4636558.36747  23688291.1564   23688296.9924
     -1786.2664
   2117912.95345   1656220.17345  26150556.4374   26150562.5434
     -1275.3124
  11032942.35248   8592725.52847  22666095.3524   22666101.2814
     -3243.3914
  18301939.05147  14260197.96746  24129493.6254   24129499.7544
     -4442.3594
   8960786.51448   6982683.40147  23123318.9374   23123323.4374
     -2606.7194
  28736429.67043  22381413.73045  27397262.5314   27397273.6914
     -6016.7974
  -1030841.50646   -755931.83546  25375820.7034   25375827.4064
      -578.2664
 01 10  2  1 55 30.0080000  0  8G 7G 2G11G 8G27G28G31G26
  -3626005.85247  -3373312.54646  24326858.6644   24326865.6294
       315.0944
   5972918.35648   4657450.05647  23693393.1874   23693399.2234
     -1788.5474
   2137091.61645   1671164.65945  26154205.4614   26154212.1644
     -1281.8914
  11081641.75548   8630673.12847  22675362.5314   22675368.3444
     -3249.8914
  18368615.64847  14312153.75246  24142181.6174   24142187.7344
     -4447.8754
   8999913.45448   7013171.93947  23130764.4614   23130768.9844
     -2610.2344
  28826691.21944  22451747.50945  27414439.1254   27414443.6604
     -6018.0474
  -1022109.20046   -749127.39946  25377482.5944   25377489.4144
      -586.0474
 01 10  2  1 55 45.0080000  0  8G 7G 2G11G 8G27G28G31G26
  -3630694.04047  -3376965.61646  24325966.3204   24325973.1914
       309.8914
   5999763.64848   4678368.48747  23698501.7504   23698507.7854
     -1790.9064
   2156369.70945   1686186.59345  26157874.1484   26157879.4344
     -1288.5944
  11130439.10848   8668697.04747  22684648.3674   22684654.2274
     -3256.5004
  18435375.24247  14364174.21846  24154885.6954   24154891.6484
     -4453.5004
   9039093.35448   7043701.74047  23138220.2274   23138224.8554
     -2613.8444
  28916972.31143  22522096.49445  27431617.7344   27431617.0084
     -6019.5164
  -1013260.21546   -742232.04146  25379166.3444   25379172.5904
      -593.9224
 01 10  2  1 56  0.0080000  0  8G 7G 2G11G 8G27G28G31G26
  -3635303.43047  -3380557.28946  24325089.0164   24325095.8594
       304.6884
   6026645.14548   4699315.12447  23703617.0004   23703622.9304
     -1793.2814
   2175749.39745   1701287.71545  26161561.3914   26161567.2624
     -1295.3284
  11179336.32748   8706798.78447  22693953.2114   22693959.1874
     -3263.1254
  18502219.82447  14416260.89746  24167605.9144   24167612.0314
     -4459.1094
   9078328.04648   7074274.23747  23145686.2504   23145690.8674
     -2617.4534
  29007275.06543  22592462.34845  27448801.8914   27448812.4064
     -6020.8594
  -1004292.14046   -735243.88246  25380872.7734   25380879.6804
      -601.8124
 01 10  2  1 56 15.0080000  0  8G 7G 2G11G 8G27G28G31G26
  -3639835.33247  -3384088.57046  24324226.3834   24324233.1334
       299.4384
   6053561.33048   4720288.78747  23708738.8524   23708744.9104
     -1795.6414
   2195229.42745   1716467.03845  26165268.1254   26165274.2194
     -1302.1094
  11228331.96448   8744977.21347  22703276.8204   22703282.6804
     -3269.7344
  18569147.83447  14468412.59646  24180341.9614   24180347.9734
     -4464.7194
   9117615.87948   7104888.14647  23153162.5394   23153167.0044
     -2621.0314
  29097597.50043  22662843.55245  27465989.2734   27465996.8364
     -6022.2194
   -995206.44546   -728164.06646  25382601.4694   25382608.2074
      -609.7344
 01 10  2  1 56 30.0080000  0  8G 7G 2G11G 8G27G28G31G26
  -3644289.25247  -3387559.09046  24323379.1254   24323386.4414
       294.3444
   6080512.40648   4741289.63747  23713867.6024   23713873.6484
     -1797.8914
   2214810.31645   1731724.91845  26168994.3524   26169002.5354
     -1308.7344
  11277426.27448   8783232.52947  22712618.9534   22712624.9184
     -3276.2344
  18636159.39347  14520629.38746  24193093.8914   24193099.8914
     -4470.2034
   9156957.09548   7135543.65247  23160648.9614   23160653.4374
     -2624.5164
  29187939.65943  22733240.14944  27483180.7734   27483186.6214
     -6023.4844
   -986002.47046   -720992.11046  25384352.9224   25384359.9104
      -617.5314
 01 10  2  1 56 45.0080000  0  8G 7G 2G11G 8G27G28G31G26
  -3648667.18747  -3390970.40446  24322546.0704   24322552.7854
       289.4694
   6107496.19048   4762315.97347  23719002.3444   23719008.3554
     -1799.8754
   2234490.08245   1747059.87045  26172739.9454   26172744.9024
     -1315.1564
  11326617.15448   8821563.09547  22721979.8204   22721985.6214
     -3282.4844
  18703252.34447  14572909.59846  24205861.1954   24205867.3244
     -4475.4374
   9196349.46248   7166239.01147  23168145.0474   23168149.4654
     -2627.7194
  29278298.93743  22803650.32645  27500374.9064   27500379.1604
     -6024.4064
   -976682.22946   -713729.52846  25386126.7734   25386132.5624
      -625.1094
 01 10  2  1 57  0.0080000  0  8G 7G 2G11G 8G27G28G31G26
  -3652970.03147  -3394323.20546  24321727.0624   24321733.8714
       284.1884
   6134511.53748   4783366.90847  23724143.2424   23724149.2544
     -1802.2344
   2254267.80545   1762471.14045  26176503.4144   26176509.3674
     -1321.9374
  11375903.54548   8859968.08547  22731358.7344   22731364.6294
     -3289.1094
  18770425.45147  14625252.27846  24218643.5704   24218649.5124
     -4481.0314
   9235791.83248   7196973.34147  23175650.4844   23175655.0194
     -2631.3124
  29368673.90042  22874072.41444  27517571.7034   27517581.9964
     -6025.7034
   -967246.73146   -706377.15446  25387922.5394   25387928.7274
      -633.0164
 01 10  2  1 57 15.0080000  0  8G 7G 2G11G 8G27G28G31G26
  -3657193.72247  -3397614.33046  24320923.4224   24320930.3524
       279.1094
   6161562.24748   4804445.39947  23729290.6874   23729296.6874
     -1804.3754
   2274147.65545   1777961.98245  26180287.0004   26180292.8014
     -1328.5624
  11425289.39348   8898450.57547  22740756.3674   22740762.0744
     -3295.5314
  18837682.57147  14677660.42546  24231442.2344   24231448.2694
     -4486.4374
   9275287.83148   7227749.45647  23183166.4304   23183170.8244
     -2634.6724
  29459068.16543  22944509.55844  27534775.1174   27534777.6844
     -6026.7504
   -957691.63846   -698931.58946  25389740.7974   25389747.1844
      -640.8124
 01 10  2  1 57 30.0080000  0  7G 7G 2G11G 8G27G28G26
  -3661340.59347  -3400845.59646  24320134.1334   24320141.0984
       273.8594
   6188645.69148   4825549.39447  23734444.5084   23734450.3914
     -1806.7034
   2294127.21845   1793530.50445  26184088.0704   26184093.0394
     -1335.3444
  11474772.12748   8937008.55947  22750172.4694   22750178.3524
     -3302.1094
  18905021.03146  14730131.94846  24244256.0704   24244262.1524
     -4491.9844
   9314834.85748   7258565.33947  23190692.0004   23190696.4414
     -2638.2034
   -948019.59846   -691394.87846  25391580.9534   25391587.1874
      -648.7664
 01 10  2  1 57 45.0080000  0  7G 7G 2G11G 8G27G28G26
  -3665409.95147  -3404016.47246  24319359.8984   24319366.3204
       268.6254
   6215762.34048   4846679.26147  23739604.7274   23739610.8204
     -1808.9534
   2314207.27245   1809177.35445  26187910.1414   26187916.4804
     -1342.0944
  11524352.14848   8975642.35547  22759607.3754   22759613.2114
     -3308.6564
  18972441.31747  14782667.22946  24257085.8834   24257091.9184
     -4497.4694
   9354433.33548   7289421.30647  23198227.3204   23198231.7034
     -2641.6724
   -938229.77146   -683766.39546  25393443.8914   25393450.4064
      -656.6414
 01 10  2  1 58  0.0080000  0  7G 7G 2G11G 8G27G28G26
  -3669398.27047  -3407124.19246  24318600.7814   24318607.2624
       263.4224
   6242915.46848   4867837.55447  23744771.8754   23744777.7344
     -1811.1724
   2334391.26345   1824905.18845  26191749.3834   26191754.8444
     -1348.8284
  11574033.08148   9014354.78347  22769061.1954   22769067.0904
     -3315.1724
  19039946.61846  14835268.76046  24269931.6094   24269937.8324
     -4502.9374
   9394086.47748   7320319.87447  23205773.1954   23205777.7194
     -2645.1094
   -928318.73846   -676043.48046  25395329.9224   25395336.6374
      -664.5474
 01 10  2  1 58 15.0080000  0  7G 7G 2G11G 8G27G28G26
  -3673310.05547  -3410172.27746  24317856.4844   24317863.2114
       258.1094
   6270100.34748   4889020.58947  23749944.7504   23749950.6684
     -1813.5004
   2354674.82945   1840710.59145  26195609.9224   26195615.7344
     -1355.6874
  11623810.20448   9053142.16247  22778533.4844   22778539.2974
     -3321.7974
  19107532.26947  14887932.89246  24282792.5784   24282798.4494
     -4508.5004
   9433789.50848   7351257.31647  23213328.3364   23213332.7544
     -2648.6414
   -918290.86546   -668229.50146  25397237.9454   25397244.1214
      -672.5314
 01 10  2  1 58 30.0080000  0  7G 7G 2G11G 8G27G28G26
  -3677141.87147  -3413158.05046  24317127.1874   24317133.6914
       252.8444
   6297320.18048   4910230.86647  23755124.5474   23755130.5354
     -1815.7664
   2375061.43345   1856596.32445  26199489.8124   26199497.1054
     -1362.5004
  11673686.58148   9092006.88447  22788024.7194   22788030.6134
     -3328.3444
  19175201.35047  14940662.04646  24295670.0944   24295676.1414
     -4513.9844
   9473545.61648   7382236.12347  23220893.6254   23220898.0314
     -2652.1094
   -908142.85846   -660321.93246  25399168.9924   25399175.5194
      -680.4844
 01 10  2  1 58 45.0080000  0  7G 7G 2G11G 8G27G28G26
  -3680895.84947  -3416083.17446  24316412.8754   24316419.4144
       247.6254
   6324572.53648   4931466.48247  23760310.5944   23760316.5234
     -1817.9374
   2395548.90445   1872560.58245  26203386.9844   26203394.0314
     -1369.2194
  11723660.00348   9130947.22647  22797534.3754   22797540.3634
     -3334.8284
  19242951.46946  14993454.34546  24308562.0314   24308568.1954
     -4519.4064
   9513352.35248   7413254.37647  23228468.5784   23228472.8674
     -2655.4844
   -897876.71946   -652322.29046  25401122.5314   25401129.1414
      -688.3754
 01 10  2  1 59  0.0080000  0  7G 7G 2G11G 8G27G28G26
  -3684571.63547  -3418947.36346  24315713.1954   24315719.4414
       242.3594
   6351857.56648   4952727.56147  23765502.7344   23765508.6874
     -1820.1724
   2416137.66545   1888603.85145  26207305.2034   26207310.6054
     -1376.0474
  11773730.72848   9169963.38547  22807062.4614   22807068.2624
     -3341.3594
  19310782.74346  15046309.88246  24321470.1094   24321476.2034
     -4524.8594
   9553209.76248   7444312.11547  23236053.1024   23236057.4964
     -2658.9374
   -887492.22346   -644230.44246  25403098.6094   25403104.3984
      -696.3444
 01 10  2  1 59 15.0080000  0  7G 7G 2G11G 8G27G28G26
  -3688167.51647  -3421749.28846  24315028.7664   24315035.1874
       237.1724
   6379176.70648   4974015.21947  23770701.3674   23770707.2384
     -1822.3124
   2436829.32945   1904727.25545  26211243.0234   26211248.9654
     -1382.7814
  11823900.31948   9209056.58647  22816609.4694   22816615.2584
     -3347.8124
  19378696.61446  15099229.77446  24334393.8364   24334400.1174
     -4530.2504
   9593119.31648   7475410.48847  23243647.6874   23243652.1054
     -2662.2664
   -876987.59446   -636044.95746  25405097.6254   25405103.8484
      -704.2194
 01 10  2  1 59 30.0080000  0  7G 7G 2G11G 8G27G28G26
  -3691684.60447  -3424489.81546  24314359.6174   24314366.0164
       231.7974
   6406528.67948   4995328.45447  23775906.2424   23775912.3484
     -1824.5944
   2457622.98045   1920930.14345  26215199.7974   26215206.1374
     -1389.6874
  11874167.36348   9248225.72747  22826174.8914   22826180.7384
     -3354.4224
  19446691.77946  15152213.01246  24347332.8754   24347338.9454
     -4535.7504
   9633079.57448   7506548.37147  23251251.8754   23251256.3524
     -2665.7344
   -866363.85046   -627766.68846  25407119.4844   25407125.4844
      -712.2664
 01 10  2  1 59 45.0080000  0  7G 7G 2G11G 8G27G28G26
  -3695118.93547  -3427165.86346  24313705.9694   24313712.2854
       226.0314
   6433917.02548   5016670.03547  23781118.1484   23781124.1254
     -1827.2664
   2478522.56445   1937215.58445  26219176.9694   26219183.0624
     -1396.9844
  11924535.70448   9287473.79947  22835759.7344   22835765.7234
     -3361.4224
  19514771.77746  15205262.35246  24360287.6564   24360293.8094
     -4541.6564
   9673094.13448   7537728.57047  23258866.3524   23258870.7694
     -2669.6094
   -855617.16846   -619392.58646  25409164.0004   25409169.9774
      -720.7034
 01 10  2  2  0  0.0080000  0  7G 7G 2G11G 8G27G28G26
  -3698472.90647  -3429779.28346  24313067.7734   24313074.1844
       220.9534
   6461339.14748   5038037.93547  23786336.3834   23786342.1954
     -1829.2194
   2499525.68745   1953581.68845  26223173.8054   26223179.9924
     -1403.6094
  11975002.83648   9326798.85047  22845363.2894   22845369.1134
     -3367.7194
  19582934.01946  15258375.78946  24373258.8674   24373264.9024
     -4546.8444
   9713160.37348   7568949.03547  23266490.7034   23266495.1444
     -2672.7504
   -844749.88346   -610924.54546  25411232.3204   25411238.4734
      -728.4694
 01 10  2  2  0 15.0080000  0  7G 7G 2G11G 8G27G28G26
  -3701748.79047  -3432331.86446  24312444.2194   24312450.4884
       215.7504
   6488792.56448   5059430.22347  23791560.5164   23791566.4454
     -1831.3284
   2520630.05445   1970026.65045  26227189.8204   26227196.9024
     -1410.4064
  12025566.23248   9366198.91647  22854985.1954   22854990.9024
     -3374.1564
  19651175.95946  15311551.30946  24386244.6024   24386250.6484
     -4552.1874
   9753275.75448   7600207.79647  23274124.3364   23274128.9184
     -2676.0624
   -833764.40046   -602364.40146  25413322.8754   25413328.8634
      -736.3754
 01 10  2  2  0 30.0080000  0  7G 7G 2G11G 8G27G28G26
  -3704942.35347  -3434820.29546  24311836.4224   24311842.7504
       210.1724
   6516281.36048   5080850.08647  23796791.3984   23796797.2584
     -1833.7504
   2541840.04445   1986553.95745  26231225.4774   26231231.0084
     -1417.5164
  12076230.09348   9405677.26547  22864626.0704   22864631.8944
     -3380.9374
  19719501.67946  15364792.13346  24399246.8834   24399252.9414
     -4557.8284
   9793444.36448   7631508.03247  23281768.1564   23281772.5864
     -2679.6564
   -822656.33646   -593708.71146  25415436.3914   25415442.4024
      -744.6094
 01 10  2  2  0 45.0080000  0  7G 7G 2G11G 8G27G28G26
  -3708054.96647  -3437245.64846  24311243.9844   24311250.2664
       204.8754
   6543803.88848   5102296.23147  23802028.7274   23802034.6334
     -1835.9064
   2563154.14345   2003162.35145  26235282.3524   26235288.1874
     -1424.3594
  12126992.85348   9445232.67847  22874285.7974   22874291.6684
     -3387.4224
  19787909.44446  15418096.87346  24412264.3594   24412270.3594
     -4563.2034
   9833664.42948   7662848.36647  23289421.8054   23289426.2114
     -2683.0004
   -811427.12646   -584958.65046  25417573.3524   25417580.0314
      -752.6094
 01 10  2  2  1  0.0080000  0  7G 7G 2G11G 8G27G28G26
  -3711086.82347  -3439608.07846  24310667.3284   24310673.5514
       199.4694
   6571359.65848   5123768.27847  23807272.3754   23807278.3754
     -1838.1254
   2584572.18345   2019851.80645  26239357.5394   26239362.6604
     -1431.3284
  12177853.97448   9484864.73647  22883964.5314   22883970.4144
     -3393.9844
  19856398.81446  15471465.20846  24425297.1874   24425303.3634
     -4568.6414
   9873935.49948   7694228.44147  23297085.0474   23297089.4064
     -2686.3914
   -800076.94346   -576114.31146  25419733.0234   25419739.3634
      -760.6724
 01 10  2  2  1 15.0080000  0  7G 7G 2G11G 8G27G28G26
  -3714037.48347  -3441907.23446  24310105.7734   24310112.1024
       194.0784
   6598948.89248   5145266.40347  23812522.4144   23812528.4734
     -1840.3124
   2606094.75845   2036622.66345  26243453.0164   26243459.3674
     -1438.2344
  12228813.87548   9524573.76647  22893661.8754   22893667.7934
     -3400.5314
  19924969.95946  15524897.26146  24438346.1874   24438352.5394
     -4574.0474
   9914257.64648   7725648.32047  23304758.3914   23304762.7854
     -2689.7504
   -788605.41046   -567175.41546  25421915.8204   25421922.2074
      -768.7344
 01 10  2  2  1 30.0080000  0  7G 7G 2G11G 8G27G28G26
  -3716909.19747  -3444144.87146  24309559.2504   24309565.7664
       188.7814
   6626569.05348   5166788.63247  23817778.3444   23817784.4494
     -1842.4064
   2627719.55545   2053473.19745  26247568.7034   26247575.3364
     -1445.0944
  12279870.12248   9564357.87247  22903377.4774   22903383.3834
     -3406.9844
  19993620.34446  15578391.05946  24451409.0624   24451415.2974
     -4579.3594
   9954628.40248   7757106.07947  23312440.3054   23312444.6294
     -2693.0314
   -777014.77646   -558143.71346  25424121.6564   25424127.7854
      -776.7034
 01 10  2  2  1 45.0080000  0  7G 7G 2G11G 8G27G28G26
  -3719700.65747  -3446319.98146  24309027.7974   24309034.0904
       183.4224
   6654221.24748   5188335.81647  23823040.3984   23823046.3164
     -1844.5474
   2649447.85945   2070404.31645  26251702.3914   26251709.1524
     -1452.0004
  12331023.77848   9604217.88147  22913111.7894   22913117.4844
     -3413.4844
  20062350.99646  15631947.40546  24464487.9844   24464493.9844
     -4584.7194
   9995048.81848   7788602.52947  23320132.1414   23320136.5594
     -2696.3444
   -765303.73246   -549018.18146  25426350.0704   25426356.7154
      -784.7504
 01 10  2  2  2  0.0080000  0  7G 7G 2G11G 8G27G28G26
  -3722411.67247  -3448432.39446  24308512.0314   24308518.1024
       177.9694
   6681905.50548   5209907.98147  23828308.4614   23828314.4374
     -1846.7664
   2671280.01345   2087416.42045  26255856.6484   26255863.2694
     -1459.0314
  12382274.99848   9644153.91347  22922864.6334   22922870.3984
     -3420.0784
  20131161.93246  15685566.30846  24477582.4454   24477588.5744
     -4590.1564
  10035518.84148   7820137.63747  23327833.2584   23327837.5594
     -2699.7344
   -753472.03046   -539798.63346  25428601.3444   25428607.8484
      -792.8914
 01 10  2  2  2 15.0080000  0  7G 7G 2G11G 8G27G28G26
  -3725041.98347  -3450481.92846  24308011.4304   24308017.7584
       172.8594
   6709621.83648   5231505.14147  23833582.6724   23833588.6024
     -1848.6414
   2693216.13145   2104509.56045  26260031.7114   26260039.3094
     -1465.7034
  12433623.67548   9684165.88247  22932635.8204   22932641.7154
     -3426.3284
  20200053.01646  15739247.66446  24490692.1564   24490698.2974
     -4595.2194
  10076038.29648   7851711.26247  23335543.8754   23335548.3164
     -2702.7504
   -741519.54946   -530484.98546  25430876.2974   25430882.3094
      -800.6874
 01 10  2  2  2 30.0080000  0  7G 7G 2G11G 8G27G28G26
  -3727593.83747  -3452470.32446  24307525.7034   24307531.7734
       167.3754
   6737367.82348   5253125.41847  23838862.5084   23838868.5084
     -1850.8754
   2715254.20845   2121682.10945  26264225.7894   26264231.0624
     -1472.7664
  12485067.74348   9724252.18947  22942425.3834   22942431.1724
     -3432.9224
  20269021.80346  15792989.55746  24503816.3204   24503822.6484
     -4600.6724
  10116604.77048   7883321.53047  23343263.5234   23343267.7894
     -2706.1414
   -729448.36446   -521078.81746  25433172.6724   25433178.8124
      -808.8444
 01 10  2  2  2 45.0080000  0  7G 7G 2G11G 8G27G28G26
  -3730061.96447  -3454393.47646  24307055.8204   24307062.1254
       161.8594
   6765148.41748   5274772.65447  23844149.0394   23844155.0864
     -1853.0624
   2737399.23845   2138937.99045  26268438.9374   26268446.2194
     -1479.7974
  12536612.01348   9764416.56947  22952233.7894   22952239.4494
     -3439.5164
  20338073.25646  15846795.87646  24516956.6724   24516962.4144
     -4606.0624
  10157223.22648   7914972.29847  23350992.7504   23350997.0744
     -2709.5164
   -717253.37546   -511576.18846  25435493.4774   25435499.8404
      -817.0004
 01 10  2  2  3  0.0090000  0  7G 7G 2G11G 8G27G28G26
  -3732450.95547  -3456254.96846  24306601.4744   24306607.8024
       156.6094
   6792960.89248   5296444.73547  23849441.5204   23849447.4274
     -1855.0474
   2759648.54445   2156275.17645  26272673.4744   26272678.7124
     -1486.6254
  12588255.38348   9804658.17347  22962061.3414   22962067.1424
     -3445.8594
  20407207.39946  15900666.63146  24530112.6694   24530119.0674
     -4611.2344
  10197891.79548   7946662.11547  23358731.7944   23358736.1184
     -2712.6414
   -704937.99446   -501979.75046  25437837.0994   25437844.1924
      -824.9534
 01 10  2  2  3 15.0090000  0  7G 7G 2G11G 8G27G28G26
  -3734758.17747  -3458052.74746  24306162.2554   24306168.2904
       151.2034
   6820803.51448   5318140.30547  23854739.8104   23854745.7274
     -1857.0944
   2782001.39845   2173692.97545  26276926.7704   26276933.4154
     -1493.5624
  12639993.10148   9844973.29347  22971906.5364   22971912.3724
     -3452.3124
  20476416.93646  15954596.12346  24543283.1694   24543289.4974
     -4616.5004
  10238606.85748   7978388.16547  23366479.6304   23366483.9774
     -2715.8444
   -692501.79346   -492289.18346  25440203.5134   25440209.8994
      -833.0164
 01 10  2  2  3 30.0090000  0  7G 7G 2G11G 8G27G28G26
  -3736983.46547  -3459786.68346  24305738.6304   24305744.8414
       145.6724
   6848678.29148   5339860.94247  23860044.2004   23860050.1774
     -1859.3444
   2804459.60245   2191192.91845  26281200.1694   26281207.3104
     -1500.6724
  12691828.81348   9885364.77447  22981770.6064   22981776.4894
     -3458.9374
  20545706.53146  16008588.00546  24556468.6534   24556474.6534
     -4621.9064
  10279371.28548   8010152.67647  23374236.8174   23374241.0134
     -2719.2194
   -679943.57346   -482503.52346  25442593.2314   25442599.7244
      -841.2344
 01 10  2  2  3 45.0090000  0  7G 7G 2G11G 8G27G28G26
  -3739126.43347  -3461456.46846  24305331.0054   24305337.2274
       140.0004
   6876585.43348   5361606.78847  23865354.7704   23865360.7474
     -1861.6414
   2827023.44945   2208775.18345  26285493.9114   26285499.5244
     -1507.8914
  12743762.75548   9925832.79647  22991653.3104   22991659.0524
     -3465.6414
  20615076.38546  16062642.42746  24569669.6534   24569675.6534
     -4627.4224
  10320185.10648   8041955.67847  23382003.5054   23382007.7944
     -2722.6724
   -667262.86146   -472622.40446  25445006.3804   25445013.2394
      -849.5474
 01 10  2  2  4  0.0090000  0  7G 7G 2G11G 8G27G28G26
  -3741188.11647  -3463062.91946  24304938.6224   24304944.7744
       134.8594
   6904523.51448   5383376.74447  23870671.3254   23870677.3844
     -1863.4694
   2849691.86845   2226438.90645  26289807.9744   26289813.6574
     -1514.6094
  12795793.61048   9966376.33647  23001554.4974   23001560.2274
     -3471.8444
  20684525.06946  16116758.27046  24582884.9974   24582891.0794
     -4632.4224
  10361047.08648   8073796.20547  23389779.1454   23389783.3174
     -2725.6254
   -654460.88246   -462646.80346  25447442.4504   25447448.7084
      -857.4064
